[[{"header":{"parameterUnit":"m.s-1","parameterCategory":1,"la1":30.6,"la2":29.2853,"lo1":-89.7004,"lo2":-87.6739,"dy":0.0162,"dx":0.0183,"nx":112,"ny":82,"refTime":"2023-04-21T06:00:00:Z","depth":0,"parameterNumber":2,"parameterNumberName":"U-component_of_WINDS"},"data":[0.0,0.0,0.0,0.0,0.0,0.0,0.0,0.0,0.0,0.0,0.0,0.0,0.0,0.0,0.0,0.0,0.0,0.0,0.0,0.0,0.0,0.0,0.0,0.0,0.0,0.0,0.0,0.0,0.0,0.0,0.0,0.0,0.0,0.0,0.0,0.0,0.0,0.0,0.0,0.0,0.0,0.0,0.0,0.0,0.0,0.0,0.0,0.0,0.0,0.0,0.0,0.0,0.0,0.0,0.0,0.0,0.0,0.0,0.0,0.0,0.0,0.0,0.0,0.0,0.0,0.0,0.0,0.0,0.0,0.0,0.0,0.0,0.0,0.0,0.0,0.0,0.0,0.0,0.0,0.0,0.0,0.0,0.0,0.0,0.0,0.0,0.0,0.0,0.0,0.0,0.0,1.6687,1.67,1.67,1.67,1.67,1.6607,1.6377,0.0,0.0,0.0,0.0,0.0,0.0,0.0,0.0,0.0,0.0,0.0,0.0,0.0,0.0,0.0,0.0,0.0,0.0,0.0,0.0,0.0,0.0,0.0,0.0,0.0,0.0,0.0,0.0,0.0,0.0,0.0,0.0,0.0,0.0,0.0,0.0,0.0,0.0,0.0,0.0,0.0,0.0,0.0,0.0,0.0,0.0,0.0,0.0,0.0,0.0,0.0,0.0,0.0,0.0,0.0,0.0,0.0,0.0,0.0,0.0,0.0,0.0,0.0,0.0,0.0,0.0,0.0,0.0,0.0,0.0,0.0,0.0,0.0,0.0,0.0,0.0,0.0,0.0,0.0,0.0,0.0,0.0,0.0,0.0,0.0,0.0,0.0,0.0,0.0,0.0,0.0,0.0,0.0,0.0,0.0,0.0,0.0,0.0,0.0,0.0,0.0,0.0,0.0,0.0,1.666,1.67,1.67,1.67,1.67,1.67,1.6687,1.6647,0.0,0.0,0.0,0.0,0.0,0.0,0.0,0.0,0.0,0.0,0.0,0.0,0.0,0.0,0.0,0.0,0.0,0.0,0.0,0.0,0.0,0.0,0.0,0.0,0.0,0.0,0.0,0.0,0.0,0.0,0.0,0.0,0.0,0.0,0.0,0.0,0.0,0.0,0.0,0.0,0.0,0.0,0.0,0.0,0.0,0.0,0.0,0.0,0.0,0.0,0.0,0.0,0.0,0.0,0.0,0.0,0.0,0.0,0.0,0.0,0.0,0.0,0.0,0.0,0.0,0.0,0.0,0.0,0.0,0.0,0.0,0.0,0.0,0.0,0.0,0.0,0.0,0.0,0.0,0.0,0.0,0.0,0.0,0.0,0.0,0.0,0.0,0.0,0.0,0.0,0.0,0.0,0.0,0.0,0.0,0.0,0.0,0.0,0.0,0.0,0.0,0.0,0.0,1.7113,1.7181,1.7181,1.7181,1.7181,1.7181,1.7181,1.714,1.6979,1.6871,0.0,0.0,0.0,0.0,0.0,0.0,0.0,0.0,0.0,0.0,0.0,0.0,0.0,0.0,0.0,0.0,0.0,0.0,0.0,0.0,0.0,0.0,0.0,0.0,0.0,0.0,0.0,0.0,0.0,0.0,0.0,0.0,0.0,0.0,0.0,0.0,0.0,0.0,0.0,0.0,0.0,0.0,0.0,0.0,0.0,0.0,0.0,0.0,0.0,0.0,0.0,0.0,0.0,0.0,0.0,0.0,0.0,0.0,0.0,0.0,0.0,0.0,0.0,0.0,0.0,0.0,0.0,0.0,0.0,0.0,0.0,0.0,0.0,0.0,0.0,0.0,0.0,0.0,0.0,0.0,0.0,0.0,0.0,0.0,0.0,0.0,0.0,0.0,0.0,0.0,0.0,0.0,0.0,0.0,0.0,0.0,0.0,0.0,0.0,0.0,0.0,0.0,1.7474,1.7608,1.7608,1.7608,1.7608,1.7608,1.7608,1.7515,1.7313,1.7233,0.0,0.0,0.0,0.0,0.0,0.0,0.0,0.0,0.0,0.0,0.0,0.0,0.0,0.0,0.0,0.0,0.0,0.0,0.0,0.0,0.0,0.0,0.0,0.0,0.0,0.0,0.0,0.0,0.0,0.0,0.0,0.0,0.0,0.0,0.0,0.0,0.0,0.0,0.0,0.0,0.0,0.0,0.0,0.0,0.0,0.0,0.0,0.0,0.0,0.0,0.0,0.0,0.0,0.0,0.0,0.0,0.0,0.0,0.0,0.0,0.0,0.0,0.0,0.0,0.0,0.0,0.0,0.0,0.0,0.0,0.0,0.0,0.0,0.0,0.0,0.0,0.0,0.0,0.0,0.0,0.0,0.0,0.0,0.0,0.0,0.0,0.0,0.0,0.0,0.0,0.0,0.0,0.0,0.0,0.0,0.0,0.0,0.0,0.0,0.0,0.0,0.0,1.7595,1.7608,1.7608,1.7608,1.7608,1.7608,1.7608,1.7595,1.7582,1.7353,0.0,0.0,0.0,0.0,0.0,0.0,0.0,0.0,0.0,0.0,0.0,0.0,0.0,0.0,0.0,0.0,0.0,0.0,0.0,0.0,0.0,0.0,0.0,0.0,0.0,0.0,0.0,0.0,0.0,0.0,0.0,0.0,0.0,0.0,0.0,0.0,0.0,0.0,0.0,0.0,0.0,0.0,0.0,0.0,0.0,0.0,0.0,0.0,0.0,0.0,0.0,0.0,0.0,0.0,0.0,0.0,0.0,0.0,0.0,0.0,0.0,0.0,0.0,0.0,0.0,0.0,0.0,0.0,0.0,0.0,0.0,0.0,0.0,0.0,0.0,0.0,0.0,0.0,0.0,0.0,0.0,0.0,0.0,0.0,0.0,0.0,0.0,0.0,0.0,0.0,0.0,0.0,0.0,0.0,0.0,0.0,0.0,0.0,0.0,0.0,0.0,0.0,1.7849,1.7943,0.0,1.8143,1.8076,1.7862,1.7849,1.7796,1.7622,0.0,0.0,0.0,0.0,0.0,0.0,0.0,0.0,0.0,0.0,0.0,0.0,0.0,0.0,0.0,0.0,0.0,0.0,0.0,0.0,0.0,0.0,0.0,0.0,0.0,0.0,0.0,0.0,0.0,0.0,0.0,0.0,0.0,0.0,0.0,0.0,0.0,0.0,0.0,0.0,0.0,0.0,0.0,0.0,0.0,0.0,0.0,0.0,0.0,0.0,0.0,0.0,0.0,0.0,0.0,0.0,0.0,0.0,0.0,0.0,0.0,0.0,0.0,0.0,0.0,0.0,0.0,0.0,0.0,0.0,0.0,0.0,0.0,0.0,0.0,0.0,0.0,0.0,0.0,0.0,0.0,0.0,0.0,0.0,0.0,0.0,0.0,0.0,0.0,0.0,0.0,0.0,0.0,0.0,0.0,0.0,0.0,0.0,0.0,0.0,0.0,0.0,1.7531,1.7201,1.7057,0.0,1.7284,1.7182,1.6967,1.731,1.7479,1.7299,0.0,0.0,0.0,0.0,0.0,0.0,0.0,0.0,0.0,0.0,0.0,0.0,0.0,0.0,0.0,0.0,0.0,0.0,0.0,0.0,0.0,0.0,0.0,0.0,0.0,0.0,0.0,0.0,0.0,0.0,0.0,0.0,0.0,0.0,0.0,0.0,0.0,0.0,0.0,0.0,0.0,0.0,0.0,0.0,0.0,0.0,0.0,0.0,0.0,0.0,0.0,0.0,0.0,0.0,0.0,0.0,0.0,0.0,0.0,0.0,0.0,0.0,0.0,0.0,0.0,0.0,0.0,0.0,0.0,0.0,0.0,0.0,0.0,0.0,0.0,0.0,0.0,0.0,0.0,0.0,0.0,0.0,0.0,0.0,0.0,0.0,0.0,0.0,0.0,0.0,0.0,0.0,0.0,0.0,0.0,0.0,0.0,0.0,0.0,0.0,0.0,0.0,1.655,1.5468,1.4707,1.4707,1.4707,1.4707,1.4707,1.5845,1.6574,0.0,0.0,0.0,0.0,0.0,0.0,0.0,0.0,0.0,0.0,0.0,0.0,0.0,0.0,0.0,0.0,0.0,0.0,0.0,0.0,0.0,0.0,0.0,0.0,0.0,0.0,0.0,0.0,0.0,0.0,0.0,0.0,0.0,0.0,0.0,0.0,0.0,0.0,0.0,0.0,0.0,0.0,0.0,0.0,0.0,0.0,0.0,0.0,0.0,0.0,0.0,0.0,0.0,0.0,0.0,0.0,0.0,0.0,0.0,0.0,0.0,0.0,0.0,0.0,0.0,0.0,0.0,0.0,0.0,0.0,0.0,0.0,0.0,0.0,0.0,0.0,0.0,0.0,0.0,0.0,0.0,0.0,0.0,0.0,0.0,0.0,0.0,0.0,0.0,0.0,0.0,0.0,0.0,0.0,0.0,0.0,0.0,0.0,0.0,0.0,0.0,0.0,0.0,1.649,1.5257,1.4427,1.4621,1.4641,1.4638,1.4627,1.497,1.5591,1.653,0.0,0.0,0.0,0.0,0.0,0.0,0.0,0.0,0.0,0.0,0.0,0.0,0.0,0.0,0.0,0.0,0.0,0.0,0.0,0.0,0.0,0.0,0.0,0.0,0.0,0.0,0.0,0.0,0.0,0.0,0.0,0.0,0.0,0.0,0.0,0.0,0.0,0.0,0.0,0.0,0.0,0.0,0.0,0.0,0.0,0.0,0.0,0.0,0.0,0.0,0.0,0.0,0.0,0.0,0.0,0.0,0.0,0.0,0.0,0.0,0.0,0.0,0.0,0.0,0.0,0.0,0.0,0.0,0.0,0.0,0.0,0.0,0.0,0.0,0.0,0.0,0.0,0.0,0.0,0.0,0.0,0.0,0.0,0.0,0.0,0.0,0.0,0.0,0.0,0.0,0.0,0.0,0.0,0.0,0.0,0.0,0.0,0.0,0.0,0.0,0.0,0.0,1.495,1.3722,1.2913,1.3069,1.3087,1.3072,1.3063,1.3545,1.419,1.4994,0.0,0.0,0.0,0.0,0.0,0.0,0.0,0.0,0.0,0.0,0.0,0.0,0.0,0.0,0.0,0.0,0.0,0.0,0.0,0.0,0.0,0.0,0.0,0.0,0.0,0.0,0.0,0.0,0.0,0.0,0.0,0.0,0.0,0.0,0.0,0.0,0.0,0.0,0.0,0.0,0.0,0.0,0.0,0.0,0.0,0.0,0.0,0.0,0.0,0.0,0.0,0.0,0.0,0.0,0.0,0.0,0.0,0.0,0.0,0.0,0.0,0.0,0.0,0.0,0.0,0.0,0.0,0.0,0.0,0.0,0.0,0.0,0.0,0.0,0.0,0.0,0.0,0.0,0.0,0.0,0.0,0.0,0.0,0.0,0.0,0.0,0.0,0.0,0.0,0.0,0.0,0.0,0.0,0.0,0.0,0.0,0.0,0.0,0.0,0.0,0.0,0.0,1.262,1.1503,1.0702,1.0702,1.0702,1.0732,1.0755,1.1804,1.2547,1.2697,0.0,0.0,0.0,0.0,0.0,0.0,0.0,0.0,0.0,0.0,0.0,0.0,0.0,0.0,0.0,0.0,0.0,0.0,0.0,0.0,0.0,0.0,0.0,0.0,0.0,0.0,0.0,0.0,0.0,0.0,0.0,0.0,0.0,0.0,0.0,0.0,0.0,0.0,0.0,0.0,0.0,0.0,0.0,0.0,0.0,0.0,0.0,0.0,0.0,0.0,0.0,0.0,0.0,0.0,0.0,0.0,0.0,0.0,0.0,0.0,1.7219,0.0,0.0,0.0,0.0,0.0,0.0,0.0,0.0,0.0,0.0,0.0,0.0,0.0,0.0,0.0,0.0,0.0,0.0,0.0,0.0,0.0,0.0,0.0,0.0,0.0,0.0,0.0,0.0,0.0,0.0,0.0,0.0,0.0,0.0,0.0,0.0,0.0,0.0,0.0,0.0,0.0,1.2299,1.0959,1.0004,1.0004,1.0004,1.0126,1.0391,1.0664,1.1352,1.2607,1.3221,0.0,0.0,0.0,0.0,0.0,0.0,0.0,0.0,0.0,0.0,0.0,0.0,0.0,0.0,0.0,0.0,0.0,0.0,0.0,0.0,0.0,0.0,0.0,0.0,0.0,0.0,0.0,0.0,0.0,0.0,0.0,0.0,0.0,0.0,0.0,0.0,0.0,0.0,0.0,0.0,0.0,0.0,0.0,0.0,0.0,0.0,0.0,0.0,0.0,0.0,0.0,0.0,0.0,0.0,0.0,0.0,0.0,0.0,0.0,0.0,1.6198,0.0,0.0,0.0,0.0,0.0,0.0,0.0,0.0,0.0,0.0,0.0,0.0,0.0,0.0,0.0,0.0,0.0,0.0,0.0,0.0,0.0,0.0,0.0,0.0,0.0,0.0,0.0,0.0,0.0,0.0,0.0,0.0,0.0,0.0,0.0,0.0,0.0,0.0,0.0,0.0,1.105,1.0331,0.9792,0.9792,0.9792,0.9883,1.0035,1.0065,1.0422,1.1261,1.2037,0.0,0.0,0.0,0.0,0.0,0.0,0.0,0.0,0.0,0.0,0.0,0.0,0.0,0.0,0.0,0.0,0.0,0.0,0.0,0.0,0.0,0.0,0.0,0.0,0.0,0.0,0.0,0.0,0.0,0.0,0.0,0.0,0.0,0.0,0.0,0.0,0.0,0.0,0.0,0.0,0.0,0.0,0.0,0.0,0.0,0.0,0.0,0.0,0.0,0.0,0.0,0.0,0.0,1.3519,1.3394,1.3433,1.3433,1.3433,1.3433,1.3201,1.3346,1.3865,1.5204,0.0,0.0,0.0,0.0,0.0,0.0,0.0,0.0,0.0,0.0,0.0,0.0,0.0,0.0,0.0,0.0,0.0,0.0,0.0,0.0,0.0,0.0,0.0,0.0,1.0435,1.0853,1.3049,0.0,0.0,0.0,0.0,0.0,0.0,0.0,0.0,0.0,0.0,0.0,0.9897,0.9903,0.9903,0.9903,0.9903,0.9903,0.9903,0.9846,0.9832,0.9832,1.1065,1.1916,0.0,0.0,0.0,0.0,0.0,0.0,0.0,0.0,0.0,0.0,0.0,0.0,0.0,0.0,0.0,0.0,0.0,0.0,0.0,0.0,0.0,0.0,0.0,0.0,0.0,0.0,0.0,0.0,0.0,0.0,0.0,0.0,1.4547,1.4367,0.0,0.0,0.0,0.0,0.0,0.0,0.0,0.0,0.0,0.0,0.0,0.0,0.0,1.4173,1.4319,1.2958,1.2382,1.2599,1.1203,1.0638,1.0813,1.0813,1.0813,1.0813,1.0751,0.0,1.4063,1.429,0.0,0.0,0.0,0.0,0.0,0.0,0.0,0.0,0.0,0.0,0.0,0.0,0.0,0.0,0.0,0.0,0.0,0.0,0.0,0.0,0.0,0.0,0.9917,1.0077,1.0081,1.017,0.0,1.068,1.0491,1.024,1.0058,0.0,0.0,0.0,0.0,0.0,0.0,0.0,1.0202,1.0222,1.0222,1.0222,1.0222,1.0222,1.0222,1.0062,0.9988,0.9988,1.0043,1.0747,1.2157,1.2247,0.0,0.0,0.0,0.0,0.0,0.0,0.0,0.0,0.0,0.0,0.0,0.0,0.0,0.0,0.0,0.0,0.0,0.0,0.0,0.0,0.0,0.0,0.0,0.0,0.0,0.0,0.0,0.0,0.0,1.4226,1.4072,1.3128,1.3839,1.4393,0.0,0.0,0.0,0.0,0.0,0.0,0.0,0.0,0.0,1.1963,1.1787,1.174,1.1822,1.1114,1.0853,1.1031,1.0325,1.0103,1.0315,1.0315,1.0315,1.0315,1.0315,1.0875,1.1864,1.2886,1.3377,1.3511,0.0,0.0,0.0,0.0,1.3581,1.3523,1.2621,1.2353,1.2415,1.223,0.0,0.0,0.0,0.0,0.0,0.0,0.0,0.0,0.0,0.0,1.0093,1.0161,1.0181,1.0202,1.0263,1.0301,1.0267,0.0,1.008,1.008,1.008,0.0,0.0,0.0,0.0,1.0202,1.0301,1.0315,1.0315,1.0315,1.0315,1.0315,1.0315,1.0215,1.0181,1.0181,1.0114,1.0349,1.0927,1.095,1.1362,0.0,0.0,0.0,0.0,0.0,0.0,0.0,0.0,0.0,0.0,0.0,0.0,0.0,0.0,0.0,0.0,0.0,0.0,0.0,0.0,0.0,0.0,0.0,0.0,0.0,0.0,0.0,0.0,1.2707,1.2799,1.1663,1.2632,1.3377,0.0,0.0,0.0,0.0,0.0,0.0,1.1839,1.1597,1.1134,1.0337,1.006,0.9958,0.9992,0.9992,1.0055,1.0213,1.0213,1.0326,1.054,1.054,1.054,1.054,1.054,1.0439,1.0388,1.1524,1.2019,1.2128,1.3154,1.3619,1.3523,1.2472,1.2147,1.2054,1.0849,1.0559,1.0626,1.0372,1.0315,1.0315,1.0315,0.0,0.0,0.0,0.0,1.0376,1.0385,1.0392,1.0405,1.0439,1.0453,1.046,1.0533,1.054,1.0492,0.0,1.0315,1.0322,1.0363,0.0,0.0,0.0,0.0,1.0466,1.0533,1.054,1.054,1.054,1.054,1.054,1.054,1.0439,1.0392,1.0392,1.0356,1.0229,1.0082,1.0076,1.0146,1.0306,0.0,0.0,0.0,0.0,0.0,0.0,0.0,0.0,0.0,0.0,0.0,0.0,0.0,0.0,0.0,0.0,0.0,0.0,0.0,0.0,0.0,0.0,0.0,0.0,0.0,0.0,0.0,0.0,0.0,0.9751,0.9914,0.0,0.0,0.0,0.0,1.0028,1.0028,1.0066,1.0118,1.0163,1.0232,1.0288,1.0288,1.0356,1.046,1.046,1.0609,1.0833,1.0833,1.0948,1.1152,1.1152,1.1152,1.1152,1.1152,1.1145,1.1084,1.0415,1.0153,1.0153,1.0201,1.0353,1.0517,1.0446,1.0422,1.0428,1.0333,1.0308,1.0315,1.0315,1.0315,1.0315,1.0315,1.0315,0.0,0.0,1.048,1.0514,1.0663,1.0664,1.0698,1.0846,1.088,1.0921,1.1125,1.1152,1.0989,0.0,1.0315,1.0356,1.046,0.0,1.0582,1.084,1.088,1.0928,1.1138,1.1152,1.1152,1.1152,1.1152,1.1152,1.1152,1.086,1.0664,1.0664,1.0432,1.0308,1.0301,1.027,1.0295,1.0288,1.0288,0.0,0.0,0.0,0.0,0.0,0.0,0.0,0.0,0.0,0.0,0.0,0.0,0.0,0.0,0.0,0.0,0.0,0.0,0.0,0.0,0.0,0.0,0.0,0.0,0.0,0.0,0.0,0.0,1.0032,1.0086,0.0,1.0243,1.0256,1.0331,1.0495,1.0515,1.0576,1.0758,1.0893,1.0975,1.1029,1.109,1.1165,1.1219,1.1219,1.1286,1.1482,1.1482,1.1592,1.1778,1.1778,1.1778,1.1778,1.1778,1.1723,1.1572,1.1272,1.1023,1.0758,1.063,1.063,1.0664,1.0602,1.0622,1.0677,1.0677,1.0772,1.0712,0.9664,1.0034,1.0678,0.9664,0.9328,0.9333,0.938,0.8708,0.7932,0.7971,0.7981,0.8025,0.8065,0.8075,0.8361,0.9411,0.8863,0.8395,0.9194,1.0175,1.09,1.0948,1.0961,1.0995,1.107,1.1084,1.1104,1.1193,1.12,1.12,1.12,1.12,1.12,1.12,1.1097,1.1002,1.1002,1.0941,1.0806,1.0684,1.0616,1.0521,1.0419,1.0324,1.0315,0.0,0.0,0.0,0.0,0.0,0.0,0.0,0.0,0.0,0.0,0.0,0.0,0.0,0.0,0.0,0.0,0.0,0.0,0.0,0.0,0.0,0.0,0.0,0.0,0.0,0.0,1.0285,1.0419,1.0514,1.0648,1.0744,1.0765,1.088,1.1049,1.111,1.1205,1.1382,1.1484,1.1586,1.1694,1.1796,1.187,1.1918,1.1918,1.1965,1.2016,1.1419,1.1202,1.1296,1.0722,1.0457,1.0451,1.0411,1.0341,1.0216,1.0213,1.0044,0.9865,1.0174,0.992,0.9393,0.9307,0.933,0.9399,0.9399,0.9492,0.9452,0.8377,0.8759,0.9417,0.8342,0.803,0.8045,0.8118,0.7398,0.6634,0.669,0.6706,0.6706,0.6706,0.6706,0.6991,0.7995,0.7424,0.6991,0.8031,0.9003,0.9672,0.9719,1.0182,1.0584,1.0634,1.1144,1.1499,1.1499,1.1499,1.1499,1.1499,1.1499,1.1479,1.1396,1.1341,1.1329,1.1281,1.1227,1.1152,1.1023,1.0921,1.0819,1.075,1.0662,1.0555,1.0507,0.0,0.0,0.0,0.0,0.0,0.0,0.0,0.0,0.0,0.0,0.0,0.0,0.0,0.0,0.0,0.0,0.0,0.0,0.0,0.0,0.0,0.0,0.0,1.0376,1.0555,1.0738,1.0711,1.0995,1.1206,1.122,1.1349,1.1409,1.1409,1.1552,1.1665,1.1727,1.174,1.1881,1.2139,1.2152,1.2219,1.236,1.236,1.236,1.2321,1.0558,0.9742,0.9664,0.7989,0.7209,0.7201,0.7157,0.7118,0.7114,0.7103,0.7067,0.719,0.8508,0.7997,0.6512,0.6512,0.6512,0.6512,0.6512,0.6512,0.6512,0.6477,0.6477,0.6512,0.6442,0.6442,0.6477,0.6681,0.6696,0.6695,0.6896,0.6939,0.6939,0.6939,0.6939,0.6976,0.7018,0.698,0.698,0.7022,0.671,0.6531,0.6753,0.8153,0.9292,0.9484,1.0896,0.0,1.1948,1.1948,1.1948,1.2023,1.2023,1.1925,1.174,1.1606,1.1465,1.1281,1.1134,1.1082,1.1082,1.1075,1.1068,1.1055,1.1055,1.0953,1.0751,0.0,0.0,0.0,0.0,0.0,0.0,0.0,0.0,0.0,0.0,0.0,0.0,0.0,0.0,0.0,0.0,0.0,0.0,0.0,0.0,0.0,0.0,1.0975,1.0759,1.0921,1.1118,1.1192,1.128,1.1409,1.1626,1.1687,1.1755,1.1907,1.202,1.1552,1.0254,1.0432,1.0019,0.8792,0.8823,0.8915,0.8943,0.8943,0.8943,0.8943,0.846,0.822,0.818,0.7705,0.7505,0.7501,0.7477,0.7469,0.7465,0.7481,0.6763,0.5792,0.7123,0.7371,0.6945,0.6945,0.6945,0.6945,0.6945,0.6945,0.6724,0.5585,0.5991,0.6724,0.5548,0.5182,0.5188,0.5264,0.4489,0.3638,0.366,0.3706,0.3706,0.3706,0.3706,0.4018,0.5193,0.4555,0.411,0.5224,0.4497,0.4424,0.6638,0.741,0.7734,0.7765,0.8182,0.0,0.8483,0.8483,0.8933,1.0142,1.0292,1.028,1.0202,1.0173,0.9615,0.8354,0.8251,0.8232,0.8232,0.809,0.7938,0.7787,0.7782,0.7768,0.0,0.0,0.0,0.0,0.0,0.0,0.0,0.0,0.0,0.0,0.0,0.0,0.0,0.0,0.0,0.0,0.0,0.0,0.0,0.0,0.0,0.0,1.0929,1.0856,1.0795,1.1131,1.1409,1.1558,1.1687,1.1837,1.2006,1.1452,1.1138,1.1256,1.069,0.9857,0.8832,0.8951,0.8602,0.7597,0.7645,0.773,0.777,0.777,0.777,0.777,0.7028,0.666,0.666,0.5883,0.5555,0.5552,0.5526,0.5514,0.5512,0.5486,0.493,0.0,0.0,0.0,0.0,0.0,0.5178,0.5178,0.5178,0.5178,0.5025,0.407,0.4415,0.4987,0.4072,0.3765,0.3769,0.3826,0.3177,0.2484,0.2495,0.2499,0.2499,0.2499,0.2499,0.2736,0.3656,0.3192,0.2805,0.3696,0.3045,0.0,0.4613,0.5683,0.6188,0.5991,0.6728,0.7258,0.703,0.7176,0.7663,0.8626,0.8736,0.8716,0.863,0.863,0.0,0.0,0.0,0.7089,0.7089,0.6993,0.0,0.0,0.0,0.6749,0.6749,0.6749,0.0,0.0,0.9101,0.9074,0.0,0.0,0.0,0.0,0.0,0.0,0.0,0.0,0.0,0.0,0.0,0.0,0.0,0.0,0.0,0.0,1.0042,0.9916,1.0073,1.0596,1.1156,1.167,1.1823,1.188,1.1938,1.0593,0.9729,0.9729,0.8424,0.7548,0.7346,0.0,0.0,0.0,0.0,0.7263,0.7379,0.7383,0.7383,0.7383,0.5831,0.5077,0.5036,0.3447,0.2692,0.2691,0.2622,0.261,0.2609,0.2623,0.2612,0.2771,0.4259,0.3857,0.2523,0.2523,0.2523,0.2523,0.2523,0.0,0.0,0.2523,0.2523,0.2523,0.2523,0.2523,0.253,0.2597,0.2604,0.261,0.2596,0.2601,0.2601,0.2521,0.2521,0.2521,0.2444,0.2444,0.2445,0.2448,0.2124,0.1839,0.1839,0.3419,0.4545,0.4099,0.5677,0.674,0.6314,0.6622,0.6954,0.7079,0.0,0.0,0.6926,0.6922,0.6773,0.647,0.6505,0.6539,0.6607,0.6596,0.6589,0.6578,0.657,0.6563,0.6563,0.6563,0.6563,0.6555,0.6554,0.6555,0.0,0.0,0.0,0.0,0.0,0.0,0.0,0.0,0.0,0.0,0.0,0.0,0.0,0.0,0.0,0.6755,0.6739,0.6751,0.6872,0.7007,0.8149,1.0998,1.0186,0.944,0.9531,0.8331,0.7504,0.7504,0.7669,0.711,0.5678,0.5725,0.5177,0.3728,0.3686,0.369,0.3742,0.3742,0.3742,0.3742,0.0,0.0,0.3195,0.2861,0.2692,0.2692,0.2686,0.2684,0.2683,0.2677,0.2675,0.2711,0.2981,0.2872,0.2585,0.2585,0.2585,0.2585,0.2585,0.2585,0.2585,0.2585,0.2585,0.2585,0.2585,0.2585,0.0,0.2592,0.2593,0.2594,0.26,0.2601,0.2521,0.2116,0.2034,0.1958,0.1606,0.1568,0.1571,0.1543,0.1463,0.1421,0.1421,0.177,0.1993,0.1911,0.2235,0.2477,0.239,0.2471,0.3034,0.4391,0.4512,0.4507,0.4498,0.4495,0.3892,0.2527,0.2727,0.3075,0.3443,0.3407,0.3374,0.3381,0.3345,0.3291,0.3291,0.3291,0.3291,0.3366,0.5829,0.6989,0.0,0.0,0.0,0.0,0.0,0.0,0.0,0.0,0.0,0.0,0.0,0.7013,0.0,0.0,0.545,0.559,0.5432,0.5341,0.5484,0.5552,0.6371,0.8481,0.8077,0.7625,0.7673,0.6325,0.5443,0.5443,0.4894,0.4163,0.325,0.3517,0.3194,0.2018,0.244,0.2566,0.2356,0.2356,0.2356,0.2356,0.2356,0.2356,0.2356,0.2608,0.2692,0.2692,0.2692,0.2692,0.2692,0.244,0.2356,0.2352,0.2326,0.2439,0.2647,0.2647,0.2647,0.2647,0.2647,0.2647,0.2647,0.2647,0.2647,0.2647,0.2647,0.2482,0.2315,0.2315,0.215,0.1943,0.1943,0.1943,0.1902,0.1655,0.1613,0.1533,0.1333,0.1294,0.1296,0.1302,0.1136,0.101,0.101,0.0792,0.0745,0.0952,0.1159,0.1197,0.0986,0.115,0.1637,0.2439,0.2559,0.2559,0.2559,0.2559,0.2195,0.1343,0.1506,0.1704,0.1937,0.1925,0.1994,0.218,0.2167,0.2278,0.2512,0.2512,0.2512,0.2552,0.4116,0.4794,0.0,0.0,0.0,0.0,0.0,0.0,0.0,0.0,0.7518,0.5872,0.536,0.5204,0.5153,0.4604,0.4236,0.4328,0.4064,0.3908,0.4022,0.411,0.4413,0.502,0.5467,0.5746,0.5746,0.4299,0.336,0.336,0.2059,0.1304,0.1304,0.1643,0.1688,0.1308,0.203,0.2244,0.1862,0.1862,0.1862,0.1862,0.1862,0.1861,0.1857,0.2237,0.2445,0.244,0.244,0.244,0.2398,0.2018,0.185,0.185,0.185,0.2103,0.244,0.265,0.2692,0.2692,0.2692,0.2692,0.2692,0.2608,0.2608,0.265,0.2482,0.223,0.1976,0.1892,0.1598,0.1304,0.1304,0.1304,0.1262,0.122,0.1178,0.1178,0.1051,0.1051,0.1051,0.1051,0.0799,0.0547,0.0547,0.0253,0.0126,0.0505,0.0842,0.0923,0.0541,0.0831,0.1035,0.1066,0.1065,0.1065,0.1065,0.1065,0.1106,0.1188,0.1188,0.1229,0.1311,0.1308,0.147,0.1797,0.1793,0.1953,0.2359,0.2359,0.2399,0.2481,0.2481,0.2471,0.6053,0.5868,0.5729,0.5566,0.5733,0.5912,0.0,0.0,0.5954,0.5354,0.4174,0.3116,0.2766,0.1539,0.0599,0.0607,0.0573,0.0536,0.0537,0.0584,0.063,0.0713,0.2137,0.3144,0.3144,0.1891,0.1052,0.1052,0.122,0.1304,0.1304,0.1359,0.1366,0.1323,0.1422,0.1429,0.1386,0.1386,0.1386,0.1386,0.1386,0.1379,0.1366,0.1452,0.1444,0.1472,0.1472,0.1472,0.1472,0.1388,0.1388,0.1388,0.1388,0.143,0.1556,0.2398,0.2692,0.2692,0.2692,0.2692,0.265,0.223,0.2356,0.2524,0.1724,0.1724,0.1892,0.1514,0.1346,0.1304,0.1304,0.1304,0.122,0.0842,0.0758,0.0674,0.0253,0.0126,0.0126,0.0126,0.0126,0.0084,0.0084,0.0042,0.0,0.0084,0.0126,0.0126,0.0084,0.0126,0.0126,0.0126,0.0126,0.0126,0.0126,0.0126,0.0336,0.0755,0.0755,0.0922,0.1299,0.1287,0.1322,0.1364,0.135,0.1383,0.1465,0.1465,0.1628,0.1994,0.1994,0.219,0.4394,0.4145,0.3966,0.0,0.365,0.4097,0.2966,0.3415,0.3761,0.2425,0.1676,0.1145,0.1,0.0445,0.0,0.0,0.0,0.0,0.0,0.0,0.0,0.0,0.0673,0.1135,0.1135,0.0631,0.0295,0.0295,0.0466,0.0553,0.0553,0.0816,0.0821,0.0561,0.1041,0.1174,0.0956,0.0956,0.0956,0.0956,0.0956,0.0954,0.095,0.1209,0.1292,0.1286,0.132,0.1316,0.1273,0.1055,0.0968,0.0968,0.0968,0.0968,0.101,0.164,0.1892,0.1892,0.1892,0.1892,0.185,0.164,0.1724,0.1808,0.143,0.1262,0.1221,0.101,0.0757,0.0547,0.0547,0.0547,0.0505,0.0337,0.0295,0.0253,0.0042,0.0,0.0,0.0,0.0,0.0,0.0,0.0,0.0,0.0,0.0,0.0,0.0,0.0,0.0,0.0,0.0,0.0,0.0,0.0,0.0084,0.0295,0.0295,0.0379,0.0547,0.0545,0.0669,0.0962,0.0957,0.1079,0.1286,0.1286,0.1535,0.195,0.195,0.2198,0.2597,0.237,0.0,0.1066,0.1673,0.2181,0.0763,0.1312,0.1717,0.0277,0.0,0.0,0.0,0.0,0.0,0.0,0.0,0.0,0.0,0.0,0.0,0.0,0.0,0.0,0.0,0.0,0.0,0.0,0.0,0.0,0.0,0.0304,0.0349,0.0,0.0613,0.079,0.0526,0.0526,0.0526,0.0526,0.0526,0.0525,0.0524,0.0827,0.0956,0.0956,0.0948,0.0945,0.0902,0.0639,0.051,0.051,0.0508,0.0508,0.055,0.0842,0.1093,0.1304,0.1304,0.1304,0.1262,0.1178,0.122,0.1262,0.1009,0.0842,0.0674,0.0547,0.0253,0.0,0.0,0.0,0.0,0.0,0.0,0.0,0.0,0.0,0.0,0.0,0.0,0.0,0.0,0.0,0.0,0.0,0.0,0.0,0.0,0.0,0.0,0.0,0.0,0.0,0.0,0.0,0.0,0.0,0.0,0.0,0.0,0.0,0.0168,0.0505,0.0505,0.0631,0.0926,0.0926,0.1178,0.1641,0.1767,0.2061,0.0111,0.0112,0.0076,0.0038,0.0076,0.0077,0.0039,0.004,0.008,0.0,0.0,0.0,0.0,0.0,0.0,0.0,0.0,0.0,0.0,0.0,0.0,0.0,0.0,0.0,0.0,0.0,0.0,0.0,0.0,0.0,0.0,0.0,0.0,0.0,0.0045,0.0045,0.0,0.0,0.0,0.0,0.0,0.0,0.0,0.0044,0.0043,0.0043,0.0043,0.0043,0.0043,0.0043,0.0,0.0,0.0,0.0,0.0043,0.0042,0.0589,0.1304,0.1304,0.1304,0.122,0.0842,0.0968,0.1135,0.0295,0.0337,0.0589,0.0168,0.0,0.0,0.0,0.0,0.0,0.0,0.0,0.0,0.0,0.0,0.0,0.0,0.0,0.0,0.0,0.0,0.0,0.0,0.0,0.0,0.0,0.0,0.0,0.0,0.0,0.0,0.0,0.0,0.0,0.0,0.0,0.0,0.0,0.0,0.0,0.0,0.0042,0.0042,0.0042,0.0042,0.0295,0.0758,0.1136,0.1556,0.0,0.0,0.0,0.0,0.0,0.0,0.0,0.0,0.0,0.0,0.0,0.0,0.0,0.0,0.0,0.0,0.0,0.0,0.0,0.0,0.0,0.0,0.0,0.0,0.0,0.0,0.0,0.0,0.0,0.0,0.0,0.0,0.0,0.0,0.0,0.0,0.0,0.0,0.0,0.0,0.0,0.0,0.0,0.0,0.0,0.0,0.0,0.0,0.0,0.0,0.0,0.0,0.0,0.0,0.0,0.0,0.0172,0.0429,0.0423,0.0421,0.0421,0.0295,0.0337,0.0379,0.0084,0.0126,0.021,0.0042,0.0,0.0,0.0,0.0,0.0,0.0,0.0,0.0,0.0,0.0,0.0,0.0,0.0,0.0,0.0,0.0,0.0,0.0,0.0,0.0,0.0,0.0,0.0,0.0,0.0,0.0,0.0,0.0,0.0,0.0,0.0,0.0,0.0,0.0,0.0,0.0,0.0,0.0,0.0,0.0,0.0253,0.0716,0.0842,0.1304,0.0,0.0,0.0,0.0,0.0,0.0,0.0,0.0,0.0,0.0,0.0,0.0,0.0,0.0,0.0,0.0,0.0,0.0,0.0,0.0,0.0,0.0,0.0,0.0,0.0,0.0,0.0,0.0,0.0,0.0,0.0,0.0,0.0,0.0,0.0,0.0,0.0,0.0,0.0,0.0,0.0,0.0,0.0,0.0,0.0,0.0,0.0,0.0,0.0,0.0,0.0,0.0,0.0,0.0,0.0,0.0,0.0,0.0,0.0,0.0,0.0,0.0,0.0,0.0,0.0,0.0,0.0,0.0,0.0,0.0,0.0,0.0,0.0,0.0,0.0,0.0,0.0,0.0,0.0,0.0,0.0,0.0,0.0,0.0,0.0,0.0,0.0,0.0,0.0,0.0,0.0,0.0,0.0,0.0,0.0,0.0,0.0,0.0,0.0,0.0,0.0,0.0,0.0,0.0,0.0,0.0,0.0,0.0,0.0168,0.0463,0.0631,0.101,0.0,0.0,0.0,0.0,0.0,0.0,0.0,0.0,0.0,0.0,0.0,0.0,0.0,0.0,0.0,0.0,0.0,0.0,0.0,0.0,0.0,0.0,0.0,0.0,0.0,0.0,0.0,0.0,0.0,0.0,0.0,0.0,0.0,0.0,0.0,0.0,0.0,0.0,0.0,0.0,0.0,0.0,0.0,0.0,0.0,0.0,0.0,0.0,0.0,0.0,0.0,0.0,0.0,0.0,0.0,0.0,0.0,0.0,0.0,0.0,0.0,0.0,0.0,0.0,0.0,0.0,0.0,0.0,0.0,0.0,0.0,0.0,0.0,0.0,0.0,0.0,0.0,0.0,0.0,0.0,0.0,0.0,0.0,0.0,0.0,0.0,0.0,0.0,0.0,0.0,0.0,0.0,0.0,0.0,0.0,0.0,0.0,0.0,0.0,0.0,0.0,0.0,0.0,0.0,0.0,0.0,0.0,0.0,0.0,0.0,0.0463,0.0674,0.0,0.0,0.0,0.0,0.0,0.0,0.0,0.0,0.0,0.0,0.0,0.0,0.0,0.0,0.0,0.0,0.0,0.0,0.0,0.0,0.0,0.0,0.0,0.0,0.0,0.0,0.0,0.0,0.0,0.0,0.0,0.0,0.0,0.0,0.0,0.0,0.0,0.0,0.0,0.0,0.0,0.0,0.0,0.0,0.0,0.0,0.0,0.0,0.0,0.0,0.0,0.0,0.0,0.0,0.0,0.0,0.0,0.0,0.0,0.0,0.0,0.0,0.0,0.0,0.0,0.0,0.0,0.0,0.0,0.0,0.0,0.0,0.0,0.0,0.0,0.0,0.0,0.0,0.0,0.0,0.0,0.0,0.0,0.0,0.0,0.0,0.0,0.0,0.0,0.0,0.0,0.0,0.0,0.0,0.0,0.0,0.0,0.0,0.0,0.0,0.0,0.0,0.0,0.0,0.0,0.0,0.0,0.0,0.0,0.0,0.0126,0.0379,0.0,0.0,0.0,0.0,0.0,0.0,0.0,0.0,0.0,0.0,0.0,0.0,0.0,0.0,0.0,0.0,0.0,0.0,0.0,0.0,0.0,0.0,0.0,0.0,0.0,0.0,0.0,0.0,0.0,0.0,0.0,0.0,0.0,0.0,0.0,0.0,0.0,0.0,0.0,0.0,0.0,0.0,0.0,0.0,0.0,0.0,0.0,0.0,0.0,0.0,0.0,0.0,0.0,0.0,0.0,0.0,0.0,0.0,0.0,0.0,0.0,0.0,0.0,0.0,0.0,0.0,0.0,0.0,0.0,0.0,0.0,0.0,0.0,0.0,0.0,0.0,0.0,0.0,0.0,0.0,0.0,0.0,0.0,0.0,0.0,0.0,0.0,0.0,0.0,0.0,0.0,0.0,0.0,0.0,0.0,0.0,0.0,0.0,0.0,0.0,0.0,0.0,0.0,0.0,0.0,0.0,0.0,0.0,0.0,0.0,0.0,0.0126,0.0,0.0,0.0,0.0,0.0,0.0,0.0,0.0,0.0,0.0,0.0,0.0,0.0,0.0,0.0,0.0,0.0,0.0,0.0,0.0,0.0,0.0,0.0,0.0,0.0,0.0,0.0,0.0,0.0,0.0,0.0,0.0,0.0,0.0,0.0,0.0,0.0,0.0,0.0,0.0,0.0,0.0,0.0,0.0,0.0,0.0,0.0,0.0,0.0,0.0,0.0,0.0,0.0,0.0,0.0,0.0,0.0,0.0,0.0,0.0,0.0,0.0,0.0,0.0,0.0,0.0,0.0,0.0,0.0,0.0,0.0,0.0,0.0,0.0,0.0,0.0,0.0,0.0,0.0,0.0,0.0,0.0,0.0,0.0,0.0,0.0,0.0,0.0,0.0,0.0,0.0,0.0,0.0,0.0,0.0,0.0,0.0,0.0,0.0,0.0,0.0,0.0,0.0,0.0,0.0,0.0,0.0,0.0,0.0,0.0,0.0,0.0,0.0,0.0,0.0,0.0,0.0,0.0,0.0,0.0,0.0,0.0,0.0,0.0,0.0,0.0,0.0,0.0,0.0,0.0,0.0,0.0,0.0,0.0,0.0,0.0,0.0,0.0,0.0,0.0,0.0,0.0,0.0,0.0,0.0,0.0,0.0,0.0,0.0,0.0,0.0,0.0,0.0,0.0,0.0,0.0,0.0,0.0,0.0,0.0,0.0,0.0,0.0,0.0,0.0,0.0,0.0,0.0,0.0,0.0,0.0,0.0,0.0,0.0,0.0,0.0,0.0,0.0,0.0,0.0,0.0,0.0,0.0,0.0,0.0,0.0,0.0,0.0,0.0,0.0,0.0,0.0,0.0,0.0,0.0,0.0,0.0,0.0,0.0,0.0,0.0,0.0,0.0,0.0,0.0,0.0,0.0,0.0,0.0,0.0,0.0,0.0,0.0,0.0,0.0,0.0,0.0,0.0,0.0,0.0,0.0,0.0,0.0,0.0,0.0,0.0,0.0,0.0,0.0,0.0,0.0,0.0,0.0,0.0,0.0,0.0,0.0,0.0,0.0,0.0,0.0,0.0,0.0,0.0,0.0,0.0,0.0,0.0,0.0,0.0,0.0,0.0,0.0,0.0,0.0,0.0,0.0,0.0,0.0,0.0,0.0,0.0,0.0,0.0,0.0,0.0,0.0,0.0,0.0,0.0,0.0,0.0,0.0,0.0,0.0,0.0,0.0,0.0,0.0,0.0,0.0,0.0,0.0,0.0,0.0,0.0,0.0,0.0,0.0,0.0,0.0,0.0,0.0,0.0,0.0,0.0,0.0,0.0,0.0,0.0,0.0,0.0,0.0,0.0,0.0,0.0,0.0,0.0,0.0,0.0,0.0,0.0,0.0,0.0,0.0,0.0,0.0,0.0,0.0,0.0,0.0,0.0,0.0,0.0,0.0,0.0,0.0,0.0,0.0,0.0,0.0,0.0,0.0,0.0,0.0,0.0,0.0,0.0,0.0,0.0,0.0,0.0,0.0,0.0,0.0,0.0,0.0,0.0,0.0,0.0,0.0,0.0,0.0,0.0,0.0,0.0,0.0,0.0,0.0,0.0,0.0,0.0,0.0,0.0,0.0,0.0,0.0,0.0,0.0,0.0,0.0,0.0,0.0,0.0,0.0,0.0,0.0,0.0,0.0,0.0,0.0,0.0,0.0,0.0,0.0,0.0,0.0,0.0,0.0,0.0,0.0,0.0,0.0,0.0,0.0,0.0,0.0,0.0,0.0,0.0,0.0,0.0,0.0,0.0,0.0,0.0,0.0,0.0,0.0,0.0,0.0,0.0,0.0,0.0,0.0,0.0,0.0,0.0,0.0,0.0,0.0,0.0,0.0,0.0,0.0,0.0,0.0,0.0,0.0,0.0,0.0,0.0,0.0,0.0,0.0,0.0,0.0,0.0,0.0,0.0,0.0,0.0,0.0,0.0,0.0,0.0,0.0,0.0,0.0,0.0,0.0,0.0,0.0,0.0,0.0,0.0,0.0,0.0,0.0,0.0,0.0,0.0,0.0,0.0,0.0,0.0,0.0,0.0,0.0,0.0,0.0,0.0,0.0,0.0,0.0,0.0,0.0,0.0,0.0,0.0,0.0,0.0,0.0,0.0,0.0,0.0,0.0,0.0,0.0,0.0,0.0,0.0,0.0,0.0,0.0,0.0,0.0,0.0,0.0,0.0,0.0,0.0,0.0,0.0,0.0,0.0,0.0,0.0,0.0,0.0,0.0,0.0,0.0,0.0,0.0,0.0,0.0,0.0,0.0,0.0,0.0,0.0,0.0,0.0,0.0,0.0,0.0,0.0,0.0,0.0,0.0,0.0,0.0,0.0,0.0,0.0,0.0,0.0,0.0,0.0,0.0,0.0,0.0,0.0,0.0,0.0,0.0,0.0,0.0,0.0,0.0,0.0,0.0,0.0,0.0,0.0,0.0,0.0,0.0,0.0,0.0,0.0,0.0,0.0,0.0,0.0,0.0,0.0,0.0,0.0,0.0,0.0,0.0,0.0,0.0,0.0,0.0,0.0,0.0,0.0,0.0,0.0,0.0,0.0,0.0,0.0,0.0,0.0,0.0,0.0,0.0,0.0,0.0,0.0,0.0,0.0,0.0,0.0,0.0,0.0,0.0,0.0,0.0,0.0,0.0,0.0,0.0,0.0,0.0,0.0,0.0,0.0,0.0,0.0,0.0,0.0,0.0,0.0,0.0,0.0,0.0,0.0,0.0,0.0,0.0,0.0,0.0,0.0,0.0,0.0,0.0,0.0,0.0,0.0,0.0,0.0,0.0,0.0,0.0,0.0,0.0,0.0,0.0,0.0,0.0,0.0,0.0,0.0,0.0,0.0,0.0,0.0,0.0,0.0,0.0,0.0,0.0,0.0,0.0,0.0,0.0,0.0,0.0,0.0,0.0,0.0,0.0,0.0,0.0,0.0,0.0,0.0,0.0,0.0,0.0,0.0,0.0,0.0,0.0,0.0,0.0,0.0,0.0,0.0,0.0,0.0,0.0,0.0,0.0,0.0,0.0,0.0,0.0,0.0,0.0,0.0,0.0,0.0,0.0,0.0,0.0,0.0,0.0,0.0,0.0,0.0,0.0,0.0,0.0,0.0,0.0,0.0,0.0,0.0,0.0,0.0,0.0,0.0,0.0,0.0,0.0,0.0,0.0,0.0,0.0,0.0,0.0,0.0,0.0,0.0,0.0,0.0,0.0,0.0,0.0,0.0,0.0,0.0,0.0,0.0,0.0,0.0,0.0,0.0,0.0,0.0,0.0,0.0,0.0,0.0,0.0,0.0,0.0,0.0,0.0,0.0,0.0,0.0,0.0,0.0,0.0,0.0,0.0,0.0,0.0,0.0,0.0,0.0,0.0,0.0,0.0,0.0,0.0,0.0,0.0,0.0,0.0,0.0,0.0,0.0,0.0,0.0,0.0,0.0,0.0,0.0,0.0,0.0,0.0,0.0,0.0,0.0,0.0,0.0,0.0,0.0,0.0,0.0,0.0,0.0,0.0,0.0,0.0,0.0,0.0,0.0,0.0,0.0,0.0,0.0,0.0,0.0,0.0,0.0,0.0,0.0,0.0,0.0,0.0,0.0,0.0,0.0,0.0,0.0,0.0,0.0,0.0,0.0,0.0,0.0,0.0,0.0,0.0,0.0,0.0,0.0,0.0,0.0,0.0,0.0,0.0,0.0,0.0,0.0,0.0,0.0,0.0,0.0,0.0,0.0,0.0,0.0,0.0,0.0,0.0,0.0,0.0,0.0,0.0,0.0,0.0,0.0,0.0,0.0,0.0,0.0,0.0,0.0,0.0,0.0,0.0,0.0,0.0,0.0,0.0,0.0,0.0,0.0,0.0,0.0,0.0,0.0,0.0,0.0,0.0,0.0,0.0,0.0,0.0,0.0,0.0,0.0,0.0,0.0,0.0,0.0,0.0,0.0,0.0,0.0,0.0,0.0,0.0,0.0,0.0,0.0,0.0,0.0,0.0,0.0,0.0,0.0,0.0,0.0,0.0,0.0,0.0,0.0,0.0,0.0,0.0,0.0,0.0,0.0,0.0,0.0,0.0,0.0,0.0,0.0,0.0,0.0,0.0,0.0,0.0,0.0,0.0,0.0,0.0,0.0,0.0,0.0,0.0,0.0,0.0,0.0,0.0,0.0,0.0,0.0,0.0,0.0,0.0,0.0,0.0,0.0,0.0,0.0,0.0,0.0,0.0,0.0,0.0,0.0,0.0,0.0,0.0,0.0,0.0,0.0,0.0,0.0,0.0,0.0,0.0,0.0,0.0,0.0,0.0,0.0,0.0,0.0,0.0,0.0,0.0,0.0,0.0,0.0,0.0,0.0,0.0,0.0,0.0,0.0,0.0,0.0,0.0,0.0,0.0,0.0,0.0,0.0,0.0,0.0,0.0,0.0,0.0,0.0,0.0,0.0,0.0,0.0,0.0,0.0,0.0,0.0,0.0,0.0,0.0,0.0,0.0,0.0,0.0,0.0,0.0,0.0,0.0,0.0,0.0,0.0,0.0,0.0,0.0,0.0,0.0,0.0,0.0,0.0,0.0,0.0,0.0,0.0,0.0,0.0,0.0,0.0,0.0,0.0,0.0,0.0,0.0,0.0,0.0,0.0,0.0,0.0,0.0,0.0,0.0,0.0,0.0,0.0,0.0,0.0,0.0,0.0,0.0,0.0,0.0,0.0,0.0,0.0,0.0,0.0,0.0,0.0,0.0,0.0,0.0,0.0,0.0,0.0,0.0,0.0,0.0,0.0,0.0,0.0,0.0,0.0,0.0,0.0,0.0,0.0,0.0,0.0,0.0,0.0,0.0,0.0,0.0,0.0,0.0,0.0,0.0,0.0,0.0,0.0,0.0,0.0,0.0,0.0,0.0,0.0,0.0,0.0,0.0,0.0,0.0,0.0,0.0,0.0,0.0,0.0,0.0,0.0,0.0,0.0,0.0,0.0,0.0,0.0,0.0,0.0,0.0,0.0,0.0,0.0,0.0,0.0,0.0,0.0,0.0,0.0,0.0,0.0,0.0,0.0,0.0,0.0,0.0,0.0,0.0,0.0,0.0,0.0,0.0,0.0,0.0,0.0,0.0,0.0,0.0,0.0,0.0,0.0,0.0,0.0,0.0,0.0,0.0,0.0,0.0,0.0,0.0,0.0,0.0,0.0,0.0,0.0,0.0,0.0,0.0,0.0,0.0,0.0,0.0,0.0,0.0,0.0,0.0,0.0,0.0,0.0,0.0,0.0,0.0,0.0,0.0,0.0,0.0,0.0,0.0,0.0,0.0,0.0,0.0,0.0,0.0,0.0,0.0,0.0,0.0,0.0,0.0,0.0,0.0,0.0,0.0,0.0,0.0,0.0,0.0,0.0,0.0,0.0,0.0,0.0,0.0,0.0,0.0,0.0,0.0,0.0,0.0,0.0,0.0,0.0,0.0,0.0,0.0,0.0,0.0,0.0,0.0,0.0,0.0,0.0,0.0,0.0,0.0,0.0,0.0,0.0,0.0,0.0,0.0,0.0,0.0,0.0,0.0,0.0,0.0,0.0,0.0,0.0,0.0,0.0,0.0,0.0,0.0,0.0,0.0,0.0,0.0,0.0,0.0,0.0,0.0,0.0,0.0,0.0,0.0,0.0,0.0,0.0,0.0,0.0,0.0,0.0,0.0,0.0,0.0,0.0,0.0,0.0,0.0,0.0,0.0,0.0,0.0,0.0,0.0,0.0,0.0,0.0,0.0,0.0,0.0,0.0,0.0,0.0,0.0,0.0,0.0,0.0,0.0,0.0,0.0,0.0,0.0,0.0,0.0,0.0,0.0,0.0,0.0,0.0,0.0,0.0,0.0,0.0,0.0,0.0,0.0,0.0,0.0,0.0,0.0,0.0,0.0,0.0,0.0,0.0,0.0,0.0,0.0,0.0,0.0,0.0,0.0,0.0,0.0,0.0,0.0,0.0,0.0,0.0,0.0,0.0,0.0,0.0,0.0,0.0,0.0,0.0,0.0,0.0,0.0,0.0,0.0,0.0,0.0,0.0,0.0,0.0,0.0,0.0,0.0,0.0,0.0,0.0,0.0,0.0,0.0,0.0,0.0,0.0,0.0,0.0,0.0,0.0,0.0,0.0,0.0,0.0,0.0,0.0,0.0,0.0,0.0,0.0,0.0,0.0,0.0,0.0,0.0,0.0,0.0,0.0,0.0,0.0,0.0,0.0,0.0,0.0,0.0,0.0,0.0,0.0,0.0,0.0,0.0,0.0,0.0,0.0,0.0,0.0,0.0,0.0,0.0,0.0,0.0,0.0,0.0,0.0,0.0,0.0,0.0,0.0,0.0,0.0,0.0,0.0,0.0,0.0,0.0,0.0,0.0,0.0,0.0,0.0,0.0,0.0,0.0,0.0,0.0,0.0,0.0,0.0,0.0,0.0,0.0,0.0,0.0,0.0,0.0,0.0,0.0,0.0,0.0,0.0,0.0,0.0,0.0,0.0,0.0,0.0,0.0,0.0,0.0,0.0,0.0,0.0,0.0,0.0,0.0,0.0,0.0,0.0,0.0,0.0,0.0,0.0,0.0,0.0,0.0,0.0,0.0,0.0,0.0,0.0,0.0,0.0,0.0,0.0,0.0,0.0,0.0,0.0,0.0,0.0,0.0,0.0,0.0,0.0,0.0,0.0,0.0,0.0,0.0,0.0,0.0,0.0,0.0,0.0,0.0,0.0,0.0,0.0,0.0,0.0,0.0,0.0,0.0,0.0,0.0,0.0,0.0,0.0,0.0,0.0,0.0,0.0,0.0,0.0,0.0,0.0,0.0,0.0,0.0,-0.0269,-0.0449,-0.0449,-0.018,0.0,0.0,0.0,0.0,0.0,0.0,0.0,0.0,0.0,0.0,0.0,0.0,0.0,0.0,0.0,0.0,0.0,0.0,0.0,0.0,0.0,0.0,0.0,0.0,0.0,0.0,0.0,0.0,0.0,0.0,0.0,0.0,0.0,0.0,0.0,0.0,0.0,0.0,0.0,0.0,0.0,0.0,0.0,0.0,0.0,0.0,0.0,0.0,0.0,0.0,0.0,0.0,0.0,0.0,0.0,0.0,0.0,0.0,0.0,0.0,0.0,0.0,0.0,0.0,0.0,0.0,0.0,0.0,0.0,0.0,0.0,0.0,0.0,0.0,0.0,0.0,0.0,0.0,0.0,0.0,0.0,0.0,0.0,0.0,0.0,0.0,0.0,0.0,0.0,0.0,0.0,0.0,0.0,0.0,0.0,0.0,0.0,0.0,0.0,0.0,0.0,0.0,0.0,0.0,0.0,0.0,0.0,0.0,-0.1525,-0.2464,-0.2464,-0.0897,0.0,0.0,0.0,0.0,0.0,0.0,0.0,0.0,0.0,0.0,0.0,0.0,0.0,0.0,0.0,0.0,0.0,0.0,0.0,0.0,0.0,0.0,0.0,0.0,0.0,0.0,0.0,0.0,0.0,0.0,0.0,0.0,0.0,0.0,0.0,0.0,0.0,0.0,0.0,0.0,0.0,0.0,0.0,0.0,0.0,0.0,0.0,0.0,0.0,0.0,0.0,0.0,0.0,0.0,0.0,0.0,0.0,0.0,0.0,0.0,0.0,0.0,0.0,0.0,0.0,0.0,0.0,0.0,0.0,0.0,0.0,0.0,0.0,0.0,0.0,0.0,0.0,0.0,0.0,0.0,0.0,0.0,0.0,0.0,0.0,0.0,0.0,0.0,0.0,0.0,0.0,0.0,0.0,0.0,0.0,0.0,0.0,-0.0359,-0.139,-0.1569,-0.1927,-0.2956,-0.3091,-0.3091,-0.3091,-0.3091,-0.3091,-0.3091,-0.3895,-0.4442,-0.4512,-0.3702,-0.3215,-0.3279,-0.3217,-0.3208,-0.3208,-0.31,-0.3091,-0.3091,-0.3091,-0.3125,-0.3188,-0.3188,-0.3223,0.0,0.0,0.0,0.0,0.0,0.0,0.0,0.0,0.0,0.0,0.0,0.0,0.0,0.0,0.0,0.0,0.0,0.0,0.0,-0.0398,-0.0673,-0.0673,-0.1076,-0.1171,-0.0728,-0.0684,-0.0505,-0.0047,0.0,0.0,0.0,0.0,0.0,0.0,0.0,0.0,0.0,0.0,0.0,0.0,0.0,0.0,0.0,0.0,0.0,0.0,0.0,0.0,0.0,0.0,0.0,0.0,0.0,0.0,0.0,0.0,0.0,0.0,0.0,0.0,0.0,0.0,0.0,0.0,0.0,0.0,0.0,0.0,0.0,0.0,0.0,0.0,0.0,0.0,0.0,0.0,0.0,0.0,0.0,0.0,-0.0359,-0.0673,-0.0673,-0.1031,-0.1838,-0.3315,-0.3537,-0.4074,-0.5504,-0.5683,-0.5683,-0.5683,-0.5683,-0.5912,-0.6374,-0.6422,-0.6681,-0.7271,-0.644,-0.5998,-0.6092,-0.6001,-0.5925,-0.5908,-0.5816,-0.5741,-0.5683,-0.5741,-0.5804,-0.5907,-0.5921,-0.5984,0.0,0.0,0.0,0.0,0.0,0.0,0.0,0.0,0.0,0.0,0.0,0.0,0.0,0.0,0.0,0.0,0.0,0.0,0.0,-0.1548,-0.2688,-0.2688,-0.4208,-0.4585,-0.2864,-0.2685,-0.1921,-0.0139,0.0,0.0,0.0,0.0,0.0,0.0,0.0,0.0,0.0,0.0,0.0,0.0,0.0,0.0,0.0,0.0,0.0,0.0,0.0,0.0,0.0,0.0,0.0,0.0,0.0,0.0,0.0,0.0,0.0,0.0,0.0,0.0,0.0,0.0,0.0,0.0,0.0,0.0,0.0,0.0,0.0,0.0,0.0,0.0,0.0,0.0,0.0,0.0,0.0,0.0,0.0,0.0,-0.1435,-0.2688,-0.2688,-0.4118,-0.5326,-0.546,-0.5504,-0.5549,-0.5683,-0.5683,-0.5683,-0.5683,-0.5683,-0.6467,-0.8434,-0.8578,-0.9429,-1.1434,-0.8108,-0.6089,-0.6095,-0.6089,-0.6015,-0.5911,-0.5906,-0.583,-0.5683,-0.583,-0.589,-0.591,-0.6008,-0.6069,0.0,-0.077,-0.1296,-0.0264,-0.0765,-0.1282,-0.0237,0.0,0.0,0.0,0.0,0.0,0.0,-0.0926,-0.1682,-0.1682,-0.2653,-0.3427,-0.3427,-0.4108,-0.4655,-0.4655,-0.5281,-0.5423,-0.4727,-0.3604,-0.258,-0.1876,-0.069,0.0,0.0,0.0,0.0,0.0,0.0,0.0,0.0,0.0,0.0,0.0,0.0,0.0,0.0,0.0,0.0,0.0,0.0,0.0,0.0,0.0,0.0,0.0,0.0,0.0,0.0,0.0,0.0,0.0,0.0,-0.0808,-0.1614,-0.0404,-0.1614,-0.3091,-0.0718,-0.0852,-0.1793,-0.1793,-0.1793,-0.1524,-0.0314,0.0,0.0,0.0,0.0,-0.0314,-0.1524,-0.1793,-0.2151,-0.3315,-0.4118,-0.4655,-0.4655,-0.5236,-0.613,-0.7335,-0.7513,-0.7963,-0.917,-0.9304,-0.9304,-0.9304,-0.9357,-0.968,-1.0449,-1.0709,-1.1146,-1.1935,-1.0593,-0.9808,-0.9871,-0.9813,-0.9759,-0.9677,-0.9619,-0.9525,-0.949,-0.9525,-0.9591,-0.9684,-0.9766,-0.9837,-0.0729,-0.1581,-0.2158,-0.1018,-0.1233,-0.1575,-0.1,-0.0403,-0.0162,-0.0742,-0.0871,-0.1042,-0.1596,-0.227,-0.2898,-0.3444,-0.4663,-0.551,-0.551,-0.6139,-0.6621,-0.6621,-0.7156,-0.729,-0.6665,-0.4879,-0.3549,-0.2942,-0.1682,-0.0914,-0.0921,-0.1488,-0.1825,-0.1878,-0.1844,-0.19,-0.1905,-0.1905,-0.1905,-0.1905,-0.1905,-0.124,0.0,0.0,0.0,-0.0046,-0.0641,-0.0906,-0.0942,-0.1569,-0.1793,-0.1793,-0.1793,-0.1793,-0.1793,-0.1793,-0.1793,-0.1793,-0.1793,-0.2688,-0.3582,-0.2241,-0.3582,-0.5191,-0.2598,-0.2733,-0.3805,-0.3805,-0.3805,-0.3494,-0.2151,-0.1793,-0.1793,-0.1793,-0.1793,-0.2151,-0.3494,-0.3805,-0.4163,-0.546,-0.6174,-0.6621,-0.6621,-0.7112,-0.7959,-0.9304,-0.9527,-0.9976,-1.1321,-1.1499,-1.1515,-1.1509,-1.1585,-1.1621,-1.1743,-1.1895,-1.2004,-1.2042,-1.2047,-1.2085,-1.2214,-1.2091,-1.2025,-1.1987,-1.1911,-1.1857,-1.1819,-1.1857,-1.1911,-1.1987,-1.2025,-1.2091,-0.2293,-0.2315,-0.2307,-0.2299,-0.1195,-0.0553,-0.2302,-0.1312,-0.0496,-0.2314,-0.271,-0.3276,-0.5077,-0.3946,-0.336,-0.5119,-0.5514,-0.5551,-0.5553,-0.7329,-0.8631,-0.8631,-1.0332,-1.0738,-0.881,-0.6889,-0.4968,-0.3091,-0.2941,-0.2912,-0.2912,-0.4683,-0.575,-0.5901,-0.5904,-0.5978,-0.6082,-0.6082,-0.6082,-0.6085,-0.6085,-0.3997,-0.0048,-0.0047,-0.0047,-0.0185,-0.2104,-0.2941,-0.3091,-0.4923,-0.5683,-0.5683,-0.5683,-0.5683,-0.5683,-0.5683,-0.5683,-0.5683,-0.5683,-0.5728,-0.5728,-0.5728,-0.5728,-0.5728,-0.5728,-0.5728,-0.5728,-0.5728,-0.5728,-0.5728,-0.5772,-0.5772,-0.5728,-0.5728,-0.5683,-0.5728,-0.5728,-0.5728,-0.5728,-0.5772,-0.729,-0.8631,-0.8631,-1.0199,-1.1499,-1.1499,-1.1499,-1.1499,-1.1499,-1.1499,-1.1548,-1.1578,-1.1594,-1.1686,-1.1971,-1.1987,-1.2042,-1.2214,-1.2219,-1.2219,-1.2219,-1.2219,-1.2159,-1.1993,-1.1987,-1.1933,-1.1778,-1.1933,-1.1987,-1.1993,-1.2159,-1.2219,-0.0693,-0.2405,-0.3911,-0.2719,-0.3938,-0.5228,-0.4617,-0.2131,-0.0498,-0.2338,-0.3728,-0.4742,-0.5287,-0.5999,-0.6668,-0.7212,-0.8404,-0.9326,-0.9443,-1.0044,-1.0514,-1.0639,-1.1138,-1.1277,-1.0693,-0.8899,-0.7513,-0.6933,-0.5654,-0.4857,-0.4857,-0.5404,-0.5716,-0.5778,-0.5775,-0.5825,-0.5978,-0.5978,-0.5997,-0.6085,-0.6085,-0.5467,-0.428,-0.4268,-0.4287,-0.4335,-0.4801,-0.5026,-0.5065,-0.552,-0.5683,-0.5683,-0.5683,-0.5683,-0.5683,-0.5683,-0.5683,-0.5683,-0.5683,-0.6576,-0.7513,-0.613,-0.7558,-0.9259,-0.6531,-0.6665,-0.7736,-0.7736,-0.7736,-0.8052,-0.9437,-0.9794,-0.9081,-0.6353,-0.5683,-0.6085,-0.7424,-0.7736,-0.8141,-0.9527,-1.0243,-1.0649,-1.0649,-1.1138,-1.1499,-1.1499,-1.1499,-1.1499,-1.1499,-1.1499,-1.1548,-1.1578,-1.167,-1.1824,-1.1976,-1.2069,-1.2181,-1.2214,-1.2219,-1.2219,-1.2219,-1.2219,-1.2203,-1.2118,-1.2165,-1.2102,-1.2069,-1.2102,-1.2165,-1.2118,-1.2203,-1.2219,-0.2674,-0.4352,-0.5629,-0.4634,-0.5582,-0.6462,-0.5496,-0.4216,-0.3539,-0.4609,-0.5706,-0.6668,-0.7379,-0.7843,-0.8344,-0.9017,-1.012,-1.0944,-1.102,-1.1166,-1.1341,-1.1417,-1.1472,-1.1499,-1.1499,-0.9749,-0.8587,-0.8587,-0.7513,-0.6844,-0.6844,-0.7604,-0.8009,-0.8042,-0.8046,-0.8113,-0.8242,-0.8276,-0.836,-0.8457,-0.8491,-0.8506,-0.8459,-0.6844,-0.6096,-0.6129,-0.6783,-0.7495,-0.8171,-0.8042,-0.8007,-0.8007,-0.8007,-0.8007,-0.8007,-0.8007,-0.8007,-0.8007,-0.8007,-0.8899,-0.9838,-0.8676,-1.0016,-1.1627,-0.9255,-0.9255,-1.0061,-1.0239,-1.015,-1.0332,-1.1721,-1.2077,-1.1405,-0.8899,-0.8137,-0.8364,-0.9749,-0.9883,-1.011,-1.1277,-1.1499,-1.1499,-1.1499,-1.1499,-1.1499,-1.1499,-1.1499,-1.1499,-1.1499,-1.1543,-1.1574,-1.1648,-1.1813,-1.1933,-1.2053,-1.2129,-1.2219,-1.2219,-1.2219,-1.2219,-1.2219,-1.2219,-1.2219,-1.2219,-1.2219,-1.2219,-1.2219,-1.2219,-1.2219,-1.2219,-1.2219,-1.2219,-0.6536,-0.7141,-0.7302,-0.7354,-0.6555,-0.575,-0.5843,-0.717,-0.8344,-0.8136,-0.8219,-0.8804,-1.0398,-0.9392,-0.8845,-1.0445,-1.0787,-1.0905,-1.0916,-1.1107,-1.1292,-1.1313,-1.1417,-1.1488,-1.1499,-0.9887,-0.8854,-0.8854,-0.8854,-0.8854,-0.8854,-1.056,-1.1548,-1.1573,-1.1573,-1.1632,-1.1803,-1.1906,-1.196,-1.1976,-1.2096,-1.2203,-1.2062,-0.836,-0.6665,-0.6733,-0.8358,-1.0061,-1.1583,-1.152,-1.151,-1.1499,-1.1499,-1.1543,-1.1543,-1.1543,-1.1588,-1.1632,-1.1632,-1.1899,-1.2254,-1.2254,-1.2565,-1.292,-1.292,-1.2609,-1.2343,-1.2787,-1.2609,-1.2343,-1.2787,-1.292,-1.2787,-1.2432,-1.1988,-1.1721,-1.2165,-1.1943,-1.1632,-1.1632,-1.1632,-1.1632,-1.1588,-1.1543,-1.1543,-1.1499,-1.1499,-1.1504,-1.1515,-1.1569,-1.1643,-1.1819,-1.1928,-1.2036,-1.2209,-1.2219,-1.2219,-1.2219,-1.2219,-1.2219,-1.2219,-1.2219,-1.2219,-1.2219,-1.2219,-1.2219,-1.2219,-1.2219,-1.2219,-1.2219,-1.2219,-1.2219,-0.4875,-0.6537,-0.7829,-0.7926,-0.8845,-0.9703,-0.9594,-1.0148,-1.0185,-0.847,-0.9184,-1.0273,-1.0612,-1.0398,-1.0273,-1.0654,-1.0717,-1.0766,-1.0905,-1.0965,-1.1063,-1.1248,-1.1341,-1.1395,-1.1488,-1.1138,-1.0871,-1.0871,-1.0871,-1.0871,-1.0871,-1.1277,-1.151,-1.1537,-1.1537,-1.1552,-1.1627,-1.1654,-1.1759,-1.1857,-1.1971,-1.2025,-1.2031,-1.1224,-1.0822,-1.0762,-1.114,-1.1436,-1.1589,-1.1562,-1.1542,-1.1499,-1.1499,-1.1721,-1.2032,-1.2032,-1.2299,-1.2609,-1.2609,-1.2654,-1.2742,-1.2742,-1.2831,-1.292,-1.292,-1.2831,-1.2787,-1.2875,-1.2831,-1.2787,-1.2875,-1.292,-1.2964,-1.323,-1.292,-1.2609,-1.2742,-1.2654,-1.2609,-1.2609,-1.2609,-1.2476,-1.2121,-1.2032,-1.1899,-1.1543,-1.1499,-1.1532,-1.1585,-1.1573,-1.167,-1.1928,-1.1976,-1.2036,-1.2209,-1.2219,-1.2219,-1.2219,-1.2219,-1.2219,-1.2219,-1.2219,-1.2219,-1.2219,-1.2219,-1.2219,-1.2219,-1.2219,-1.2219,-1.2219,-1.2219,-1.2219,-0.6385,-0.8071,-0.923,-0.9703,-1.0594,-1.134,-1.1346,-1.157,-1.1397,-1.0268,-1.0565,-1.0987,-1.0737,-1.0695,-1.0779,-1.0987,-1.1029,-1.1051,-1.1118,-1.1179,-1.1221,-1.1133,-1.1204,-1.1341,-1.1406,-1.1466,-1.1499,-1.1499,-1.1499,-1.1499,-1.1499,-1.1721,-1.1855,-1.1855,-1.1855,-1.1977,-1.2219,-1.2012,-1.2119,-1.2414,-1.2535,-1.2627,-1.269,-1.2353,-1.2181,-1.2121,-1.2248,-1.224,-1.2163,-1.2272,-1.2321,-1.2252,-1.2188,-1.2299,-1.252,-1.252,-1.2698,-1.292,-1.292,-1.3053,-1.323,-1.323,-1.3413,-1.3591,-1.3591,-1.3413,-1.328,-1.3502,-1.3413,-1.3274,-1.3502,-1.3591,-1.3635,-1.3901,-1.3413,-1.2964,-1.3186,-1.3053,-1.292,-1.292,-1.292,-1.2831,-1.2565,-1.252,-1.2432,-1.221,-1.2165,-1.21,-1.19,-1.1961,-1.1993,-1.1895,-1.2009,-1.2102,-1.2214,-1.2219,-1.2219,-1.2219,-1.2219,-1.2219,-1.2219,-1.2219,-1.2219,-1.2219,-1.2219,-1.2219,-1.2219,-1.2219,-1.2219,-1.2219,-1.2219,-1.2219,-0.8306,-0.9739,-1.065,-1.1583,-1.1792,-1.1866,-1.2049,-1.2152,-1.2193,-1.211,-1.1778,-1.1403,-1.1029,-1.0945,-1.107,-1.1445,-1.1528,-1.1528,-1.1528,-1.1621,-1.1528,-1.117,-1.1305,-1.1488,-1.1532,-1.1627,-1.1699,-1.1721,-1.1721,-1.1721,-1.1721,-1.2121,-1.2299,-1.2299,-1.2299,-1.252,-1.292,-1.2583,-1.2642,-1.3052,-1.3129,-1.3263,-1.3403,-1.2741,-1.2433,-1.245,-1.2765,-1.2847,-1.2859,-1.3059,-1.3126,-1.3071,-1.2961,-1.2989,-1.3008,-1.3008,-1.3053,-1.3147,-1.3147,-1.3413,-1.3723,-1.3723,-1.3989,-1.4299,-1.4299,-1.4033,-1.3812,-1.421,-1.4033,-1.3812,-1.421,-1.4299,-1.4299,-1.4299,-1.3723,-1.323,-1.3635,-1.3413,-1.3147,-1.3147,-1.3097,-1.3008,-1.3008,-1.2964,-1.292,-1.292,-1.292,-1.2754,-1.2417,-1.2515,-1.2472,-1.2088,-1.2289,-1.2422,-1.2422,-1.235,-1.2314,-1.2314,-1.2219,-1.2219,-1.2219,-1.2219,-1.2219,-1.2219,-1.2219,-1.2219,-1.2219,-1.2219,-1.2219,-1.2219,-1.2219,-1.2219,-0.6982,-0.9195,-1.1184,-1.2006,-1.2234,-1.2189,-1.2132,-1.2359,-1.2526,-1.2152,-1.2069,-1.1986,-1.1902,-1.1902,-1.1944,-1.1986,-1.2027,-1.2027,-1.2027,-1.2004,-1.2017,-1.2047,-1.2047,-1.2203,-1.2475,-1.2511,-1.2571,-1.2692,-1.2698,-1.2698,-1.2698,-1.2787,-1.2787,-1.2787,-1.2787,-1.2831,-1.292,-1.2849,-1.2861,-1.295,-1.304,-1.3175,-1.3257,-1.3305,-1.3385,-1.3493,-1.3569,-1.3497,-1.3381,-1.3437,-1.3291,-1.3083,-1.3065,-1.3253,-1.3502,-1.3502,-1.3768,-1.4122,-1.4122,-1.4166,-1.421,-1.421,-1.4255,-1.4299,-1.4299,-1.4255,-1.421,-1.4299,-1.4255,-1.421,-1.4299,-1.4299,-1.4299,-1.4299,-1.421,-1.4122,-1.421,-1.4166,-1.4122,-1.4122,-1.3768,-1.3502,-1.3502,-1.3186,-1.292,-1.292,-1.292,-1.2918,-1.295,-1.2999,-1.3014,-1.3032,-1.3182,-1.3319,-1.3319,-1.3005,-1.2833,-1.2833,-1.2408,-1.2219,-1.2219,-1.2219,-1.2219,-1.2219,-1.2219,-1.2219,-1.2219,-1.2219,-1.2219,-1.2219,-1.2219,-1.2219,-0.8452,-1.011,-1.1245,-1.2285,-1.2615,-1.2695,-1.2688,-1.2923,-1.3024,-1.2858,-1.2816,-1.2692,-1.2193,-1.211,-1.2152,-1.2401,-1.2443,-1.2443,-1.2443,-1.2443,-1.2343,-1.2154,-1.2185,-1.2277,-1.2392,-1.2582,-1.2742,-1.2803,-1.2877,-1.292,-1.292,-1.3141,-1.3274,-1.3274,-1.3274,-1.3413,-1.3679,-1.3413,-1.3413,-1.3679,-1.3822,-1.3919,-1.3932,-1.4081,-1.3953,-1.3619,-1.3927,-1.4068,-1.4005,-1.4255,-1.429,-1.416,-1.3952,-1.3982,-1.4095,-1.4016,-1.4122,-1.4299,-1.4299,-1.4299,-1.4299,-1.4299,-1.4299,-1.4299,-1.4299,-1.4299,-1.4299,-1.4299,-1.4299,-1.4299,-1.4299,-1.4299,-1.4299,-1.4299,-1.4299,-1.4299,-1.4299,-1.4299,-1.4299,-1.4299,-1.4122,-1.3989,-1.3989,-1.3812,-1.3679,-1.3679,-1.3679,-1.361,-1.3407,-1.3438,-1.3411,-1.3156,-1.3352,-1.348,-1.348,-1.3415,-1.3211,-1.2928,-1.2975,-1.2928,-1.2597,-1.2597,-1.2597,-1.2597,-1.2314,-1.2219,-1.2219,-1.2219,-1.2219,-1.2219,-1.2219,-1.2219,-0.9706,-1.0803,-1.1145,-1.2219,-1.2707,-1.2949,-1.3173,-1.3261,-1.3356,-1.339,-1.3403,-1.3189,-1.2567,-1.2443,-1.2526,-1.2816,-1.2899,-1.2899,-1.2899,-1.2899,-1.2775,-1.2484,-1.2453,-1.2528,-1.2566,-1.2797,-1.2947,-1.306,-1.3161,-1.3243,-1.323,-1.3591,-1.3768,-1.3768,-1.3768,-1.3945,-1.4299,-1.3945,-1.3945,-1.4299,-1.4407,-1.4462,-1.4462,-1.4566,-1.4329,-1.3797,-1.43,-1.4584,-1.4651,-1.4925,-1.5051,-1.4989,-1.4672,-1.455,-1.4496,-1.4353,-1.4299,-1.4299,-1.4299,-1.4299,-1.4299,-1.4299,-1.4299,-1.4299,-1.4299,-1.4299,-1.4299,-1.4299,-1.4299,-1.4299,-1.4299,-1.4299,-1.4299,-1.4299,-1.4299,-1.4299,-1.4299,-1.4299,-1.4299,-1.4299,-1.4299,-1.4299,-1.4299,-1.4299,-1.4299,-1.4299,-1.4299,-1.4166,-1.3812,-1.3853,-1.3784,-1.3438,-1.36,-1.3757,-1.3795,-1.3834,-1.3692,-1.3299,-1.3541,-1.3541,-1.3116,-1.3116,-1.3116,-1.3116,-1.2739,-1.2456,-1.2219,-1.2219,-1.2219,-1.2219,-1.2219,-1.2219,-0.9564,-1.0507,-1.1083,-1.1786,-1.2318,-1.2813,-1.3146,-1.322,-1.3268,-1.337,-1.3403,-1.3403,-1.3362,-1.3321,-1.3362,-1.3362,-1.3362,-1.3362,-1.3362,-1.3362,-1.3362,-1.3321,-1.3327,-1.3388,-1.3529,-1.3556,-1.3685,-1.4004,-1.4031,-1.4106,-1.4204,-1.4255,-1.4255,-1.4255,-1.4255,-1.4299,-1.4299,-1.4299,-1.4299,-1.4299,-1.4306,-1.4312,-1.4319,-1.4462,-1.4484,-1.446,-1.4802,-1.5059,-1.5181,-1.5174,-1.5092,-1.5003,-1.4794,-1.4593,-1.4496,-1.4353,-1.4299,-1.4299,-1.4299,-1.4299,-1.4299,-1.4299,-1.4299,-1.4299,-1.4299,-1.4299,-1.4299,-1.4299,-1.4299,-1.4299,-1.4299,-1.4299,-1.4299,-1.4299,-1.4299,-1.4299,-1.4299,-1.4299,-1.4299,-1.4299,-1.4299,-1.4299,-1.4299,-1.4299,-1.4299,-1.4299,-1.4299,-1.4299,-1.4255,-1.4261,-1.4268,-1.4224,-1.4359,-1.45,-1.4649,-1.4336,-1.424,-1.4322,-1.3917,-1.3682,-1.3641,-1.3641,-1.3641,-1.3641,-1.3635,-1.3163,-1.2219,-1.2219,-1.2219,-1.2219,-1.2219,-1.2219,-0.9522,-1.0316,-1.0726,-1.1555,-1.2044,-1.2404,-1.2788,-1.3037,-1.3227,-1.3241,-1.3336,-1.3403,-1.3403,-1.3403,-1.3403,-1.3403,-1.3403,-1.3403,-1.3403,-1.3403,-1.3403,-1.3403,-1.3403,-1.3424,-1.3478,-1.3531,-1.3632,-1.3777,-1.3966,-1.4139,-1.415,-1.4245,-1.4299,-1.4299,-1.4299,-1.4299,-1.4299,-1.4299,-1.4299,-1.4299,-1.4299,-1.4299,-1.4299,-1.4353,-1.4428,-1.4516,-1.4631,-1.4814,-1.5091,-1.5091,-1.5072,-1.5092,-1.4943,-1.4794,-1.4593,-1.4489,-1.438,-1.4299,-1.4299,-1.4299,-1.4299,-1.4299,-1.4299,-1.4299,-1.4299,-1.4299,-1.4299,-1.4299,-1.4299,-1.4299,-1.4299,-1.4299,-1.4299,-1.4299,-1.4299,-1.4299,-1.4299,-1.4299,-1.4299,-1.4299,-1.4299,-1.4299,-1.4299,-1.4299,-1.4299,-1.4299,-1.4299,-1.4299,-1.4299,-1.4299,-1.4299,-1.4299,-1.4428,-1.4536,-1.459,-1.4638,-1.4573,-1.4293,-1.4524,-1.4529,-1.4146,-1.4146,-1.4146,-1.4146,-1.387,-1.3541,-1.3163,-1.2833,-1.2644,-1.2644,-1.2361,-1.2219,-0.9473,-1.003,-1.038,-1.1044,-1.1593,-1.2063,-1.243,-1.2762,-1.3051,-1.3193,-1.3254,-1.3342,-1.339,-1.3403,-1.3403,-1.3403,-1.3403,-1.3403,-1.3403,-1.3403,-1.3403,-1.3403,-1.3403,-1.3403,-1.3403,-1.3492,-1.3531,-1.3585,-1.381,-1.3966,-1.4112,-1.417,-1.4245,-1.4299,-1.4299,-1.4299,-1.4299,-1.4299,-1.4299,-1.4299,-1.4299,-1.4299,-1.4299,-1.4299,-1.4353,-1.4441,-1.4441,-1.4611,-1.4896,-1.495,-1.5071,-1.5099,-1.5011,-1.4909,-1.4794,-1.4584,-1.4448,-1.4367,-1.4319,-1.4299,-1.4299,-1.4299,-1.4299,-1.4299,-1.4299,-1.4299,-1.4299,-1.4299,-1.4299,-1.4299,-1.4299,-1.4299,-1.4299,-1.4299,-1.4299,-1.4299,-1.4299,-1.4299,-1.4299,-1.4299,-1.4299,-1.4299,-1.4299,-1.4299,-1.4299,-1.4299,-1.4299,-1.4299,-1.4299,-1.4299,-1.4299,-1.4299,-1.4387,-1.4462,-1.4509,-1.4746,-1.4778,-1.45,-1.4912,-1.504,-1.4657,-1.4664,-1.4664,-1.4664,-1.4335,-1.42,-1.42,-1.3493,-1.3163,-1.3163,-1.2833,-1.2692,0.0,0.0,0.0,-1.0274,-1.1006,-1.1753,-1.203,-1.241,-1.2774,-1.3098,-1.3207,-1.3261,-1.337,-1.3397,-1.3403,-1.3403,-1.3403,-1.3403,-1.3403,-1.3403,-1.3403,-1.3403,-1.3403,-1.3403,-1.3403,-1.3403,-1.3464,-1.3572,-1.3585,-1.3756,-1.4084,-1.4112,-1.4143,-1.4292,-1.4299,-1.4299,-1.4299,-1.4299,-1.4299,-1.4299,-1.4299,-1.4299,-1.4299,-1.4299,-1.4299,-1.4299,-1.4299,-1.4462,-1.4694,-1.4896,-1.501,-1.5017,-1.5017,-1.5017,-1.4983,-1.4638,-1.4516,-1.4489,-1.4353,-1.4306,-1.4299,-1.4299,-1.4299,-1.4299,-1.4299,-1.4299,-1.4299,-1.4299,-1.4299,-1.4299,-1.4299,-1.4299,-1.4299,-1.4299,-1.4299,-1.4299,-1.4299,-1.4299,-1.4299,-1.4299,-1.4299,-1.4299,-1.4299,-1.4299,-1.4299,-1.4299,-1.4299,-1.4299,-1.4299,-1.4299,-1.4299,-1.4299,-1.4299,-1.4353,-1.4496,-1.4599,-1.4801,-1.5003,-1.5099,-1.5181,-1.5181,-1.5181,-1.5181,-1.5181,-1.5181,-1.5181,-1.5181,-1.42,-1.3729,-1.3729,-1.3735,-1.3682,-0.9302,0.0,0.0,0.0,0.0,0.0,-1.1785,-1.2102,-1.2358,-1.2754,-1.3024,-1.3227,-1.3268,-1.3322,-1.3403,-1.3403,-1.3403,-1.3403,-1.3403,-1.3403,-1.3403,-1.3403,-1.3403,-1.3403,-1.3403,-1.3403,-1.3417,0.0,-1.3566,-1.3619,-1.3749,-1.3953,-1.4143,-1.4292,-1.4299,-1.4299,-1.4299,-1.4299,-1.4299,-1.4299,-1.4299,-1.4299,-1.4299,-1.4299,-1.4299,-1.4299,-1.4299,-1.4346,-1.4434,-1.4577,-1.4767,-1.5017,-1.5017,-1.5017,-1.501,-1.4921,-1.4699,-1.4509,-1.4468,-1.4387,-1.4299,-1.4299,-1.4299,-1.4299,-1.4299,-1.4299,-1.4299,-1.4299,-1.4299,-1.4299,-1.4299,-1.4299,-1.4299,-1.4299,-1.4299,-1.4299,-1.4299,-1.4299,-1.4299,-1.4299,-1.4299,-1.4299,-1.4299,-1.4299,-1.4299,-1.4299,-1.4299,-1.4299,-1.4299,-1.4299,-1.4299,-1.4299,-1.4299,-1.4319,-1.4353,-1.4489,-1.4638,-1.4748,-1.4943,-1.5119,-1.5181,-1.5181,-1.5181,-1.5181,-1.5181,-1.5181,-1.5181,-1.4523,-1.4194,-1.4194,-1.387,-1.3682,0.0,0.0,0.0,0.0,0.0,0.0,-1.1184,-1.1669,-1.2102,-1.2403,-1.2748,-1.3024,-1.3193,-1.3247,-1.3329,-1.339,-1.3403,-1.3403,-1.3403,-1.3403,-1.3403,-1.3403,-1.3403,-1.3403,-1.3403,-1.3403,-1.3403,-1.3403,-1.3485,-1.3518,-1.3585,-1.3912,-1.4159,-1.4204,-1.4265,-1.4299,-1.4299,-1.4299,-1.4299,-1.4299,-1.4299,-1.4299,-1.4299,-1.4299,-1.4299,-1.4299,-1.4299,-1.4299,-1.4306,-1.4387,-1.4563,-1.4787,-1.4848,-1.4916,-1.501,-1.4896,-1.4801,-1.4692,-1.4631,-1.4509,-1.4387,-1.4387,-1.4346,-1.4299,-1.4299,-1.4299,-1.4299,-1.4299,-1.4299,-1.4299,-1.4299,-1.4299,-1.4299,-1.4299,-1.4299,-1.4299,-1.4299,-1.4299,-1.4299,-1.4299,-1.4299,-1.4299,-1.4299,-1.4299,-1.4299,-1.4299,-1.4299,-1.4299,-1.4299,-1.4299,-1.4299,-1.4299,-1.4299,-1.4299,-1.4299,-1.4428,-1.455,-1.4593,-1.4848,-1.5057,-1.5092,-1.5153,-1.5181,-1.5181,-1.5181,-1.5181,-1.5181,-1.4899,-1.4711,-1.4711,-1.4435,-1.4341,0.0,0.0,0.0,0.0,0.0,0.0,-1.0477,-1.1215,-1.1882,-1.205,-1.2403,-1.2774,-1.3078,-1.318,-1.3241,-1.3349,-1.3376,-1.3383,-1.3397,-1.3403,-1.3403,-1.3403,-1.3403,-1.3403,-1.3403,-1.3403,-1.3403,-1.3403,-1.3403,-1.3464,-1.3578,-1.3878,-1.4084,-1.4112,-1.4204,-1.4285,-1.4299,-1.4299,-1.4299,-1.4299,-1.4299,-1.4299,-1.4299,-1.4299,-1.4299,-1.4299,-1.4299,-1.4299,-1.4299,-1.4299,-1.438,-1.4523,-1.4613,-1.4821,-1.5003,-1.4814,-1.4855,-1.495,-1.4814,-1.462,-1.4536,-1.4536,-1.4441,-1.4326,-1.4326,-1.4312,-1.4299,-1.4299,-1.4299,-1.4299,-1.4299,-1.4299,-1.4299,-1.4299,-1.4299,-1.4299,-1.4299,-1.4299,-1.4299,-1.4299,-1.4299,-1.4299,-1.4299,-1.4299,-1.4299,-1.4299,-1.4299,-1.4299,-1.4299,-1.4299,-1.4299,-1.4299,-1.4299,-1.4299,-1.4299,-1.4414,-1.4496,-1.4509,-1.4767,-1.4983,-1.5017,-1.5092,-1.5167,-1.5181,-1.5181,-1.5181,-1.5181,-1.5181,-1.5181,-1.5181,-1.5181,-1.5181,0.0,0.0,0.0,0.0,0.0,0.0,-1.0477,-1.1011,-1.1501,-1.1882,-1.2331,-1.2706,-1.2807,-1.2915,-1.3091,-1.3234,-1.3254,-1.3261,-1.3383,-1.3403,-1.3403,-1.3403,-1.3403,-1.3403,-1.3403,-1.3403,-1.3403,-1.3403,-1.3403,-1.3464,-1.3578,-1.3639,-1.3824,-1.4105,-1.4146,-1.4177,-1.4299,-1.4299,-1.4299,-1.4299,-1.4299,-1.4299,-1.4299,-1.4299,-1.4299,-1.4299,-1.4299,-1.4299,-1.4299,-1.4299,-1.438,-1.4516,-1.4543,-1.4726,-1.5017,-1.4936,-1.4989,-1.497,-1.4936,-1.4828,-1.4654,-1.4654,-1.4545,-1.4468,-1.4468,-1.4387,-1.4299,-1.4299,-1.4299,-1.4299,-1.4299,-1.4299,-1.4299,-1.4299,-1.4299,-1.4299,-1.4299,-1.4299,-1.4299,-1.4299,-1.4299,-1.4299,-1.4299,-1.4299,-1.4299,-1.4299,-1.4299,-1.4299,-1.4299,-1.4299,-1.4299,-1.4299,-1.4299,-1.4299,-1.4299,-1.4326,-1.4387,-1.4502,-1.457,-1.4713,-1.501,-1.5044,-1.5112,-1.5181,-1.5181,-1.5181,-1.5181,-1.5181,-1.5181,-1.5181,-1.5181,-1.5181,0.0,0.0,0.0,-0.9676,0.0,0.0,0.0,-1.0595,-1.1029,-1.1223,-1.1823,-1.2324,-1.2403,-1.2635,-1.2895,-1.3084,-1.3105,-1.3159,-1.3268,-1.3356,-1.3403,-1.3403,-1.3403,-1.3403,-1.3403,-1.3403,-1.3403,-1.3403,-1.3403,-1.3437,-1.3512,-1.3545,-1.3729,-1.3946,-1.4034,-1.4143,-1.4299,-1.4299,-1.4299,-1.4299,-1.4299,-1.4299,-1.4299,-1.4299,-1.4299,-1.4299,-1.4299,-1.4299,-1.4299,-1.4299,-1.434,-1.4407,-1.4407,-1.4543,-1.4753,-1.4828,-1.4903,-1.503,-1.5098,-1.4977,-1.4855,-1.4855,-1.4753,-1.4579,-1.4579,-1.4523,-1.4387,-1.4319,-1.4299,-1.4299,-1.4299,-1.4299,-1.4299,-1.4299,-1.4299,-1.4299,-1.4299,-1.4299,-1.4299,-1.4299,-1.4299,-1.4299,-1.4299,-1.4299,-1.4299,-1.4299,-1.4299,-1.4299,-1.4299,-1.4299,-1.4299,-1.4299,-1.4299,-1.4299,-1.4299,-1.4299,-1.4333,-1.4401,-1.4475,-1.4584,-1.4733,-1.4889,-1.5038,-1.5181,-1.5181,-1.5181,-1.5181,-1.5181,-1.5181,-1.5181,-1.5181,-1.5181,0.0,0.0,0.0,0.0,0.0,-0.9807,0.0,0.0,0.0,-1.0602,-1.1223,-1.1843,0.0,0.0,0.0,-1.2813,0.0,0.0,0.0,-1.32,0.0,-1.3397,-1.3403,-1.3403,-1.3403,-1.3403,-1.3403,-1.3403,-1.3403,-1.3403,-1.3403,-1.3519,-1.3605,-1.3754,-1.3946,-1.4102,-1.4251,-1.4285,-1.4299,-1.4299,-1.4299,-1.4299,-1.4299,-1.4299,-1.4299,-1.4299,-1.4299,-1.4299,-1.4299,-1.4299,-1.4299,-1.4299,-1.4299,-1.4387,-1.4529,-1.4606,-1.4814,-1.503,-1.5099,-1.5132,-1.5057,-1.5057,-1.4909,-1.4735,-1.4701,-1.4606,-1.4529,-1.4414,-1.4367,-1.434,-1.434,-1.4319,-1.4299,-1.4299,-1.4299,-1.4299,-1.4299,-1.4299,-1.4299,-1.4299,-1.4299,-1.4299,-1.4299,-1.4299,-1.4299,-1.4299,-1.4299,-1.4299,-1.4299,-1.4299,-1.4299,-1.4299,-1.4299,-1.4299,-1.4299,-1.4299,-1.4299,-1.4299,-1.4407,-1.4482,-1.4509,-1.478,-1.4991,-1.514,-1.514,-1.5153,-1.5181,-1.5181,-1.5181,-1.5181,-1.5181,-1.5181,0.0,0.0,0.0,0.0,-0.9791,0.0,0.0,0.0,-1.0602,-1.0602,0.0,0.0,0.0,0.0,0.0,0.0,0.0,0.0,-1.2596,-1.2867,-1.3152,-1.337,-1.3403,-1.3403,-1.3403,-1.3403,-1.3403,-1.3403,-1.3403,-1.3403,-1.3403,-1.3417,-1.3498,-1.3605,-1.3747,-1.3939,-1.4139,-1.4231,-1.4299,-1.4299,-1.4299,-1.4299,-1.4299,-1.4299,-1.4299,-1.4299,-1.4299,-1.4299,-1.4299,-1.4299,-1.4299,-1.4299,-1.4299,-1.4387,-1.4516,-1.4529,-1.4719,-1.5017,-1.5037,-1.5112,-1.516,-1.516,-1.5059,-1.4916,-1.4735,-1.4681,-1.4667,-1.4647,-1.459,-1.4489,-1.4489,-1.4394,-1.4299,-1.4299,-1.4299,-1.4299,-1.4299,-1.4299,-1.4299,-1.4299,-1.4299,-1.4299,-1.4299,-1.4299,-1.4299,-1.4299,-1.4299,-1.4299,-1.4299,-1.4299,-1.4299,-1.4299,-1.4299,-1.4299,-1.4299,-1.4299,-1.4299,-1.4299,-1.4319,-1.438,-1.4509,-1.4626,-1.4835,-1.5037,-1.5044,-1.5059,-1.5181,-1.5181,-1.5181,-1.5181,-1.5181,-1.5181,0.0,0.0,0.0,0.0,0.0,0.0,-1.0047,0.0,-1.0253,0.0,0.0,0.0,0.0,0.0,0.0,0.0,-1.2515,0.0,0.0,0.0,-1.2935,-1.3234,0.0,0.0,-1.339,-1.3403,-1.3403,-1.3403,-1.3403,-1.3403,-1.3403,-1.3403,-1.3471,-1.3585,-1.3727,-1.3912,-1.4112,-1.4224,-1.4299,-1.4299,-1.4299,-1.4299,-1.4299,-1.4299,-1.4299,-1.4299,-1.4299,-1.4299,-1.4299,-1.4299,-1.4299,-1.4299,-1.4299,-1.434,-1.4401,-1.4482,-1.459,-1.4733,-1.4909,-1.5057,-1.5119,-1.5153,-1.514,-1.5112,-1.4916,-1.4875,-1.4855,-1.4721,-1.4647,-1.4599,-1.4599,-1.4536,-1.4421,-1.4421,-1.436,-1.4299,-1.4299,-1.4299,-1.4299,-1.4299,-1.4299,-1.4299,-1.4299,-1.4299,-1.4299,-1.4299,-1.4299,-1.4299,-1.4299,-1.4299,-1.4299,-1.4299,-1.4299,-1.4299,-1.4299,-1.4299,-1.4299,-1.4299,-1.4299,-1.4367,-1.4509,-1.4525,-1.4679,-1.4835,-1.4835,-1.4909,-1.5059,-1.5059,-1.5099,-1.5181,-1.5181,-1.5181,-1.0571,0.0,0.0,0.0,0.0,0.0,0.0,0.0,0.0,0.0,0.0,0.0,0.0,0.0,0.0,0.0,0.0,-1.2515,0.0,-1.2617,0.0,0.0,0.0,0.0,0.0,-1.3376,-1.3403,-1.3403,-1.3403,-1.3403,-1.3403,-1.3403,-1.3451,-1.3518,-1.3666,-1.3815,-1.4007,-1.4163,-1.4258,-1.4299,-1.4299,-1.4299,-1.4299,-1.4299,-1.4299,-1.4299,-1.4299,-1.4299,-1.4299,-1.4299,-1.4299,-1.4299,-1.4299,-1.4299,-1.4312,-1.4414,-1.4475,-1.455,-1.4814,-1.4964,-1.5091,-1.5147,-1.5181,-1.516,-1.5059,-1.5031,-1.5004,-1.4889,-1.4789,-1.4755,-1.4755,-1.4692,-1.4532,-1.4532,-1.4496,-1.4421,-1.4421,-1.4421,-1.4407,-1.4367,-1.436,-1.4346,-1.4306,-1.4299,-1.4299,-1.4299,-1.4299,-1.4299,-1.4299,-1.4299,-1.4299,-1.4299,-1.4299,-1.4299,-1.4299,-1.4299,-1.4299,-1.4299,-1.4299,-1.4346,-1.4448,-1.4455,-1.4523,-1.4626,-1.4633,-1.4753,-1.4909,-1.4909,-1.4984,-1.5173,-1.5167,-1.5181,0.0,0.0,0.0,-1.0709,0.0,0.0,0.0,0.0,-0.998,0.0,0.0,0.0,0.0,0.0,0.0,0.0,0.0,0.0,0.0,0.0,0.0,0.0,0.0,0.0,0.0,-1.3315,-1.3403,-1.3403,-1.3403,-1.3403,-1.3403,-1.3403,-1.3403,-1.341,-1.3559,-1.366,-1.3802,-1.4,-1.4156,-1.4299,-1.4299,-1.4299,-1.4299,-1.4299,-1.4299,-1.4299,-1.4299,-1.4299,-1.4299,-1.4299,-1.4299,-1.4299,-1.4299,-1.4299,-1.4299,-1.4306,-1.4394,-1.4536,-1.4647,-1.4936,-1.5174,-1.5181,-1.5181,-1.5181,-1.5174,-1.5174,-1.5174,-1.5167,-1.5072,-1.501,-1.501,-1.4848,-1.4687,-1.4687,-1.4681,-1.4681,-1.4681,-1.4681,-1.4633,-1.4536,-1.4502,-1.4462,-1.4326,-1.4299,-1.4299,-1.4299,-1.4299,-1.4299,-1.4299,-1.4299,-1.4299,-1.4299,-1.4299,-1.4299,-1.4299,-1.4299,-1.4299,-1.4299,-1.4299,-1.4299,-1.4306,-1.4306,-1.4373,-1.4516,-1.4516,-1.4545,-1.4701,-1.4701,-1.4828,-1.503,-1.512,-1.5181,0.0,0.0,-1.1831,-1.1066,0.0,0.0,0.0,0.0,0.0,0.0,0.0,0.0,0.0,0.0,0.0,0.0,0.0,0.0,0.0,0.0,0.0,0.0,0.0,0.0,0.0,0.0,-1.3295,-1.3397,-1.3403,-1.3403,-1.3403,-1.3403,-1.3403,-1.3403,-1.3553,-1.3653,-1.3795,-1.3994,-1.415,-1.4299,-1.4299,-1.4299,-1.4299,-1.4299,-1.4299,-1.4299,-1.4299,-1.4299,-1.4299,-1.4299,-1.4299,-1.4299,-1.4299,-1.4299,-1.4299,-1.4299,-1.4333,-1.4407,-1.4606,-1.4875,-1.5059,-1.5153,-1.5181,-1.5181,-1.5181,-1.5181,-1.5181,-1.5181,-1.5147,-1.5113,-1.5113,-1.5004,-1.4896,-1.4896,-1.4814,-1.4694,-1.4694,-1.4694,-1.4681,-1.4626,-1.462,-1.4599,-1.4552,-1.4545,-1.4478,-1.4333,-1.4299,-1.4299,-1.4299,-1.4299,-1.4299,-1.4299,-1.4299,-1.4299,-1.4299,-1.4299,-1.4299,-1.4299,-1.4299,-1.4299,-1.4299,-1.4299,-1.4326,-1.4373,-1.4373,-1.4441,-1.459,-1.459,-1.4665,-1.4821,-1.4869,-1.4997,-1.2262,-1.2425,0.0,-1.1643,-1.1604,0.0,-1.0668,0.0,0.0,0.0,0.0,0.0,0.0,0.0,0.0,0.0,0.0,0.0,0.0,-1.2501,0.0,0.0,0.0,0.0,0.0,-1.3112,-1.3254,-1.3315,-1.337,-1.3403,-1.3403,-1.3403,-1.3403,-1.3403,-1.3498,-1.3578,-1.372,-1.3912,-1.4068,-1.4217,-1.4272,-1.4299,-1.4299,-1.4299,-1.4299,-1.4299,-1.4299,-1.4299,-1.4299,-1.4299,-1.4299,-1.4299,-1.4299,-1.4299,-1.4299,-1.4299,-1.4333,-1.4414,-1.4613,-1.4841,-1.5037,-1.514,-1.5181,-1.5181,-1.5181,-1.5181,-1.516,-1.5052,-1.5099,-1.516,-1.5052,-1.5038,-1.5091,-1.5091,-1.497,-1.4896,-1.4896,-1.4896,-1.4882,-1.4835,-1.4821,-1.4755,-1.4701,-1.4694,-1.4626,-1.4482,-1.4455,-1.4455,-1.4455,-1.4455,-1.4455,-1.4455,-1.4455,-1.4455,-1.4455,-1.4455,-1.4455,-1.4455,-1.4455,-1.4455,-1.4455,-1.4455,-1.4455,-1.4455,-1.4455,-1.4502,-1.459,-1.459,-1.4599,-1.4694,-1.4694,-1.4841]},{"header":{"parameterUnit":"m.s-1","parameterCategory":1,"la1":30.6,"la2":29.2853,"lo1":-89.7004,"lo2":-87.6739,"dy":0.0162,"dx":0.0183,"nx":112,"ny":82,"refTime":"2023-04-21T06:00:00:Z","depth":0,"parameterNumber":3,"parameterNumberName":"V-component_of_WINDS"},"data":[0.0,0.0,0.0,0.0,0.0,0.0,0.0,0.0,0.0,0.0,0.0,0.0,0.0,0.0,0.0,0.0,0.0,0.0,0.0,0.0,0.0,0.0,0.0,0.0,0.0,0.0,0.0,0.0,0.0,0.0,0.0,0.0,0.0,0.0,0.0,0.0,0.0,0.0,0.0,0.0,0.0,0.0,0.0,0.0,0.0,0.0,0.0,0.0,0.0,0.0,0.0,0.0,0.0,0.0,0.0,0.0,0.0,0.0,0.0,0.0,0.0,0.0,0.0,0.0,0.0,0.0,0.0,0.0,0.0,0.0,0.0,0.0,0.0,0.0,0.0,0.0,0.0,0.0,0.0,0.0,0.0,0.0,0.0,0.0,0.0,0.0,0.0,0.0,0.0,0.0,0.0,4.5847,4.5883,4.5883,4.5883,4.5883,4.5626,4.492,0.0,0.0,0.0,0.0,0.0,0.0,0.0,0.0,0.0,0.0,0.0,0.0,0.0,0.0,0.0,0.0,0.0,0.0,0.0,0.0,0.0,0.0,0.0,0.0,0.0,0.0,0.0,0.0,0.0,0.0,0.0,0.0,0.0,0.0,0.0,0.0,0.0,0.0,0.0,0.0,0.0,0.0,0.0,0.0,0.0,0.0,0.0,0.0,0.0,0.0,0.0,0.0,0.0,0.0,0.0,0.0,0.0,0.0,0.0,0.0,0.0,0.0,0.0,0.0,0.0,0.0,0.0,0.0,0.0,0.0,0.0,0.0,0.0,0.0,0.0,0.0,0.0,0.0,0.0,0.0,0.0,0.0,0.0,0.0,0.0,0.0,0.0,0.0,0.0,0.0,0.0,0.0,0.0,0.0,0.0,0.0,0.0,0.0,0.0,0.0,0.0,0.0,0.0,0.0,4.5773,4.5883,4.5883,4.5883,4.5883,4.5883,4.5847,4.5736,0.0,0.0,0.0,0.0,0.0,0.0,0.0,0.0,0.0,0.0,0.0,0.0,0.0,0.0,0.0,0.0,0.0,0.0,0.0,0.0,0.0,0.0,0.0,0.0,0.0,0.0,0.0,0.0,0.0,0.0,0.0,0.0,0.0,0.0,0.0,0.0,0.0,0.0,0.0,0.0,0.0,0.0,0.0,0.0,0.0,0.0,0.0,0.0,0.0,0.0,0.0,0.0,0.0,0.0,0.0,0.0,0.0,0.0,0.0,0.0,0.0,0.0,0.0,0.0,0.0,0.0,0.0,0.0,0.0,0.0,0.0,0.0,0.0,0.0,0.0,0.0,0.0,0.0,0.0,0.0,0.0,0.0,0.0,0.0,0.0,0.0,0.0,0.0,0.0,0.0,0.0,0.0,0.0,0.0,0.0,0.0,0.0,0.0,0.0,0.0,0.0,0.0,0.0,4.6938,4.7205,4.7205,4.7205,4.7205,4.7205,4.7205,4.7012,4.6571,4.6195,0.0,0.0,0.0,0.0,0.0,0.0,0.0,0.0,0.0,0.0,0.0,0.0,0.0,0.0,0.0,0.0,0.0,0.0,0.0,0.0,0.0,0.0,0.0,0.0,0.0,0.0,0.0,0.0,0.0,0.0,0.0,0.0,0.0,0.0,0.0,0.0,0.0,0.0,0.0,0.0,0.0,0.0,0.0,0.0,0.0,0.0,0.0,0.0,0.0,0.0,0.0,0.0,0.0,0.0,0.0,0.0,0.0,0.0,0.0,0.0,0.0,0.0,0.0,0.0,0.0,0.0,0.0,0.0,0.0,0.0,0.0,0.0,0.0,0.0,0.0,0.0,0.0,0.0,0.0,0.0,0.0,0.0,0.0,0.0,0.0,0.0,0.0,0.0,0.0,0.0,0.0,0.0,0.0,0.0,0.0,0.0,0.0,0.0,0.0,0.0,0.0,0.0,4.7929,4.8296,4.8296,4.8296,4.8296,4.8296,4.8296,4.8039,4.7406,4.7186,0.0,0.0,0.0,0.0,0.0,0.0,0.0,0.0,0.0,0.0,0.0,0.0,0.0,0.0,0.0,0.0,0.0,0.0,0.0,0.0,0.0,0.0,0.0,0.0,0.0,0.0,0.0,0.0,0.0,0.0,0.0,0.0,0.0,0.0,0.0,0.0,0.0,0.0,0.0,0.0,0.0,0.0,0.0,0.0,0.0,0.0,0.0,0.0,0.0,0.0,0.0,0.0,0.0,0.0,0.0,0.0,0.0,0.0,0.0,0.0,0.0,0.0,0.0,0.0,0.0,0.0,0.0,0.0,0.0,0.0,0.0,0.0,0.0,0.0,0.0,0.0,0.0,0.0,0.0,0.0,0.0,0.0,0.0,0.0,0.0,0.0,0.0,0.0,0.0,0.0,0.0,0.0,0.0,0.0,0.0,0.0,0.0,0.0,0.0,0.0,0.0,0.0,4.826,4.8296,4.8296,4.8296,4.8296,4.8296,4.8296,4.826,4.8223,4.7516,0.0,0.0,0.0,0.0,0.0,0.0,0.0,0.0,0.0,0.0,0.0,0.0,0.0,0.0,0.0,0.0,0.0,0.0,0.0,0.0,0.0,0.0,0.0,0.0,0.0,0.0,0.0,0.0,0.0,0.0,0.0,0.0,0.0,0.0,0.0,0.0,0.0,0.0,0.0,0.0,0.0,0.0,0.0,0.0,0.0,0.0,0.0,0.0,0.0,0.0,0.0,0.0,0.0,0.0,0.0,0.0,0.0,0.0,0.0,0.0,0.0,0.0,0.0,0.0,0.0,0.0,0.0,0.0,0.0,0.0,0.0,0.0,0.0,0.0,0.0,0.0,0.0,0.0,0.0,0.0,0.0,0.0,0.0,0.0,0.0,0.0,0.0,0.0,0.0,0.0,0.0,0.0,0.0,0.0,0.0,0.0,0.0,0.0,0.0,0.0,0.0,0.0,4.9123,4.9297,0.0,4.9848,4.9664,4.916,4.9123,4.8893,4.8333,0.0,0.0,0.0,0.0,0.0,0.0,0.0,0.0,0.0,0.0,0.0,0.0,0.0,0.0,0.0,0.0,0.0,0.0,0.0,0.0,0.0,0.0,0.0,0.0,0.0,0.0,0.0,0.0,0.0,0.0,0.0,0.0,0.0,0.0,0.0,0.0,0.0,0.0,0.0,0.0,0.0,0.0,0.0,0.0,0.0,0.0,0.0,0.0,0.0,0.0,0.0,0.0,0.0,0.0,0.0,0.0,0.0,0.0,0.0,0.0,0.0,0.0,0.0,0.0,0.0,0.0,0.0,0.0,0.0,0.0,0.0,0.0,0.0,0.0,0.0,0.0,0.0,0.0,0.0,0.0,0.0,0.0,0.0,0.0,0.0,0.0,0.0,0.0,0.0,0.0,0.0,0.0,0.0,0.0,0.0,0.0,0.0,0.0,0.0,0.0,0.0,0.0,5.0025,5.0222,5.0518,0.0,5.1101,5.0889,5.0343,5.0184,4.9877,4.9278,0.0,0.0,0.0,0.0,0.0,0.0,0.0,0.0,0.0,0.0,0.0,0.0,0.0,0.0,0.0,0.0,0.0,0.0,0.0,0.0,0.0,0.0,0.0,0.0,0.0,0.0,0.0,0.0,0.0,0.0,0.0,0.0,0.0,0.0,0.0,0.0,0.0,0.0,0.0,0.0,0.0,0.0,0.0,0.0,0.0,0.0,0.0,0.0,0.0,0.0,0.0,0.0,0.0,0.0,0.0,0.0,0.0,0.0,0.0,0.0,0.0,0.0,0.0,0.0,0.0,0.0,0.0,0.0,0.0,0.0,0.0,0.0,0.0,0.0,0.0,0.0,0.0,0.0,0.0,0.0,0.0,0.0,0.0,0.0,0.0,0.0,0.0,0.0,0.0,0.0,0.0,0.0,0.0,0.0,0.0,0.0,0.0,0.0,0.0,0.0,0.0,0.0,5.1221,5.1598,5.1821,5.1821,5.1821,5.1821,5.1821,5.1525,5.1295,0.0,0.0,0.0,0.0,0.0,0.0,0.0,0.0,0.0,0.0,0.0,0.0,0.0,0.0,0.0,0.0,0.0,0.0,0.0,0.0,0.0,0.0,0.0,0.0,0.0,0.0,0.0,0.0,0.0,0.0,0.0,0.0,0.0,0.0,0.0,0.0,0.0,0.0,0.0,0.0,0.0,0.0,0.0,0.0,0.0,0.0,0.0,0.0,0.0,0.0,0.0,0.0,0.0,0.0,0.0,0.0,0.0,0.0,0.0,0.0,0.0,0.0,0.0,0.0,0.0,0.0,0.0,0.0,0.0,0.0,0.0,0.0,0.0,0.0,0.0,0.0,0.0,0.0,0.0,0.0,0.0,0.0,0.0,0.0,0.0,0.0,0.0,0.0,0.0,0.0,0.0,0.0,0.0,0.0,0.0,0.0,0.0,0.0,0.0,0.0,0.0,0.0,0.0,5.2101,5.2557,5.3033,5.3628,5.3704,5.3462,5.2857,5.2639,5.2214,5.135,0.0,0.0,0.0,0.0,0.0,0.0,0.0,0.0,0.0,0.0,0.0,0.0,0.0,0.0,0.0,0.0,0.0,0.0,0.0,0.0,0.0,0.0,0.0,0.0,0.0,0.0,0.0,0.0,0.0,0.0,0.0,0.0,0.0,0.0,0.0,0.0,0.0,0.0,0.0,0.0,0.0,0.0,0.0,0.0,0.0,0.0,0.0,0.0,0.0,0.0,0.0,0.0,0.0,0.0,0.0,0.0,0.0,0.0,0.0,0.0,0.0,0.0,0.0,0.0,0.0,0.0,0.0,0.0,0.0,0.0,0.0,0.0,0.0,0.0,0.0,0.0,0.0,0.0,0.0,0.0,0.0,0.0,0.0,0.0,0.0,0.0,0.0,0.0,0.0,0.0,0.0,0.0,0.0,0.0,0.0,0.0,0.0,0.0,0.0,0.0,0.0,0.0,5.3456,5.3906,5.4306,5.4831,5.4907,5.471,5.415,5.395,5.3542,5.2835,0.0,0.0,0.0,0.0,0.0,0.0,0.0,0.0,0.0,0.0,0.0,0.0,0.0,0.0,0.0,0.0,0.0,0.0,0.0,0.0,0.0,0.0,0.0,0.0,0.0,0.0,0.0,0.0,0.0,0.0,0.0,0.0,0.0,0.0,0.0,0.0,0.0,0.0,0.0,0.0,0.0,0.0,0.0,0.0,0.0,0.0,0.0,0.0,0.0,0.0,0.0,0.0,0.0,0.0,0.0,0.0,0.0,0.0,0.0,0.0,0.0,0.0,0.0,0.0,0.0,0.0,0.0,0.0,0.0,0.0,0.0,0.0,0.0,0.0,0.0,0.0,0.0,0.0,0.0,0.0,0.0,0.0,0.0,0.0,0.0,0.0,0.0,0.0,0.0,0.0,0.0,0.0,0.0,0.0,0.0,0.0,0.0,0.0,0.0,0.0,0.0,0.0,5.4936,5.5301,5.5541,5.5541,5.5541,5.5535,5.5491,5.5237,5.5033,5.4998,0.0,0.0,0.0,0.0,0.0,0.0,0.0,0.0,0.0,0.0,0.0,0.0,0.0,0.0,0.0,0.0,0.0,0.0,0.0,0.0,0.0,0.0,0.0,0.0,0.0,0.0,0.0,0.0,0.0,0.0,0.0,0.0,0.0,0.0,0.0,0.0,0.0,0.0,0.0,0.0,0.0,0.0,0.0,0.0,0.0,0.0,0.0,0.0,0.0,0.0,0.0,0.0,0.0,0.0,0.0,0.0,0.0,0.0,0.0,0.0,5.0546,0.0,0.0,0.0,0.0,0.0,0.0,0.0,0.0,0.0,0.0,0.0,0.0,0.0,0.0,0.0,0.0,0.0,0.0,0.0,0.0,0.0,0.0,0.0,0.0,0.0,0.0,0.0,0.0,0.0,0.0,0.0,0.0,0.0,0.0,0.0,0.0,0.0,0.0,0.0,0.0,0.0,5.5049,5.5411,5.5671,5.5671,5.5671,5.5649,5.556,5.5508,5.5332,5.5019,5.4674,0.0,0.0,0.0,0.0,0.0,0.0,0.0,0.0,0.0,0.0,0.0,0.0,0.0,0.0,0.0,0.0,0.0,0.0,0.0,0.0,0.0,0.0,0.0,0.0,0.0,0.0,0.0,0.0,0.0,0.0,0.0,0.0,0.0,0.0,0.0,0.0,0.0,0.0,0.0,0.0,0.0,0.0,0.0,0.0,0.0,0.0,0.0,0.0,0.0,0.0,0.0,0.0,0.0,0.0,0.0,0.0,0.0,0.0,0.0,0.0,5.1374,0.0,0.0,0.0,0.0,0.0,0.0,0.0,0.0,0.0,0.0,0.0,0.0,0.0,0.0,0.0,0.0,0.0,0.0,0.0,0.0,0.0,0.0,0.0,0.0,0.0,0.0,0.0,0.0,0.0,0.0,0.0,0.0,0.0,0.0,0.0,0.0,0.0,0.0,0.0,0.0,5.5393,5.5571,5.5708,5.5708,5.5708,5.5692,5.5665,5.566,5.5554,5.535,5.5147,0.0,0.0,0.0,0.0,0.0,0.0,0.0,0.0,0.0,0.0,0.0,0.0,0.0,0.0,0.0,0.0,0.0,0.0,0.0,0.0,0.0,0.0,0.0,0.0,0.0,0.0,0.0,0.0,0.0,0.0,0.0,0.0,0.0,0.0,0.0,0.0,0.0,0.0,0.0,0.0,0.0,0.0,0.0,0.0,0.0,0.0,0.0,0.0,0.0,0.0,0.0,0.0,0.0,5.2748,5.2861,5.3012,5.3012,5.3012,5.3012,5.307,5.2671,5.1971,5.1636,0.0,0.0,0.0,0.0,0.0,0.0,0.0,0.0,0.0,0.0,0.0,0.0,0.0,0.0,0.0,0.0,0.0,0.0,0.0,0.0,0.0,0.0,0.0,0.0,5.579,5.5511,5.4354,0.0,0.0,0.0,0.0,0.0,0.0,0.0,0.0,0.0,0.0,0.0,5.6126,5.6165,5.6165,5.6165,5.6165,5.6165,5.6165,5.6016,5.5939,5.5939,5.547,5.5173,0.0,0.0,0.0,0.0,0.0,0.0,0.0,0.0,0.0,0.0,0.0,0.0,0.0,0.0,0.0,0.0,0.0,0.0,0.0,0.0,0.0,0.0,0.0,0.0,0.0,0.0,0.0,0.0,0.0,0.0,0.0,0.0,5.2677,5.1916,0.0,0.0,0.0,0.0,0.0,0.0,0.0,0.0,0.0,0.0,0.0,0.0,0.0,5.2212,5.2861,5.3331,5.4309,5.5822,5.6159,5.6706,5.7468,5.7468,5.7468,5.7468,5.748,0.0,5.1918,5.1856,0.0,0.0,0.0,0.0,0.0,0.0,0.0,0.0,0.0,0.0,0.0,0.0,0.0,0.0,0.0,0.0,0.0,0.0,0.0,0.0,0.0,0.0,5.5885,5.661,5.6808,5.695,0.0,5.642,5.5422,5.5588,5.5621,0.0,0.0,0.0,0.0,0.0,0.0,0.0,5.7857,5.7973,5.7973,5.7973,5.7973,5.7973,5.7973,5.7247,5.6824,5.6824,5.6061,5.5452,5.5121,5.5101,0.0,0.0,0.0,0.0,0.0,0.0,0.0,0.0,0.0,0.0,0.0,0.0,0.0,0.0,0.0,0.0,0.0,0.0,0.0,0.0,0.0,0.0,0.0,0.0,0.0,0.0,0.0,0.0,0.0,5.3209,5.3331,5.3651,5.3513,5.3366,0.0,0.0,0.0,0.0,0.0,0.0,0.0,0.0,0.0,5.3963,5.4002,5.4212,5.4594,5.4782,5.5511,5.675,5.6923,5.7478,5.8313,5.8313,5.8313,5.8313,5.8313,5.6939,5.4785,5.4995,5.532,5.5609,0.0,0.0,0.0,0.0,5.5109,5.5525,5.5777,5.6157,5.6584,5.6624,0.0,0.0,0.0,0.0,0.0,0.0,0.0,0.0,0.0,0.0,5.7242,5.7627,5.7742,5.7857,5.8204,5.7681,5.7132,0.0,5.7165,5.7165,5.7165,0.0,0.0,0.0,0.0,5.7857,5.8236,5.8313,5.8313,5.8313,5.8313,5.8313,5.8313,5.7934,5.7742,5.7742,5.7357,5.6878,5.6213,5.6169,5.5848,0.0,0.0,0.0,0.0,0.0,0.0,0.0,0.0,0.0,0.0,0.0,0.0,0.0,0.0,0.0,0.0,0.0,0.0,0.0,0.0,0.0,0.0,0.0,0.0,0.0,0.0,0.0,0.0,5.3833,5.4092,5.4868,5.4853,5.4797,0.0,0.0,0.0,0.0,0.0,0.0,5.5549,5.56,5.5814,5.6285,5.6335,5.6472,5.6665,5.6665,5.7209,5.8292,5.8292,5.8748,5.9583,5.9583,5.9583,5.9583,5.9583,5.9204,5.8538,5.7768,5.7467,5.7365,5.6416,5.6185,5.6329,5.5971,5.6242,5.6861,5.7143,5.7674,5.8218,5.8264,5.8313,5.8313,5.8313,0.0,0.0,0.0,0.0,5.866,5.8896,5.8934,5.9011,5.9204,5.9281,5.9319,5.9544,5.9583,5.9313,0.0,5.8313,5.8352,5.8583,0.0,0.0,0.0,0.0,5.9358,5.9544,5.9583,5.9583,5.9583,5.9583,5.9583,5.9583,5.9204,5.8934,5.8934,5.8544,5.8011,5.7363,5.7324,5.6994,5.6291,0.0,0.0,0.0,0.0,0.0,0.0,0.0,0.0,0.0,0.0,0.0,0.0,0.0,0.0,0.0,0.0,0.0,0.0,0.0,0.0,0.0,0.0,0.0,0.0,0.0,0.0,0.0,0.0,0.0,5.4605,5.5171,0.0,0.0,0.0,0.0,5.5627,5.5627,5.6017,5.6841,5.6912,5.7297,5.8159,5.8159,5.8544,5.9319,5.9319,6.0165,6.1831,6.1831,6.2287,6.3045,6.3045,6.3045,6.3045,6.3045,6.3006,6.266,5.8692,5.7033,5.7033,5.6945,5.7434,5.8158,5.8131,5.8175,5.8214,5.8231,5.8275,5.8313,5.8313,5.8313,5.8313,5.8313,5.8313,0.0,0.0,5.9435,5.9627,6.0473,6.0671,6.0864,6.171,6.1903,6.2133,6.2891,6.3045,6.2121,0.0,5.8313,5.8544,5.9319,0.0,6.0012,6.1672,6.1903,6.2172,6.2968,6.3045,6.3045,6.3045,6.3045,6.3045,6.3045,6.1589,6.0671,6.0671,5.9165,5.8275,5.8236,5.8242,5.8198,5.8159,5.8159,0.0,0.0,0.0,0.0,0.0,0.0,0.0,0.0,0.0,0.0,0.0,0.0,0.0,0.0,0.0,0.0,0.0,0.0,0.0,0.0,0.0,0.0,0.0,0.0,0.0,0.0,0.0,0.0,5.6896,5.7203,0.0,5.8088,5.8165,5.8588,5.971,5.9825,6.0171,6.1012,6.1583,6.2044,6.2352,6.2897,6.332,6.3628,6.3628,6.4211,6.5327,6.5327,6.5743,6.6583,6.6583,6.6583,6.6583,6.6583,6.6276,6.5628,6.4134,6.2512,6.1012,6.0479,6.0479,6.0671,6.0127,6.0242,6.0748,6.0748,6.1089,6.1535,6.1669,6.161,6.1541,6.1669,6.1721,6.176,6.2069,6.2206,6.2349,6.2659,6.2736,6.281,6.312,6.3197,6.3239,6.3446,6.3565,6.3234,6.1978,6.1627,6.1621,6.1891,6.1968,6.216,6.2781,6.2858,6.2974,6.3275,6.3314,6.3314,6.3314,6.3314,6.3314,6.3314,6.2737,6.2397,6.2397,6.1852,6.1281,6.0787,6.0204,5.9665,5.9088,5.855,5.8313,0.0,0.0,0.0,0.0,0.0,0.0,0.0,0.0,0.0,0.0,0.0,0.0,0.0,0.0,0.0,0.0,0.0,0.0,0.0,0.0,0.0,0.0,0.0,0.0,0.0,0.0,5.8517,5.9088,5.9627,6.0198,6.0737,6.105,6.1704,6.2864,6.3211,6.3749,6.4551,6.5128,6.5705,6.632,6.6898,6.7321,6.759,6.759,6.7859,6.8366,6.8468,6.8781,6.9359,6.9411,6.9451,6.9413,6.9142,6.8679,6.8105,6.7829,6.6709,6.5037,6.3566,6.2855,6.262,6.204,6.2195,6.2658,6.2658,6.3039,6.348,6.363,6.3579,6.3485,6.3635,6.3675,6.3791,6.4373,6.4617,6.4817,6.5362,6.5517,6.5517,6.5517,6.5517,6.5487,6.5411,6.5479,6.5487,6.5407,6.4571,6.4,6.4309,6.4514,6.4766,6.5074,6.5068,6.5006,6.5006,6.5006,6.5006,6.5006,6.5006,6.4891,6.4628,6.432,6.4045,6.3775,6.3468,6.3045,6.2512,6.1935,6.1358,6.0775,6.0275,5.9858,5.9588,0.0,0.0,0.0,0.0,0.0,0.0,0.0,0.0,0.0,0.0,0.0,0.0,0.0,0.0,0.0,0.0,0.0,0.0,0.0,0.0,0.0,0.0,0.0,5.866,5.9858,6.0896,6.0941,6.2358,6.3352,6.3429,6.416,6.4705,6.4705,6.5513,6.6365,6.7148,6.7225,6.8033,6.9732,6.9809,7.0194,7.1002,7.1002,7.1002,7.1009,7.1174,7.129,7.1301,7.1508,7.1591,7.1513,7.0693,7.0304,7.0266,6.9403,6.9053,6.8766,6.6016,6.4545,6.3966,6.3966,6.3966,6.3966,6.3966,6.3966,6.3966,6.397,6.397,6.3966,6.3973,6.3973,6.4323,6.5991,6.65,6.6853,6.8482,6.8909,6.8909,6.8909,6.8909,6.8905,6.894,6.8944,6.8944,6.8979,6.7008,6.5574,6.6337,6.7006,6.7725,6.8566,6.8553,0.0,6.8417,6.8417,6.8417,6.8404,6.8404,6.8065,6.7225,6.6455,6.5647,6.4806,6.396,6.3454,6.3454,6.3415,6.3377,6.33,6.33,6.2921,6.2163,0.0,0.0,0.0,0.0,0.0,0.0,0.0,0.0,0.0,0.0,0.0,0.0,0.0,0.0,0.0,0.0,0.0,0.0,0.0,0.0,0.0,0.0,6.2243,6.121,6.1935,6.2852,6.3474,6.3974,6.4705,6.5936,6.6282,6.6667,6.7314,6.8167,6.8802,6.9126,7.0324,7.1291,7.1925,7.2512,7.2934,7.3166,7.3166,7.3166,7.3166,7.3184,7.3212,7.3216,7.3307,7.3328,7.3289,7.3056,7.2978,7.2939,7.2702,7.2301,7.1602,6.8851,6.7646,6.7495,6.7495,6.7495,6.7495,6.7495,6.7495,6.7517,6.766,6.7626,6.7517,6.7663,6.7732,6.7809,6.8313,6.8486,6.8693,6.9122,6.9276,6.9276,6.9276,6.9276,6.9415,6.9885,7.0086,7.0349,7.0823,7.099,7.0447,6.8546,6.8349,6.8549,6.8821,6.8812,0.0,6.8776,6.8776,6.8719,6.8629,6.8607,6.853,6.8265,6.8072,6.7877,6.7729,6.7505,6.735,6.735,6.6187,6.4946,6.3705,6.3667,6.355,0.0,0.0,0.0,0.0,0.0,0.0,0.0,0.0,0.0,0.0,0.0,0.0,0.0,0.0,0.0,0.0,0.0,0.0,0.0,0.0,0.0,0.0,6.4233,6.4443,6.4295,6.4357,6.4705,6.5551,6.6282,6.7128,6.809,6.8898,6.9583,7.0078,7.0996,7.1551,7.1606,7.2575,7.3364,7.3829,7.4295,7.4718,7.5107,7.5107,7.5107,7.5107,7.5141,7.5174,7.5174,7.5278,7.5303,7.5264,7.4913,7.4758,7.4719,7.4368,7.3976,0.0,0.0,0.0,0.0,0.0,7.02,7.02,7.02,7.02,7.0211,7.0312,7.0291,7.0214,7.0351,7.0368,7.0446,7.0795,7.0983,7.1128,7.1441,7.1558,7.1558,7.1558,7.1558,7.1627,7.2016,7.2195,7.2406,7.2797,7.3413,0.0,7.157,7.1219,7.1177,7.1154,7.1088,7.0918,7.0588,7.0495,7.0326,6.9939,6.9886,6.9731,6.9348,6.9348,0.0,0.0,0.0,6.8894,6.8894,6.7961,0.0,0.0,0.0,6.5944,6.5944,6.5944,0.0,0.0,6.3255,6.2824,0.0,0.0,0.0,0.0,0.0,0.0,0.0,0.0,0.0,0.0,0.0,0.0,0.0,0.0,0.0,0.0,6.5959,6.6847,6.7652,6.7138,6.6888,6.7475,6.9034,7.0054,7.0163,7.1682,7.2672,7.2672,7.3582,7.4148,7.4168,0.0,0.0,0.0,0.0,7.5864,7.6638,7.6676,7.6676,7.6676,7.6771,7.6824,7.6827,7.7032,7.7101,7.7062,7.6283,7.5932,7.5893,7.511,7.4798,7.4675,7.3588,7.2827,7.226,7.226,7.226,7.226,7.226,0.0,0.0,7.226,7.226,7.226,7.226,7.226,7.2456,7.3235,7.343,7.3586,7.433,7.4486,7.4486,7.4528,7.4528,7.4528,7.4647,7.4647,7.4686,7.4764,7.4853,7.4899,7.4899,7.457,7.4314,7.434,7.4197,7.3794,7.3087,7.2942,7.2636,7.1879,0.0,0.0,7.0716,7.0677,7.0339,6.9582,6.954,6.9498,6.9413,6.9296,6.9218,6.9102,6.9024,6.8946,6.8946,6.8946,6.8946,6.8868,6.5807,6.4394,0.0,0.0,0.0,0.0,0.0,0.0,0.0,0.0,0.0,0.0,0.0,0.0,0.0,0.0,0.0,6.7828,6.8811,6.9713,7.0564,7.114,7.1176,7.0435,7.1347,7.2316,7.3013,7.3474,7.372,7.372,7.4528,7.5133,7.5294,7.5917,7.6426,7.6745,7.6747,7.6825,7.7018,7.7018,7.7018,7.7018,0.0,0.0,7.7043,7.7095,7.7101,7.7101,7.6906,7.6867,7.6828,7.6672,7.6594,7.6436,7.4823,7.4124,7.4017,7.4017,7.4017,7.4017,7.4017,7.4017,7.4017,7.4017,7.4017,7.4017,7.4017,7.4017,0.0,7.4212,7.4251,7.429,7.4447,7.4486,7.4528,7.4579,7.4581,7.4779,7.5491,7.5648,7.5804,7.6469,7.6626,7.6627,7.6627,7.5448,7.4544,7.4546,7.4498,7.4412,7.4258,7.4256,7.4117,7.3776,7.3768,7.369,7.3534,7.3495,7.3491,7.3511,7.3504,7.3177,7.2496,7.1755,7.1053,7.0387,6.9646,6.9297,6.9297,6.9297,6.9297,6.9293,6.8345,6.7922,0.0,0.0,0.0,0.0,0.0,0.0,0.0,0.0,0.0,0.0,0.0,6.6035,0.0,0.0,6.8769,7.0051,7.1003,7.1872,7.2723,7.3619,7.3749,7.2671,7.3385,7.4101,7.4567,7.5125,7.5468,7.5468,7.5936,7.6253,7.6337,7.6716,7.7004,7.7083,7.711,7.7106,7.7112,7.7112,7.7112,7.7112,7.7112,7.7112,7.7112,7.7104,7.7101,7.7101,7.7101,7.7101,7.7101,7.711,7.7112,7.6995,7.6136,7.5781,7.5813,7.5813,7.5813,7.5813,7.5813,7.5813,7.5813,7.5813,7.5813,7.5813,7.5813,7.5819,7.5785,7.5785,7.579,7.5795,7.5795,7.5795,7.5796,7.5841,7.5842,7.5961,7.6394,7.6512,7.6629,7.702,7.714,7.7142,7.7142,7.6441,7.5895,7.5892,7.5889,7.5693,7.5306,7.5264,7.5021,7.4491,7.4448,7.4448,7.4448,7.4448,7.4499,7.4597,7.4594,7.4394,7.3959,7.3529,7.3098,7.2662,7.2233,7.1995,7.1948,7.1948,7.1948,7.1947,7.1796,7.0775,0.0,0.0,0.0,0.0,0.0,0.0,0.0,0.0,6.5665,6.6695,6.7639,6.8513,6.934,7.024,7.1163,7.2057,7.2973,7.3803,7.4422,7.5278,7.5535,7.4714,7.5231,7.5641,7.5641,7.6442,7.6958,7.6958,7.7043,7.7098,7.7098,7.7248,7.7364,7.7333,7.7512,7.7624,7.7595,7.7595,7.7595,7.7595,7.7595,7.7517,7.736,7.735,7.7266,7.711,7.711,7.711,7.7111,7.7083,7.7087,7.7087,7.7087,7.7081,7.711,7.7103,7.7101,7.7101,7.7101,7.7101,7.7101,7.7104,7.7104,7.7103,7.7108,7.7116,7.7084,7.7086,7.7093,7.7098,7.7098,7.7098,7.7099,7.7139,7.7139,7.71,7.7102,7.7102,7.7102,7.7102,7.7144,7.7185,7.7185,7.7187,7.7187,7.7186,7.7144,7.6908,7.6248,7.6167,7.5891,7.5188,7.5109,7.5109,7.5109,7.5109,7.5109,7.5108,7.5108,7.5107,7.5106,7.4949,7.4868,7.4861,7.4705,7.4584,7.4533,7.4533,7.4532,7.4529,7.4529,7.3044,6.3226,6.3479,6.3492,6.3624,6.4315,6.5123,0.0,0.0,6.7629,6.8502,6.9484,7.0478,7.1392,7.2327,7.324,7.4138,7.4998,7.5623,7.5701,7.6443,7.695,7.6872,7.6806,7.6811,7.6811,7.7047,7.718,7.718,7.7139,7.7098,7.7098,7.784,7.823,7.8231,7.901,7.9401,7.9402,7.9402,7.9402,7.9402,7.9402,7.9011,7.8269,7.8268,7.7838,7.7095,7.7095,7.7095,7.7095,7.7097,7.7097,7.7097,7.7097,7.7096,7.7093,7.7111,7.7101,7.7101,7.7101,7.7101,7.7103,7.7116,7.7112,7.7107,7.709,7.709,7.7086,7.7094,7.7097,7.7098,7.7098,7.7098,7.7139,7.7183,7.7184,7.7184,7.7187,7.7187,7.7187,7.7187,7.7187,7.7187,7.7187,7.7187,7.7187,7.7187,7.7187,7.7148,7.707,7.7031,7.7031,7.6914,7.6914,7.6914,7.6914,7.6914,7.6913,7.691,7.691,7.6869,7.6825,7.6122,7.573,7.5769,7.4988,7.4596,7.4595,7.4595,7.4591,7.4583,7.4583,7.4343,6.3833,6.432,6.484,0.0,6.6188,6.6984,6.7943,6.8743,6.9586,7.0544,7.1465,7.2413,7.3313,7.4217,7.4922,0.0,7.6094,7.664,7.664,7.6953,7.7187,7.7187,7.7145,7.7101,7.7101,7.7185,7.7187,7.7187,7.7655,7.7928,7.7928,7.8707,7.9175,7.9178,7.9524,7.9718,7.9682,7.9682,7.9682,7.9682,7.9682,7.9525,7.9174,7.917,7.8974,7.8583,7.8075,7.784,7.7802,7.7336,7.7142,7.7142,7.7142,7.7142,7.7142,7.7092,7.7086,7.7086,7.7086,7.7086,7.7087,7.7092,7.709,7.7088,7.7096,7.7138,7.7178,7.7142,7.7145,7.7146,7.7146,7.7146,7.7186,7.7187,7.7187,7.7187,7.7187,7.7187,7.7187,7.7187,7.7187,7.7187,7.7187,7.7187,7.7187,7.7187,7.7187,7.7187,7.7187,7.7187,7.7187,7.7187,7.7187,7.7187,7.7187,7.7187,7.7187,7.7187,7.7187,7.7186,7.7146,7.6834,7.6677,7.6673,7.6283,7.6086,7.6044,7.6044,7.6039,7.6069,7.6069,7.6023,6.5183,6.5817,0.0,6.7413,6.8143,6.8911,6.9918,7.073,7.1542,7.2538,7.3398,7.4219,7.4844,7.5664,7.625,7.625,7.6797,7.7187,7.7187,7.7187,7.7187,7.7187,7.7187,7.7305,7.7539,7.7578,7.7578,7.7578,7.8359,7.8828,7.8828,7.9609,8.0077,8.0078,8.0271,8.0426,8.0428,8.0428,8.0428,8.0428,8.0428,8.0272,8.0037,7.98,7.9682,7.9643,7.9018,7.8744,7.8706,7.8122,7.7889,7.7889,7.7654,7.7576,7.7537,7.7222,7.7101,7.7098,7.7098,7.7098,7.7099,7.71,7.7139,7.7099,7.7103,7.7144,7.7184,7.7185,7.7187,7.7187,7.7187,7.7187,7.7187,7.7187,7.7187,7.7187,7.7187,7.7187,7.7187,7.7187,7.7187,7.7187,7.7187,7.7187,7.7187,7.7187,7.7187,7.7187,7.7187,7.7187,7.7187,7.7187,7.7187,7.7187,7.7187,7.7187,7.7187,7.7187,7.7187,7.7187,7.7187,7.7187,7.7187,7.7186,7.7186,7.7185,7.7143,7.7143,7.7139,7.7131,7.7128,7.7082,6.8086,6.8711,6.9375,6.9336,6.9961,7.0859,7.1719,7.2578,7.3476,7.4336,7.5195,7.582,7.5859,7.6562,7.7148,7.7148,7.7187,7.7187,7.7187,7.7187,7.7187,7.7187,7.7187,7.7539,0.0,7.8476,7.8476,7.8476,7.9219,7.9648,7.9648,8.0508,8.0976,8.0976,8.1797,8.2226,8.2226,8.2226,8.2226,8.2226,8.2226,8.1797,8.0937,8.0078,7.9687,7.9687,7.9687,7.9648,7.9648,7.9648,7.9609,7.9531,7.8789,7.8476,7.8359,7.75,7.7146,7.7098,7.7098,7.7098,7.71,7.7183,7.7142,7.7101,7.7187,7.7187,7.7185,7.7187,7.7187,7.7187,7.7187,7.7187,7.7187,7.7187,7.7187,7.7187,7.7187,7.7187,7.7187,7.7187,7.7187,7.7187,7.7187,7.7187,7.7187,7.7187,7.7187,7.7187,7.7187,7.7187,7.7187,7.7187,7.7187,7.7187,7.7187,7.7187,7.7187,7.7187,7.7187,7.7187,7.7187,7.7187,7.7187,7.7187,7.7187,7.7187,7.7187,7.7187,7.7187,7.7184,7.714,7.7093,6.8906,6.9687,7.043,7.0976,7.1797,7.2656,7.3515,7.4414,7.5117,7.539,7.6172,7.6758,7.6758,7.6992,7.7187,7.7187,7.7187,7.7187,7.7187,7.7187,7.7422,7.8008,7.8047,0.0,0.0,0.0,0.0,7.9258,8.0078,8.0547,8.0547,8.1406,8.1875,8.1875,8.2148,8.2304,8.2304,8.2304,8.2304,8.2304,8.2304,8.2148,8.1836,8.1562,8.1445,8.1406,8.082,8.0547,8.0508,7.9922,7.9687,7.9687,7.9414,7.9297,7.9258,7.8984,7.8828,7.8671,7.7538,7.7186,7.7186,7.7187,7.7187,7.7186,7.7187,7.7187,7.7187,7.7187,7.7187,7.7187,7.7187,7.7187,7.7187,7.7187,7.7187,7.7187,7.7187,7.7187,7.7187,7.7187,7.7187,7.7187,7.7187,7.7187,7.7187,7.7187,7.7187,7.7187,7.7187,7.7187,7.7187,7.7187,7.7187,7.7187,7.7187,7.7187,7.7187,7.7187,7.7187,7.7187,7.7187,7.7187,7.7187,7.7187,7.7187,7.7187,7.7187,7.7187,7.7187,7.7184,7.7183,7.7137,7.0156,7.1015,7.1836,7.2695,7.3594,7.4375,7.4922,7.5742,7.6367,7.6367,7.6797,7.7187,7.7187,7.7187,7.7187,7.7187,7.7187,7.7187,7.7187,7.7461,7.7851,7.8437,7.875,7.9258,0.0,0.0,0.0,8.0117,8.0976,8.1445,8.1445,8.1992,8.2304,8.2304,8.2304,8.2304,8.2304,8.2304,8.2304,8.2304,8.2304,8.2304,8.2304,8.2304,8.2304,8.2265,8.1719,8.1445,8.1406,8.0859,8.0625,8.0586,8.0273,8.0156,8.0117,7.9805,7.9687,7.9492,7.8125,7.7656,7.7617,7.7305,7.7187,7.7187,7.7187,7.7187,7.7187,7.7187,7.7187,7.7187,7.7187,7.7187,7.7187,7.7187,7.7187,7.7187,7.7187,7.7187,7.7187,7.7187,7.7187,7.7187,7.7187,7.7187,7.7187,7.7187,7.7187,7.7187,7.7187,7.7187,7.7187,7.7187,7.7187,7.7187,7.7187,7.7187,7.7187,7.7187,7.7187,7.7187,7.7187,7.7187,7.7187,7.7187,7.7187,7.7187,7.7187,7.7187,7.7187,7.7186,7.7185,7.7181,7.1836,7.2734,7.3633,7.4453,7.5312,7.5976,7.5976,7.6601,7.7187,7.7187,7.7187,7.7187,7.7187,7.7187,7.7187,7.7187,7.7187,7.7226,7.7265,7.7969,7.8515,0.0,0.0,0.0,0.0,0.0,0.0,8.1133,0.0,8.2304,8.2304,8.2304,8.2304,8.2304,8.2304,8.2304,8.2304,8.2304,8.2304,8.2304,8.2304,8.2304,8.2304,8.2304,8.2304,8.2304,8.2304,8.2304,8.2304,8.2304,8.2304,8.2226,8.1406,8.1054,8.0976,8.0156,7.9844,7.9726,7.8906,7.8594,7.8437,7.7617,7.7344,7.7305,7.7265,7.7265,7.7265,7.7226,7.7187,7.7187,7.7187,7.7187,7.7187,7.7187,7.7187,7.7187,7.7187,7.7187,7.7226,7.7265,7.7305,7.7344,7.7344,7.7344,7.7344,7.7344,7.7344,7.7305,7.7265,7.7265,7.7265,7.7305,7.7344,7.7305,7.7265,7.7265,7.7265,7.7187,7.7187,7.7187,7.7187,7.7187,7.7187,7.7187,7.7187,7.7187,7.7187,7.7187,7.7187,7.7187,7.7186,7.7184,7.2734,7.4062,7.5273,7.5508,7.6211,7.6875,7.6875,7.7031,7.7187,7.7187,7.7187,7.7187,7.7187,7.7187,0.0,7.7187,7.7187,0.0,7.8086,7.8359,0.0,8.0195,0.0,8.1015,8.1875,8.1953,0.0,0.0,8.2539,8.2304,8.2304,8.2304,8.2304,8.2304,8.2304,8.2304,8.2304,8.2304,8.2304,8.2304,8.2304,8.2304,8.2304,8.2304,8.2304,8.2304,8.2304,8.2304,8.2304,8.2304,8.2304,8.2265,8.207,8.1953,8.1953,8.1719,8.164,8.1523,8.0664,7.9922,7.9375,7.914,7.9062,7.8945,7.8359,7.8164,7.8047,7.7383,7.7187,7.7187,7.7187,7.7187,7.7187,7.7187,7.7187,7.7187,7.7187,7.7187,7.7383,7.8047,7.8633,7.9062,7.9062,7.9062,7.9062,7.9062,7.9062,7.8867,7.8242,7.8164,7.8398,7.8984,7.9062,7.8828,7.8203,7.8164,7.789,7.7226,7.7187,7.7187,7.7187,7.7187,7.7187,7.7187,7.7187,7.7187,7.7187,7.7187,7.7187,7.7187,7.7187,7.7186,7.4101,7.5156,7.5976,7.6367,7.6836,7.7187,7.7187,7.7187,7.7187,7.7187,7.7187,7.7187,7.7187,7.7187,7.7187,0.0,0.0,0.0,7.8398,7.8789,7.9531,0.0,8.1328,0.0,8.2265,8.2656,8.3086,0.0,8.3164,8.3047,8.3437,8.3437,8.3437,8.3437,8.3437,8.3242,8.2851,8.25,8.2304,8.2304,8.2304,8.2304,8.2304,8.2304,8.2304,8.2304,0.0,8.2304,8.2304,8.2304,8.2304,8.2304,8.2304,8.2304,8.2304,8.2304,8.2304,8.2226,8.1758,8.125,8.0703,7.9961,7.9687,7.9609,7.914,7.9023,7.8906,7.8437,7.8281,7.8281,7.8281,7.8281,7.8281,7.8281,7.8281,7.8281,7.8281,7.8281,7.8437,7.8945,7.9375,7.9687,7.9687,7.9687,7.9687,7.9687,7.9687,7.9687,7.9609,7.9258,7.9219,7.9648,7.9687,7.9531,7.9062,7.9023,7.8828,7.832,7.8281,7.8281,7.8281,7.8281,7.8281,7.8281,7.7969,7.7773,7.7773,7.7383,7.7187,7.7187,7.7187,7.7187,7.5469,7.5976,7.625,7.6992,7.7187,7.7187,7.7187,7.7187,7.7187,7.7187,7.7187,7.7187,7.7187,7.7187,7.7187,7.7187,0.0,7.7539,7.8515,7.9258,8.0078,8.1054,8.1836,8.2344,8.2461,8.3164,8.3711,8.3945,8.3945,8.4219,8.4883,8.4883,8.4883,8.4883,8.4883,8.4492,8.3594,8.2851,8.2422,8.2304,8.2304,8.2304,8.2304,8.2304,8.2304,8.2304,8.2304,8.2304,8.2304,8.2304,8.2304,8.2304,8.2304,8.2304,8.2304,8.2304,8.2304,8.2304,8.2304,8.2304,8.2031,8.0547,8.0039,8.0039,7.9922,7.9883,7.9844,7.9726,7.9687,7.9687,7.9687,7.9687,7.9687,7.9687,7.9687,7.9687,7.9687,7.9805,7.9883,7.9883,7.9961,8.0039,8.0039,8.0039,8.0039,8.0039,8.0039,8.0312,8.1094,8.039,7.9922,8.0039,8.0039,8.0,7.9883,7.9883,7.9805,7.9726,7.9687,7.9687,7.9687,7.9687,7.9687,7.9687,7.9023,7.8672,7.8672,7.789,7.7539,7.7539,7.7539,7.7539,7.5625,7.6445,7.6992,7.7148,7.7187,7.7187,7.7187,7.7187,0.0,7.7187,7.7187,7.7187,7.7187,7.7187,7.7187,7.7187,7.7187,7.7734,7.9297,7.9609,8.0273,0.0,8.2226,8.2578,8.3281,8.3515,0.0,0.0,8.5742,8.5508,8.4922,8.4883,8.4883,8.4883,8.4883,8.4492,8.3594,8.3437,8.3008,8.2304,8.2304,8.2304,8.2304,8.2304,8.2304,8.2304,8.2304,0.0,8.2304,8.2304,8.2304,8.2304,8.2304,8.2304,8.2304,8.2304,8.2304,8.2304,8.2304,8.2304,8.2265,8.1953,8.1836,8.1719,8.0976,8.0781,8.0625,7.9883,7.9687,7.9687,7.9687,7.9687,7.9687,7.9687,7.9687,7.9687,7.9687,8.0273,8.0781,8.0781,8.1367,8.1836,8.1836,8.1836,8.1836,8.1836,8.1836,8.1914,8.207,8.1328,8.1054,8.1758,8.1836,8.1562,8.0859,8.0781,8.0469,7.9765,7.9687,7.9687,7.9687,7.9687,7.9687,7.9687,7.957,7.9492,7.9492,7.9336,7.9258,7.9258,7.9258,7.9258,7.6211,7.6875,7.7187,7.7187,7.7187,7.7187,7.7187,0.0,0.0,7.7187,7.7187,7.7187,7.7187,7.7187,7.7187,7.7187,7.7187,7.7773,7.9453,7.9687,0.0,8.2109,8.2304,8.2656,0.0,8.4023,8.4804,8.6094,8.6601,8.6679,8.6289,8.625,8.625,8.625,8.582,8.539,8.4961,8.4062,8.3398,8.2969,8.2539,8.2304,8.2304,8.2304,8.2304,8.2304,8.2304,8.2304,8.2304,8.2304,8.2304,8.2304,8.2304,8.2304,8.2304,8.2304,8.2304,8.2304,8.2304,8.2304,8.2304,8.2304,8.2304,8.2226,8.1797,8.1679,8.1601,8.1172,8.1054,8.1054,8.1054,8.1054,8.1054,8.1054,8.1054,8.1054,8.1054,8.1367,8.1679,8.1679,8.1992,8.2304,8.2304,8.2304,8.2304,8.2304,8.2304,8.2304,8.2304,8.1953,8.1836,8.2265,8.2304,8.2148,8.1719,8.1679,8.1484,8.1094,8.1054,8.1054,8.1054,8.1054,8.1054,8.1054,8.0625,8.039,8.039,7.9922,7.9687,7.9687,7.9687,7.9687,7.6484,7.707,7.7187,7.7187,7.7187,7.7148,7.6953,7.6914,0.0,7.668,7.6797,7.6914,7.6914,7.707,7.7187,7.7187,7.7187,7.7773,7.9453,7.9687,8.0351,0.0,8.2304,0.0,8.3789,8.4492,0.0,8.6406,8.7109,8.75,8.75,8.75,8.75,8.75,8.6836,8.6406,8.6211,8.4648,8.3789,8.3594,8.2734,8.2304,8.2304,8.2304,8.2304,8.2304,8.2304,8.2304,8.2304,8.2304,8.2304,8.2304,8.2304,8.2304,8.2304,8.2304,8.2304,8.2304,8.2304,8.2304,8.2304,8.2304,8.2304,8.2304,8.2304,8.2304,8.2304,8.2304,8.2304,8.2304,8.2304,8.2304,8.2304,8.2304,8.2304,8.2304,8.2304,8.2304,8.2304,8.2304,8.2304,8.2304,8.2304,8.2304,8.2304,8.2304,8.2304,8.2304,8.2304,8.2304,8.2304,8.2304,8.2304,8.2304,8.2304,8.2304,8.2304,8.2304,8.2304,8.2304,8.2304,8.2304,8.2304,8.2304,8.164,8.1289,8.1289,8.0586,8.0273,8.0273,8.0273,8.0273,7.5742,7.6601,7.7187,7.7187,7.7187,7.6992,7.6211,0.0,7.5781,7.5,7.5469,7.6015,7.6015,7.668,7.7187,7.7187,7.7187,7.7773,7.9453,7.9687,8.0351,8.2109,0.0,0.0,8.4609,8.4844,8.5586,8.7265,8.7461,8.75,8.75,8.75,8.75,8.75,8.7422,8.6992,8.6211,8.5273,8.4375,8.3594,8.2734,8.2304,8.2304,8.2304,8.2304,8.2304,8.2304,8.2304,0.0,8.2304,8.2304,8.2304,8.2304,8.2304,8.2304,8.2304,8.2304,8.2304,8.2304,8.2304,8.2304,8.2304,8.2304,8.2304,8.2304,8.2304,8.2304,8.2304,8.2304,8.2304,8.2304,8.2304,8.2304,8.2304,8.2304,8.2304,8.2304,8.2304,8.2304,8.2304,8.2304,8.2304,8.2304,8.2304,8.2304,8.2304,8.2304,8.2304,8.2304,8.2304,8.2304,8.2304,8.2304,8.2304,8.2304,8.2304,8.2304,8.2304,8.2304,8.2304,8.2304,8.2304,8.2304,8.2304,8.2226,8.2187,8.2187,8.2109,8.207,8.207,8.207,8.207,7.4726,7.5742,7.6289,7.5781,7.6015,7.6172,7.5312,0.0,7.5039,7.4687,7.5273,7.5898,7.5898,7.6601,7.7187,7.7187,7.7187,7.7773,7.9453,7.9687,8.0351,8.2109,8.2304,0.0,0.0,0.0,8.5625,8.7383,8.75,8.75,8.75,8.75,8.75,8.75,8.75,8.7344,8.6992,8.6133,8.5234,8.4375,8.3515,8.2812,8.2304,8.2304,8.2304,8.2304,8.2304,8.2304,0.0,8.2304,8.2304,8.2304,8.2304,8.2304,8.2304,8.2304,8.2304,8.2304,8.2304,8.2304,8.2304,8.2304,8.2304,8.2304,8.2304,8.2304,8.2304,8.2304,8.2304,8.2304,8.2304,8.2304,8.2304,8.2304,8.2304,8.2304,8.2304,8.2304,8.2304,8.2304,8.2304,8.2304,8.2304,8.2304,8.2304,8.2304,8.2304,8.2304,8.2304,8.2304,8.2304,8.2304,8.2304,8.2304,8.2304,8.2304,8.2304,8.2304,8.2304,8.2304,8.2304,8.2304,8.2304,8.2304,8.2304,8.2304,8.2304,8.2304,8.2304,8.2304,8.2304,8.2304,7.3515,7.4648,7.5351,7.4765,7.5078,7.5273,0.0,0.0,7.414,7.3867,7.4726,7.5508,7.5508,7.6445,7.7187,7.7187,7.7187,7.7773,7.9453,7.9687,8.0351,8.2109,0.0,8.2969,0.0,8.5351,8.6172,8.7422,8.75,8.75,8.75,8.75,8.75,8.75,8.75,8.75,8.75,8.664,8.5898,8.5273,8.414,8.3281,8.2695,8.2422,8.2304,8.2304,8.2304,8.2304,0.0,8.2304,8.2304,8.2304,8.2304,8.2304,8.2304,8.2304,8.2304,8.2304,8.2304,8.2304,8.2304,8.2304,8.2304,8.2304,8.2304,8.2304,8.2304,8.2304,8.2304,8.2304,8.2304,8.2304,8.2304,8.2304,8.2304,8.2304,8.2304,8.2304,8.2304,8.2304,8.2304,8.2304,8.2304,8.2304,8.2304,8.2304,8.2304,8.2304,8.2304,8.2304,8.2304,8.2304,8.2304,8.2304,8.2304,8.2304,8.2304,8.2304,8.2304,8.2304,8.2304,8.2304,8.2304,8.2304,8.2304,8.2304,8.2304,8.2304,8.2304,8.2304,8.2304,8.2304,7.2031,7.3281,7.4609,7.4609,7.4609,7.4375,0.0,7.332,7.3086,7.2187,7.3398,7.4609,7.4609,7.6015,7.7187,7.7187,7.7187,7.7773,7.9453,7.9687,8.0351,0.0,0.0,8.2969,8.4726,8.6445,8.7461,8.75,8.75,0.0,8.75,8.75,8.75,8.75,8.75,8.75,8.75,8.664,8.6211,8.6172,8.4414,8.3594,8.3554,8.2695,8.2304,8.2304,8.2304,8.2304,0.0,8.2304,8.2304,8.2304,8.2304,8.2304,8.2304,8.2304,8.2304,8.2304,8.2304,8.2304,8.2304,8.2304,8.2304,8.2304,8.2304,8.2304,8.2304,8.2304,8.2304,8.2304,8.2304,8.2304,8.2304,8.2304,8.2304,8.2304,8.2304,8.2304,8.2304,8.2304,8.2304,8.2304,8.2304,8.2304,8.2304,8.2304,8.2304,8.2304,8.2304,8.2304,8.2304,8.2304,8.2304,8.2304,8.2304,8.2304,8.2304,8.2304,8.2304,8.2304,8.2304,8.2304,8.2304,8.2304,8.2304,8.2304,8.2304,8.2304,8.2304,8.2304,8.2304,8.2304,7.0781,7.1953,7.2812,7.2812,7.3281,7.3476,7.2617,7.2422,7.2344,7.207,7.289,7.3906,7.4492,7.5547,7.6523,7.7109,7.7187,7.7773,7.9453,7.9687,0.0,8.2109,8.3359,8.4297,0.0,0.0,8.75,8.75,8.75,8.75,8.75,8.75,8.75,8.75,8.75,8.75,8.75,8.7226,8.6797,8.6172,8.5039,8.4179,8.3554,8.2695,8.2304,8.2304,8.2304,8.2304,8.2304,8.2304,8.2304,8.2304,8.2304,8.2304,8.2304,8.2304,8.2304,8.2304,8.2304,8.2304,8.2304,8.2304,8.2304,8.2304,8.2304,8.2304,8.2304,8.2304,8.2304,8.2304,8.2304,8.2304,8.2304,8.2304,8.2304,8.2304,8.2304,8.2304,8.2304,8.2304,8.2304,8.2304,8.2304,8.2304,8.2304,8.2304,8.2304,8.2304,8.2304,8.2304,8.2304,8.2304,8.2304,8.2304,8.2304,8.2304,8.2304,8.2304,8.2304,8.2304,8.2304,8.2304,8.2304,8.2304,8.2304,8.2304,8.2304,8.2304,8.2304,8.2304,8.2304,8.2304,6.9375,7.0625,7.1523,7.1523,7.2148,7.2656,7.2109,7.1992,7.1992,7.1992,7.2695,7.3555,7.4453,7.5312,7.6172,7.707,7.7187,7.7773,7.9453,7.9687,0.0,8.2109,0.0,0.0,0.0,8.6484,8.75,8.75,8.75,8.75,8.75,8.75,8.75,8.75,8.75,8.75,8.75,8.75,8.7226,8.6679,8.582,8.4922,8.4062,8.3203,8.2617,8.2304,8.2304,8.2304,0.0,8.2304,8.2304,8.2304,8.2304,8.2304,8.2304,8.2304,8.2304,8.2304,8.2304,8.2304,8.2304,8.2304,8.2304,8.2304,8.2304,8.2304,8.2304,8.2304,8.2304,8.2304,8.2304,8.2304,8.2304,8.2304,8.2304,8.2304,8.2304,8.2304,8.2304,8.2304,8.2304,8.2304,8.2304,8.2304,8.2304,8.2304,8.2304,8.2304,8.2304,8.2304,8.2304,8.2304,8.2304,8.2304,8.2304,8.2304,8.2304,8.2304,8.2304,8.2304,8.2304,8.2304,8.2304,8.2304,8.2304,8.2304,8.2304,8.2304,8.2304,8.2304,8.2304,8.2304,0.0,6.9297,7.0547,7.0664,7.1328,7.1914,7.1992,7.1992,0.0,7.1992,7.2695,7.3555,7.4453,7.5312,7.6172,7.707,7.7148,7.7695,7.9453,7.9805,0.0,0.0,8.3828,0.0,8.4883,8.6484,8.75,8.75,8.75,8.75,8.75,8.75,8.75,8.75,8.75,8.75,8.75,8.75,8.75,8.75,8.6601,8.5742,8.4883,8.3984,8.3125,0.0,8.2304,8.2304,8.2304,8.2304,8.2304,8.2304,8.2304,8.2304,8.2304,8.2304,8.2304,8.2304,8.2304,8.2304,8.2304,8.2304,8.2304,8.2304,8.2304,8.2304,8.2304,8.2304,8.2304,8.2304,8.2304,8.2304,8.2304,8.2304,8.2304,8.2304,8.2304,8.2304,8.2304,8.2304,8.2304,8.2304,8.2304,8.2304,8.2304,8.2304,8.2304,8.2304,8.2304,8.2304,8.2304,8.2304,8.2304,8.2304,8.2304,8.2304,8.2304,8.2304,8.2304,8.2304,8.2304,8.2304,8.2304,8.2304,8.2304,8.2304,8.2304,8.2304,8.2344,8.2383,8.2383,8.2422,6.7148,0.0,6.9101,7.039,7.0859,7.1172,0.0,7.1992,7.1992,7.1992,7.2695,7.3555,7.4453,7.5312,7.6172,7.707,7.664,7.7031,7.9375,8.0859,0.0,8.2265,8.3828,8.4883,8.4883,8.6484,8.75,8.75,8.75,8.75,8.75,8.75,8.75,8.75,8.75,8.75,8.75,8.75,8.75,8.75,8.6601,8.5742,8.4883,8.3984,8.3125,8.2304,8.2304,8.2304,8.2304,8.2304,8.2304,8.2304,8.2304,8.2304,8.2304,8.2304,8.2304,8.2304,8.2304,8.2304,8.2304,8.2304,8.2304,8.2304,8.2304,8.2304,8.2304,8.2304,8.2304,8.2304,8.2304,8.2304,8.2304,8.2304,8.2304,8.2304,8.2304,8.2304,8.2304,8.2304,8.2304,8.2304,8.2304,8.2304,8.2304,8.2304,8.2304,8.2304,8.2304,8.2304,8.2304,8.2304,8.2304,8.2304,8.2304,8.2304,8.2304,8.2304,8.2304,8.2304,8.2304,8.2304,8.2304,8.2304,8.2304,8.2304,8.2304,8.2304,8.2656,8.3281,8.3281,8.3633,6.6914,6.7539,6.8515,6.9765,7.039,7.0937,7.1797,7.1992,7.1992,7.1992,7.2695,7.3555,7.4453,7.5312,7.6172,7.707,7.6797,7.7265,7.9414,8.1211,8.2304,8.2304,8.3476,8.4453,0.0,8.6133,8.707,8.7461,8.75,8.75,8.75,8.75,8.75,8.75,8.75,8.75,8.75,8.75,8.75,8.75,8.7031,8.6328,8.5469,8.4609,8.3711,8.2851,8.2461,8.2304,8.2304,8.2304,8.2304,8.2304,8.2304,8.2304,8.2304,8.2304,8.2304,8.2304,8.2304,8.2304,8.2304,8.2304,8.2304,8.2304,8.2304,8.2304,8.2304,8.2304,8.2304,8.2304,8.2304,8.2304,8.2304,8.2304,8.2304,8.2304,8.2304,8.2304,8.2304,8.2304,8.2304,8.2304,8.2304,8.2304,8.2304,8.2304,8.2304,8.2304,8.2304,8.2304,8.2304,8.2304,8.2304,8.2304,8.2304,8.2304,8.2304,8.2304,8.2304,8.2304,8.2304,8.2304,8.2304,8.2304,8.2304,8.2304,8.2304,8.2304,8.2734,8.3594,8.3594,8.4062,6.6914,6.7422,6.8242,6.918,6.9961,7.0781,7.1758,7.1992,7.2031,7.2187,7.289,7.375,7.4648,7.5508,7.6328,7.707,7.7422,7.8047,7.9336,8.1133,8.2304,8.2304,8.3086,0.0,8.4804,8.5703,8.6562,8.7422,8.75,8.75,8.75,8.75,8.75,8.75,8.75,8.75,8.75,8.75,8.75,8.75,8.75,8.7031,8.6172,8.5312,8.4414,8.3554,0.0,0.0,8.2304,8.2304,8.2304,8.2304,8.2304,8.2304,8.2304,8.2304,8.2304,8.2304,8.2304,8.2304,8.2304,8.2304,8.2304,8.2304,8.2304,8.2304,8.2304,8.2304,8.2304,8.2304,8.2304,8.2304,8.2304,8.2304,8.2304,8.2304,8.2304,8.2304,8.2304,8.2304,8.2304,8.2304,8.2304,8.2304,8.2304,8.2304,8.2304,8.2304,8.2304,8.2304,8.2304,8.2304,8.2304,8.2304,8.2304,8.2265,8.2264,8.2264,8.2304,8.2304,8.2304,8.2304,8.2304,8.2304,8.2304,8.2304,8.2304,8.2304,8.2812,8.3789,8.3789,8.4336,6.6914,6.6992,6.7461,6.9101,6.9609,7.0078,7.164,7.1992,7.2226,7.2969,7.3789,7.4687,7.5547,7.6406,7.7031,7.7187,7.8398,7.918,7.875,0.0,8.2304,8.2304,0.0,8.3945,8.4804,8.5703,8.6562,8.7422,8.75,8.75,8.75,8.75,8.75,8.75,8.75,8.75,8.75,8.75,8.75,8.75,8.75,8.7031,8.6172,8.5312,8.4414,8.3554,0.0,8.2304,8.2304,8.2304,8.2304,8.2304,8.2304,8.2304,8.2304,8.2304,8.2304,8.2304,8.2304,8.2304,8.2304,8.2304,8.2304,8.2304,8.2304,8.2304,8.2304,8.2304,8.2304,8.2304,8.2304,8.2304,8.2304,8.2304,8.2304,8.2304,8.2304,8.2304,8.2304,8.2304,8.2304,8.2304,8.2304,8.2304,8.2304,8.2304,8.2304,8.2304,8.2304,8.2304,8.2304,8.2304,8.2304,8.2304,8.2304,8.2212,8.2111,8.2111,8.2221,8.2304,8.2304,8.2304,8.2304,8.2304,8.2304,8.2304,8.2304,8.2304,8.3125,8.4687,8.4687,8.5547,6.6914,6.6914,6.7305,6.9062,6.9492,6.9922,7.1601,7.1992,7.2265,7.3125,7.3984,7.4883,7.5742,7.6601,7.7187,7.7187,7.8594,7.957,7.9219,8.0976,8.2304,0.0,0.0,8.3242,8.4101,8.457,8.5351,8.6719,8.6797,8.6992,8.7461,8.75,8.75,8.75,8.75,8.75,8.75,8.75,8.75,8.75,8.75,8.7304,8.6875,8.5508,8.4687,8.4219,0.0,8.2304,8.2304,8.2304,8.2304,8.2304,8.2304,8.2304,8.2304,8.2304,8.2304,8.2304,8.2304,8.2304,8.2304,8.2304,8.2304,8.2304,8.2304,8.2304,8.2304,8.2304,8.2304,8.2304,8.2304,8.2304,8.2304,8.2304,8.2304,8.2304,8.2304,8.2304,8.2304,8.2304,8.2304,8.2304,8.2304,8.2304,8.2265,8.2215,8.2172,8.2165,8.2095,8.209,8.209,8.209,8.209,8.209,8.209,8.2017,8.2185,8.265,8.273,8.2984,8.3451,8.3023,8.2789,8.2789,8.2324,8.209,8.209,8.209,8.2988,8.4666,8.4666,8.5603,6.6914,6.6914,6.7305,6.9062,6.9492,6.9922,7.1601,7.2148,7.2539,7.3437,7.4297,7.5156,7.6055,7.6758,7.7187,7.7187,7.8594,7.9687,7.9687,8.1171,8.2263,8.2263,8.2219,8.257,8.3473,8.3552,8.4217,8.5781,8.6094,8.6484,8.7148,8.7383,8.75,8.75,8.75,8.75,8.75,8.75,8.75,8.75,8.75,8.75,8.7422,8.5703,8.4883,8.4804,8.3047,8.2304,8.2304,8.2304,8.2304,8.2304,8.2304,8.2304,8.2304,8.2304,8.2304,8.2304,8.2304,8.2304,8.2304,8.2304,8.2304,8.2304,8.2304,8.2304,8.2304,8.2304,8.2304,8.2304,8.2304,8.2304,8.2304,8.2304,8.2304,8.2304,8.2304,8.2304,8.2304,8.2304,8.2265,8.2263,8.2263,8.222,8.2167,8.2081,8.2033,8.2008,8.1924,8.1912,8.1912,8.1912,8.1912,8.1974,8.2136,8.2171,8.2582,8.363,8.358,8.3809,8.4468,8.3848,8.3422,8.3189,8.2529,8.2104,8.1912,8.2104,8.3,8.4481,8.4676,8.5572,6.6914,6.6914,6.7305,6.9062,6.9453,6.9844,7.1601,7.2617,7.3437,7.4336,7.5195,7.6055,7.6953,7.7148,7.7187,7.7187,7.8594,7.9687,7.9687,8.1079,8.2104,8.2104,8.2001,8.2333,8.331,8.3394,8.3845,8.4922,8.5742,8.6211,8.6289,8.707,8.75,8.75,8.75,8.75,8.75,8.75,8.75,8.75,8.75,8.75,8.7422,8.5703,8.4883,8.4804,8.3047,8.2304,8.2304,8.2304,8.2304,8.2304,8.2304,8.2304,8.2304,8.2304,8.2304,8.2304,8.2304,8.2304,8.2304,8.2304,8.2304,8.2304,8.2304,8.2304,8.2304,8.2304,8.2304,8.2304,8.2304,8.2304,8.2304,8.2304,8.2304,8.2304,8.2304,8.2304,8.2304,8.2304,8.2214,8.2104,8.2104,8.2006,8.1936,8.1927,8.1924,8.1921,8.1912,8.1912,8.1912,8.1912,8.1912,8.2168,8.2853,8.2917,8.3571,8.5055,8.4691,8.4429,8.4507,8.4429,8.4043,8.3228,8.315,8.2724,8.1912,8.2724,8.3582,8.452,8.5257,8.6114,6.6914,6.7222,6.7878,6.914,7.0152,7.1238,7.2539,7.3047,7.3711,7.5117,7.5664,7.6172,7.7031,7.7143,7.7091,7.7091,7.8432,7.9496,7.9496,8.0911,8.1977,8.1977,8.1939,8.2047,8.2443,8.2538,8.2968,8.3885,8.4333,8.4804,8.5351,8.6211,8.6679,8.6679,8.7226,8.75,8.75,8.75,8.75,8.75,8.75,8.75,8.7461,8.625,8.539,8.4844,8.3633,8.2812,8.2304,8.2304,8.2304,8.2304,8.2304,8.2304,8.2304,8.2304,8.2304,8.2304,8.2304,8.2261,8.2171,8.2264,8.2171,8.209,8.2262,8.2222,8.2168,8.2168,8.2168,8.2173,8.2265,8.2304,8.2304,8.2304,8.2304,8.2265,8.2173,8.2168,8.2159,8.2081,8.2006,8.1977,8.1977,8.1942,8.188,8.1781,8.1765,8.1761,8.1674,8.1659,8.1659,8.1659,8.2125,8.2559,8.2859,8.3811,8.466,8.5262,8.5124,8.5258,8.5801,8.5297,8.4831,8.4526,8.4021,8.36,8.3289,8.36,8.4182,8.4997,8.5302,8.5923,6.6832,6.7403,6.8208,6.9133,7.0614,7.217,7.3352,7.3905,7.4453,7.5582,7.605,7.6438,7.6975,7.7037,7.6977,7.6954,7.8338,7.9418,7.9418,8.0822,8.1842,8.1842,8.1797,8.1785,8.1838,8.1964,8.2306,8.2955,8.3342,8.3784,8.4409,8.5221,8.5801,8.6073,8.666,8.7088,8.7323,8.7323,8.7323,8.7323,8.7323,8.7413,8.7461,8.6601,8.5703,8.4844,8.3943,8.3042,8.2221,8.2172,8.2168,8.2168,8.2168,8.2168,8.2168,8.2168,8.2168,8.2168,8.2168,8.2104,8.2031,8.2157,8.2031,8.1945,8.2107,8.2103,8.2021,8.2021,8.2021,8.2074,8.2159,8.2168,8.2168,8.2168,8.2168,8.2159,8.2074,8.2021,8.2004,8.1927,8.1877,8.1842,8.1842,8.1801,8.1723,8.1659,8.1633,8.1619,8.1522,8.1497,8.1613,8.189,8.2432,8.3018,8.3554,8.4637,8.541,8.5681,8.572,8.5991,8.6564,8.6029,8.5565,8.5294,8.4753,8.4366,8.4095,8.4366,8.4753,8.5294,8.5565,8.6029,6.6718,6.7343,6.8203,6.9063,7.0654,7.2459,7.4027,7.5184,7.5858,7.5746,7.6397,7.6961,7.6824,7.6891,7.6958,7.6822,7.8243,7.9376,7.9415,8.0723,8.1694,8.1694,8.1575,8.1562,8.1675,8.182,8.1959,8.209,8.2916,8.3386,8.3386,8.4088,8.4883,8.5734,8.5773,8.616,8.6975,8.6975,8.6975,8.7014,8.7014,8.7174,8.7461,8.6601,8.5742,8.4843,8.3841,8.2916,8.209,8.1961,8.1912,8.1912,8.1912,8.1912,8.1912,8.1912,8.1912,8.1912,8.1912,8.1909,8.1909,8.1909,8.1909,8.1909,8.1909,8.1909,8.1909,8.1909,8.1909,8.1909,8.1906,8.1906,8.1909,8.1909,8.1912,8.1909,8.1909,8.1909,8.1909,8.1906,8.1785,8.1694,8.1694,8.1591,8.1497,8.1497,8.1497,8.1497,8.1497,8.1497,8.1845,8.2709,8.2825,8.3483,8.5178,8.5294,8.5681,8.6564,8.6603,8.6603,8.6603,8.6603,8.6177,8.5333,8.5294,8.4908,8.414,8.4908,8.5294,8.5333,8.6177,8.6603,6.6832,6.7809,6.8873,6.9204,7.1415,7.3603,7.4153,7.5126,7.6053,7.6527,7.6745,7.6846,7.681,7.6758,7.6703,7.6653,7.7514,7.8432,7.9047,7.9997,8.0882,8.1496,8.1508,8.1528,8.1567,8.1665,8.1765,8.1816,8.2149,8.2357,8.2357,8.3145,8.3711,8.3942,8.4569,8.5309,8.616,8.616,8.6433,8.7014,8.7014,8.7055,8.7121,8.6887,8.63,8.5398,8.4551,8.3677,8.2814,8.2158,8.1912,8.1912,8.1912,8.1912,8.1912,8.1912,8.1912,8.1912,8.1912,8.1845,8.1765,8.188,8.1761,8.1664,8.1849,8.1838,8.1744,8.1744,8.1744,8.1753,8.1644,8.1602,8.1684,8.1863,8.1912,8.1883,8.1773,8.1744,8.1744,8.1633,8.1586,8.1573,8.1573,8.1508,8.1497,8.1497,8.1497,8.1497,8.1497,8.1497,8.1845,8.2709,8.3367,8.4134,8.5217,8.5875,8.6332,8.6564,8.6603,8.6603,8.6603,8.6603,8.6487,8.6223,8.6216,8.6107,8.5875,8.6107,8.6216,8.6223,8.6487,8.6603,6.7134,6.8103,6.9107,6.9533,7.1932,7.4329,7.5072,7.5703,7.6285,7.6737,7.678,7.6703,7.6638,7.6631,7.6578,7.6541,7.7191,7.7867,7.8409,7.9453,8.0376,8.0917,8.1304,8.1497,8.1497,8.1607,8.1698,8.1698,8.1765,8.1823,8.1823,8.2266,8.2699,8.3049,8.3559,8.4259,8.5109,8.5459,8.5844,8.6344,8.6694,8.685,8.6854,8.6957,8.6504,8.564,8.4415,8.3571,8.2958,8.2107,8.1757,8.1757,8.1757,8.1757,8.1757,8.1757,8.1757,8.1757,8.1757,8.1665,8.1596,8.1689,8.1575,8.144,8.1625,8.1625,8.1569,8.1547,8.1558,8.1575,8.1466,8.1414,8.1471,8.1665,8.1705,8.1721,8.1607,8.1591,8.1602,8.1528,8.1497,8.1497,8.1497,8.1497,8.1497,8.1497,8.1497,8.1497,8.1497,8.1807,8.2355,8.3212,8.4057,8.4908,8.5759,8.63,8.6603,8.6603,8.6603,8.6603,8.6603,8.6603,8.6603,8.6603,8.6603,8.6603,8.6603,8.6603,8.6603,8.6603,8.6603,8.6603,6.7497,6.8299,6.9107,6.9966,7.2203,7.4622,7.6378,7.6657,7.6578,7.66,7.6591,7.6526,7.6405,7.6496,7.6522,7.6438,7.7061,7.7597,7.7674,7.9028,8.0027,8.0182,8.0917,8.142,8.1497,8.163,8.167,8.167,8.167,8.167,8.167,8.1585,8.1845,8.267,8.267,8.3096,8.3979,8.4714,8.5101,8.5217,8.6068,8.6487,8.6507,8.6825,8.6501,8.5556,8.3921,8.3065,8.2748,8.1968,8.1575,8.1497,8.1497,8.1491,8.1491,8.1491,8.1485,8.1478,8.1478,8.144,8.1387,8.1387,8.134,8.1284,8.1284,8.1333,8.1374,8.1305,8.1333,8.1374,8.1305,8.1284,8.1305,8.136,8.1427,8.1466,8.14,8.1433,8.1478,8.1478,8.1478,8.1478,8.1485,8.1491,8.1491,8.1497,8.1497,8.1536,8.1613,8.2316,8.3173,8.4095,8.4869,8.5643,8.6526,8.6603,8.6603,8.6603,8.6603,8.6603,8.6603,8.6603,8.6603,8.6603,8.6603,8.6603,8.6603,8.6603,8.6603,8.6603,8.6603,8.6603,6.7598,6.8281,6.905,6.9904,7.2037,7.433,7.6077,7.6438,7.6394,7.6564,7.6521,7.6422,7.6415,7.6405,7.6422,7.6409,7.6558,7.6906,7.7597,7.8022,7.8718,8.0034,8.0376,8.0762,8.142,8.1508,8.1544,8.1544,8.1544,8.1544,8.1544,8.1528,8.1575,8.1768,8.1768,8.22,8.3057,8.3251,8.367,8.4366,8.5178,8.5565,8.5604,8.6344,8.6198,8.534,8.4976,8.403,8.2786,8.2593,8.2122,8.1497,8.1497,8.1466,8.142,8.142,8.138,8.1333,8.1333,8.1326,8.1312,8.1312,8.1298,8.1284,8.1284,8.1298,8.1305,8.1291,8.1298,8.1305,8.1291,8.1284,8.1277,8.1234,8.1284,8.1333,8.1312,8.1326,8.1333,8.1333,8.1333,8.1353,8.1407,8.142,8.144,8.1491,8.1497,8.1729,8.2432,8.267,8.3367,8.4869,8.5217,8.5643,8.6526,8.6603,8.6603,8.6603,8.6603,8.6603,8.6603,8.6603,8.6603,8.6603,8.6603,8.6603,8.6603,8.6603,8.6603,8.6603,8.6603,8.6603,6.7472,6.8196,6.9231,7.1296,7.2788,7.4217,7.5915,7.6276,7.6262,7.6383,7.6382,7.6362,7.6397,7.6403,7.6392,7.6362,7.6356,7.6511,7.6974,7.74,7.7986,7.8906,7.9724,8.0376,8.084,8.1265,8.1497,8.1497,8.1497,8.1497,8.1497,8.1466,8.1446,8.1446,8.1446,8.1665,8.2064,8.2529,8.2947,8.3378,8.4189,8.4807,8.5232,8.6189,8.6332,8.5907,8.5455,8.4745,8.3888,8.3043,8.2444,8.198,8.1555,8.138,8.1347,8.1347,8.1319,8.1284,8.1284,8.1263,8.1234,8.1234,8.1244,8.1214,8.1214,8.1244,8.1266,8.1229,8.1244,8.1227,8.1229,8.1214,8.1207,8.1162,8.1244,8.1277,8.1241,8.1263,8.1284,8.1284,8.1284,8.1298,8.134,8.1347,8.136,8.1394,8.14,8.1568,8.2071,8.2812,8.3676,8.4637,8.5449,8.6107,8.6564,8.6603,8.6603,8.6603,8.6603,8.6603,8.6603,8.6603,8.6603,8.6603,8.6603,8.6603,8.6603,8.6603,8.6603,8.6603,8.6603,8.6603,6.7341,6.8214,6.9699,7.2874,7.3671,7.4134,7.5806,7.6185,7.6179,7.6192,7.6244,7.6301,7.6356,7.6368,7.635,7.6295,7.6282,7.6282,7.6282,7.69,7.7428,7.7638,7.8881,7.9842,8.0151,8.0808,8.1311,8.1466,8.1466,8.1466,8.1466,8.1407,8.138,8.138,8.138,8.1347,8.1284,8.2048,8.2435,8.241,8.3189,8.4038,8.4925,8.5896,8.6415,8.6531,8.5734,8.5327,8.5088,8.3635,8.2873,8.2526,8.1831,8.1431,8.127,8.127,8.1263,8.1287,8.1287,8.1244,8.1192,8.1192,8.1147,8.1093,8.1093,8.1139,8.1177,8.1108,8.1139,8.1177,8.1108,8.1093,8.1093,8.1093,8.1192,8.1234,8.1207,8.1244,8.1287,8.1287,8.1256,8.127,8.127,8.1277,8.1284,8.1284,8.1284,8.1389,8.156,8.281,8.3764,8.4017,8.5409,8.6337,8.6337,8.6505,8.659,8.659,8.6603,8.6603,8.6603,8.6603,8.6603,8.6603,8.6603,8.6603,8.6603,8.6603,8.6603,8.6603,8.6603,8.6603,6.7491,6.8684,7.0367,7.2964,7.3599,7.4082,7.5793,7.6152,7.6125,7.6185,7.6198,7.6212,7.6225,7.6225,7.6218,7.6212,7.6205,7.6205,7.6205,7.6327,7.6681,7.7428,7.7704,7.8431,7.9891,8.0123,8.0509,8.128,8.1319,8.1319,8.1319,8.1305,8.1305,8.1305,8.1305,8.1298,8.1284,8.1414,8.1491,8.1477,8.2333,8.3182,8.3999,8.4901,8.5719,8.6414,8.6283,8.582,8.5087,8.4841,8.3915,8.2603,8.2487,8.1943,8.1229,8.1229,8.1184,8.1124,8.1124,8.1116,8.1108,8.1108,8.11,8.1093,8.1093,8.11,8.1108,8.1093,8.11,8.1108,8.1093,8.1093,8.1093,8.1093,8.1108,8.1124,8.1108,8.1116,8.1124,8.1124,8.1184,8.1229,8.1229,8.1241,8.1284,8.1284,8.1284,8.1561,8.2347,8.2656,8.3049,8.3758,8.4723,8.5294,8.5294,8.6054,8.6514,8.6514,8.6576,8.6603,8.6603,8.6603,8.6603,8.6603,8.6603,8.6603,8.6603,8.6603,8.6603,8.6603,8.6603,8.6603,6.7913,6.8674,6.9764,7.2204,7.3178,7.3878,7.5068,7.5702,7.6041,7.6069,7.6076,7.6097,7.6179,7.6192,7.6185,7.6145,7.6138,7.6138,7.6138,7.6138,7.6313,7.6739,7.7208,7.7787,7.852,7.9439,8.0165,8.0551,8.1014,8.1284,8.1284,8.1249,8.1227,8.1227,8.1227,8.1244,8.1199,8.1244,8.1244,8.1199,8.2047,8.2625,8.2979,8.3865,8.4797,8.5682,8.6107,8.6084,8.5699,8.5183,8.4543,8.3772,8.2817,8.2178,8.1762,8.1301,8.1124,8.1093,8.1093,8.1093,8.1093,8.1093,8.1093,8.1093,8.1093,8.1093,8.1093,8.1093,8.1093,8.1093,8.1093,8.1093,8.1093,8.1093,8.1093,8.1093,8.1093,8.1093,8.1093,8.1093,8.1124,8.1147,8.1147,8.1177,8.1199,8.1199,8.1199,8.133,8.1759,8.2229,8.263,8.3066,8.4301,8.5111,8.5111,8.5912,8.6457,8.65,8.6493,8.65,8.6549,8.6549,8.6549,8.6549,8.659,8.6603,8.6603,8.6603,8.6603,8.6603,8.6603,8.6603,6.7982,6.8449,6.9146,7.1344,7.2528,7.3437,7.4469,7.5207,7.5745,7.5938,7.6015,7.6012,7.6118,7.6138,7.6125,7.6076,7.6062,7.6062,7.6062,7.6062,7.6083,7.6131,7.673,7.7193,7.7424,7.8574,7.9499,7.9916,8.0533,8.1034,8.1234,8.1214,8.1184,8.1184,8.1184,8.1154,8.1093,8.1154,8.1154,8.1093,8.1708,8.2016,8.2016,8.287,8.3664,8.4427,8.5452,8.5998,8.6106,8.5464,8.5085,8.4739,8.3208,8.2516,8.2208,8.14,8.1093,8.1093,8.1093,8.1093,8.1093,8.1093,8.1093,8.1093,8.1093,8.1093,8.1093,8.1093,8.1093,8.1093,8.1093,8.1093,8.1093,8.1093,8.1093,8.1093,8.1093,8.1093,8.1093,8.1093,8.1093,8.1093,8.1093,8.1093,8.1093,8.1093,8.1093,8.1116,8.1177,8.1685,8.2093,8.2229,8.3509,8.4473,8.4704,8.5529,8.6145,8.6404,8.6406,8.6406,8.6472,8.6472,8.6472,8.6472,8.6528,8.6569,8.6603,8.6603,8.6603,8.6603,8.6603,8.6603,6.7253,6.8021,6.8998,7.0664,7.1684,7.2668,7.4315,7.4738,7.5007,7.5822,7.6015,7.6015,7.6022,7.6029,7.6022,7.6022,7.6022,7.6022,7.6022,7.6022,7.6022,7.6029,7.6068,7.6414,7.7222,7.7376,7.8107,7.9677,7.9831,8.0254,8.107,8.11,8.11,8.11,8.11,8.1093,8.1093,8.1093,8.1093,8.1093,8.1131,8.117,8.1208,8.2016,8.2408,8.2532,8.4217,8.5401,8.6094,8.6055,8.5593,8.4816,8.3901,8.3024,8.2208,8.14,8.1093,8.1093,8.1093,8.1093,8.1093,8.1093,8.1093,8.1093,8.1093,8.1093,8.1093,8.1093,8.1093,8.1093,8.1093,8.1093,8.1093,8.1093,8.1093,8.1093,8.1093,8.1093,8.1093,8.1093,8.1093,8.1093,8.1093,8.1093,8.1093,8.1093,8.1093,8.1093,8.11,8.1139,8.1177,8.1185,8.1955,8.2763,8.3609,8.4535,8.5383,8.6161,8.6346,8.6384,8.643,8.643,8.643,8.643,8.6391,8.6464,8.6603,8.6603,8.6603,8.6603,8.6603,8.6603,6.7219,6.8011,6.8936,6.999,7.1255,7.2422,7.299,7.3937,7.4776,7.5091,7.563,7.6015,7.6015,7.6015,7.6015,7.6015,7.6015,7.6015,7.6015,7.6015,7.6015,7.6015,7.6015,7.613,7.6438,7.6984,7.7561,7.813,7.9208,7.9931,8.0246,8.0785,8.1093,8.1093,8.1093,8.1093,8.1093,8.1093,8.1093,8.1093,8.1093,8.1093,8.1093,8.14,8.1823,8.2324,8.2978,8.4016,8.5316,8.5316,8.5478,8.5593,8.4747,8.3901,8.3024,8.217,8.1554,8.1093,8.1093,8.1093,8.1093,8.1093,8.1093,8.1093,8.1093,8.1093,8.1093,8.1093,8.1093,8.1093,8.1093,8.1093,8.1093,8.1093,8.1093,8.1093,8.1093,8.1093,8.1093,8.1093,8.1093,8.1093,8.1093,8.1093,8.1093,8.1093,8.1093,8.1093,8.1093,8.1093,8.1093,8.1093,8.1823,8.2439,8.2747,8.4087,8.5089,8.5414,8.5929,8.6245,8.6269,8.6269,8.6269,8.6269,8.6354,8.6406,8.6464,8.6514,8.6542,8.6542,8.6583,8.6603,6.6871,6.7619,6.8436,6.9242,7.0459,7.1608,7.21,7.3074,7.4014,7.4584,7.5168,7.5668,7.5938,7.6015,7.6015,7.6015,7.6015,7.6015,7.6015,7.6015,7.6015,7.6015,7.6015,7.6015,7.6015,7.6515,7.6984,7.7292,7.8323,7.9208,7.9777,8.0362,8.0785,8.1093,8.1093,8.1093,8.1093,8.1093,8.1093,8.1093,8.1093,8.1093,8.1093,8.1093,8.14,8.19,8.19,8.2862,8.4478,8.4786,8.5201,8.5632,8.5132,8.4555,8.3901,8.2708,8.1939,8.1477,8.1208,8.1093,8.1093,8.1093,8.1093,8.1093,8.1093,8.1093,8.1093,8.1093,8.1093,8.1093,8.1093,8.1093,8.1093,8.1093,8.1093,8.1093,8.1093,8.1093,8.1093,8.1093,8.1093,8.1093,8.1093,8.1093,8.1093,8.1093,8.1093,8.1093,8.1093,8.1093,8.1093,8.1093,8.1593,8.2016,8.2285,8.3632,8.4618,8.4943,8.5665,8.6118,8.6145,8.6183,8.6183,8.6183,8.6238,8.63,8.63,8.6414,8.6464,8.6464,8.6514,8.6535,0.0,0.0,0.0,6.8491,6.9248,7.0234,7.1891,7.2223,7.2675,7.4284,7.4661,7.4969,7.5822,7.5976,7.6015,7.6015,7.6015,7.6015,7.6015,7.6015,7.6015,7.6015,7.6015,7.6015,7.6015,7.6015,7.6361,7.7215,7.7292,7.8015,7.9623,7.9777,8.0208,8.1054,8.1093,8.1093,8.1093,8.1093,8.1093,8.1093,8.1093,8.1093,8.1093,8.1093,8.1093,8.1093,8.1093,8.2016,8.3601,8.4478,8.4854,8.4893,8.4893,8.4893,8.47,8.3016,8.2324,8.217,8.14,8.1131,8.1093,8.1093,8.1093,8.1093,8.1093,8.1093,8.1093,8.1093,8.1093,8.1093,8.1093,8.1093,8.1093,8.1093,8.1093,8.1093,8.1093,8.1093,8.1093,8.1093,8.1093,8.1093,8.1093,8.1093,8.1093,8.1093,8.1093,8.1093,8.1093,8.1093,8.1093,8.1093,8.1093,8.14,8.2208,8.3062,8.3939,8.4816,8.5632,8.6094,8.6094,8.6094,8.6094,8.6094,8.6094,8.6094,8.6094,8.63,8.6376,8.6376,8.6415,8.6384,6.6185,0.0,0.0,0.0,0.0,0.0,7.114,7.1839,7.239,7.2797,7.386,7.4776,7.5007,7.5553,7.6015,7.6015,7.6015,7.6015,7.6015,7.6015,7.6015,7.6015,7.6015,7.6015,7.6015,7.6015,7.6092,0.0,7.6938,7.7484,7.7977,7.9131,8.0208,8.1054,8.1093,8.1093,8.1093,8.1093,8.1093,8.1093,8.1093,8.1093,8.1093,8.1093,8.1093,8.1093,8.1093,8.1362,8.1862,8.267,8.3747,8.4893,8.4893,8.4893,8.4854,8.4354,8.3362,8.2285,8.2054,8.1593,8.1093,8.1093,8.1093,8.1093,8.1093,8.1093,8.1093,8.1093,8.1093,8.1093,8.1093,8.1093,8.1093,8.1093,8.1093,8.1093,8.1093,8.1093,8.1093,8.1093,8.1093,8.1093,8.1093,8.1093,8.1093,8.1093,8.1093,8.1093,8.1093,8.1093,8.1093,8.1093,8.1093,8.1208,8.14,8.217,8.3016,8.3909,8.4747,8.547,8.6094,8.6094,8.6094,8.6094,8.6094,8.6094,8.6094,8.6207,8.6262,8.6262,8.6354,8.6384,0.0,0.0,0.0,0.0,0.0,0.0,7.0367,7.1159,7.1839,7.2184,7.2997,7.386,7.4584,7.513,7.5592,7.5938,7.6015,7.6015,7.6015,7.6015,7.6015,7.6015,7.6015,7.6015,7.6015,7.6015,7.6015,7.6015,7.6476,7.6907,7.7292,7.89,8.0046,8.0554,8.09,8.1093,8.1093,8.1093,8.1093,8.1093,8.1093,8.1093,8.1093,8.1093,8.1093,8.1093,8.1093,8.1093,8.1131,8.1593,8.2593,8.3862,8.4209,8.4593,8.4854,8.4478,8.3939,8.3324,8.2978,8.2285,8.1593,8.1593,8.1362,8.1093,8.1093,8.1093,8.1093,8.1093,8.1093,8.1093,8.1093,8.1093,8.1093,8.1093,8.1093,8.1093,8.1093,8.1093,8.1093,8.1093,8.1093,8.1093,8.1093,8.1093,8.1093,8.1093,8.1093,8.1093,8.1093,8.1093,8.1093,8.1093,8.1093,8.1093,8.1093,8.1823,8.2516,8.3024,8.4209,8.5124,8.5593,8.594,8.6094,8.6094,8.6094,8.6094,8.6094,8.6143,8.6175,8.6175,8.6261,8.6277,0.0,0.0,0.0,0.0,0.0,0.0,6.9843,7.0559,7.1242,7.2006,7.2184,7.2675,7.4168,7.4507,7.4853,7.5707,7.5861,7.5899,7.5976,7.6015,7.6015,7.6015,7.6015,7.6015,7.6015,7.6015,7.6015,7.6015,7.6015,7.6361,7.7253,7.8707,7.9623,7.9777,8.0554,8.1016,8.1093,8.1093,8.1093,8.1093,8.1093,8.1093,8.1093,8.1093,8.1093,8.1093,8.1093,8.1093,8.1093,8.1093,8.1554,8.2362,8.3139,8.4055,8.4816,8.4016,8.4247,8.4786,8.4016,8.3178,8.2439,8.2439,8.19,8.1246,8.1246,8.117,8.1093,8.1093,8.1093,8.1093,8.1093,8.1093,8.1093,8.1093,8.1093,8.1093,8.1093,8.1093,8.1093,8.1093,8.1093,8.1093,8.1093,8.1093,8.1093,8.1093,8.1093,8.1093,8.1093,8.1093,8.1093,8.1093,8.1093,8.1093,8.1093,8.1747,8.2208,8.2285,8.3747,8.47,8.4893,8.5593,8.6017,8.6094,8.6094,8.6094,8.6094,8.6094,8.6094,8.6094,8.6094,8.6094,0.0,0.0,0.0,0.0,0.0,0.0,7.0633,7.1026,7.1107,7.1242,7.1761,7.229,7.2629,7.3245,7.4007,7.4815,7.493,7.5207,7.5899,7.6015,7.6015,7.6015,7.6015,7.6015,7.6015,7.6015,7.6015,7.6015,7.6015,7.6361,7.7253,7.7599,7.84,7.9738,7.9969,8.04,8.1093,8.1093,8.1093,8.1093,8.1093,8.1093,8.1093,8.1093,8.1093,8.1093,8.1093,8.1093,8.1093,8.1093,8.1554,8.2324,8.2477,8.3516,8.4893,8.4709,8.4739,8.4901,8.4709,8.4093,8.337,8.337,8.2755,8.2054,8.2054,8.1593,8.1093,8.1093,8.1093,8.1093,8.1093,8.1093,8.1093,8.1093,8.1093,8.1093,8.1093,8.1093,8.1093,8.1093,8.1093,8.1093,8.1093,8.1093,8.1093,8.1093,8.1093,8.1093,8.1093,8.1093,8.1093,8.1093,8.1093,8.1093,8.1093,8.1246,8.1593,8.2247,8.2631,8.3439,8.4854,8.5047,8.5431,8.6094,8.6094,8.6094,8.6094,8.6094,8.6094,8.6094,8.6094,8.6094,0.0,0.0,0.0,6.8578,0.0,0.0,0.0,7.0892,7.1142,7.1112,7.1371,7.1722,7.2184,7.258,7.3129,7.3969,7.4084,7.4392,7.5245,7.5745,7.6015,7.6015,7.6015,7.6015,7.6015,7.6015,7.6015,7.6015,7.6015,7.6207,7.663,7.7061,7.7861,7.9092,7.9592,8.0208,8.1093,8.1093,8.1093,8.1093,8.1093,8.1093,8.1093,8.1093,8.1093,8.1093,8.1093,8.1093,8.1093,8.1093,8.1323,8.1708,8.1708,8.2477,8.367,8.4093,8.4516,8.497,8.5354,8.4939,8.4247,8.4247,8.367,8.2947,8.2947,8.2362,8.1593,8.1208,8.1093,8.1093,8.1093,8.1093,8.1093,8.1093,8.1093,8.1093,8.1093,8.1093,8.1093,8.1093,8.1093,8.1093,8.1093,8.1093,8.1093,8.1093,8.1093,8.1093,8.1093,8.1093,8.1093,8.1093,8.1093,8.1093,8.1093,8.1093,8.1285,8.167,8.2093,8.2708,8.3555,8.4439,8.5286,8.6094,8.6094,8.6094,8.6094,8.6094,8.6094,8.6094,8.6094,8.6094,0.0,0.0,0.0,0.0,0.0,7.0059,0.0,0.0,0.0,7.1207,7.1112,7.1249,0.0,0.0,0.0,7.2668,0.0,0.0,0.0,7.4861,0.0,7.5976,7.6015,7.6015,7.6015,7.6015,7.6015,7.6015,7.6015,7.6015,7.6015,7.6669,7.7407,7.8253,7.9092,7.9977,8.0823,8.1016,8.1093,8.1093,8.1093,8.1093,8.1093,8.1093,8.1093,8.1093,8.1093,8.1093,8.1093,8.1093,8.1093,8.1093,8.1093,8.1593,8.2401,8.3101,8.4016,8.497,8.5632,8.5547,8.5124,8.5124,8.4555,8.3832,8.364,8.3101,8.2401,8.1747,8.1477,8.1323,8.1323,8.1208,8.1093,8.1093,8.1093,8.1093,8.1093,8.1093,8.1093,8.1093,8.1093,8.1093,8.1093,8.1093,8.1093,8.1093,8.1093,8.1093,8.1093,8.1093,8.1093,8.1093,8.1093,8.1093,8.1093,8.1093,8.1093,8.1093,8.1708,8.2131,8.2285,8.3824,8.5016,8.5863,8.5863,8.594,8.6094,8.6094,8.6094,8.6094,8.6094,8.6094,0.0,0.0,0.0,0.0,6.9943,0.0,0.0,0.0,7.1207,7.1207,0.0,0.0,0.0,0.0,0.0,0.0,0.0,0.0,7.1437,7.2738,7.4353,7.5822,7.6015,7.6015,7.6015,7.6015,7.6015,7.6015,7.6015,7.6015,7.6015,7.6092,7.6553,7.7407,7.8215,7.9054,7.9931,8.0708,8.1093,8.1093,8.1093,8.1093,8.1093,8.1093,8.1093,8.1093,8.1093,8.1093,8.1093,8.1093,8.1093,8.1093,8.1093,8.1593,8.2324,8.2401,8.3478,8.4893,8.5008,8.5431,8.5978,8.5978,8.5401,8.4593,8.3832,8.3524,8.3447,8.3332,8.2747,8.217,8.217,8.1631,8.1093,8.1093,8.1093,8.1093,8.1093,8.1093,8.1093,8.1093,8.1093,8.1093,8.1093,8.1093,8.1093,8.1093,8.1093,8.1093,8.1093,8.1093,8.1093,8.1093,8.1093,8.1093,8.1093,8.1093,8.1093,8.1093,8.1208,8.1554,8.2285,8.3216,8.4132,8.5008,8.5047,8.5401,8.6094,8.6094,8.6094,8.6094,8.6094,8.6094,0.0,0.0,0.0,0.0,0.0,0.0,7.1209,0.0,7.1258,0.0,0.0,0.0,0.0,0.0,0.0,0.0,7.0975,0.0,0.0,0.0,7.336,7.5053,0.0,0.0,7.5938,7.6015,7.6015,7.6015,7.6015,7.6015,7.6015,7.6015,7.6399,7.7292,7.8099,7.89,7.9777,8.0669,8.1093,8.1093,8.1093,8.1093,8.1093,8.1093,8.1093,8.1093,8.1093,8.1093,8.1093,8.1093,8.1093,8.1093,8.1093,8.1323,8.167,8.2131,8.2747,8.3555,8.4555,8.5124,8.547,8.594,8.5863,8.5431,8.4593,8.4362,8.4247,8.3755,8.3332,8.3062,8.3062,8.2439,8.1785,8.1785,8.1439,8.1093,8.1093,8.1093,8.1093,8.1093,8.1093,8.1093,8.1093,8.1093,8.1093,8.1093,8.1093,8.1093,8.1093,8.1093,8.1093,8.1093,8.1093,8.1093,8.1093,8.1093,8.1093,8.1093,8.1093,8.1477,8.2285,8.2639,8.3247,8.4132,8.4132,8.4555,8.5401,8.5401,8.5632,8.6094,8.6094,8.6094,7.1804,0.0,0.0,0.0,0.0,0.0,0.0,0.0,0.0,0.0,0.0,0.0,0.0,0.0,0.0,0.0,0.0,7.0975,0.0,7.1552,0.0,0.0,0.0,0.0,0.0,7.5861,7.6015,7.6015,7.6015,7.6015,7.6015,7.6015,7.6284,7.6907,7.7753,7.86,7.9438,8.0323,8.0862,8.1093,8.1093,8.1093,8.1093,8.1093,8.1093,8.1093,8.1093,8.1093,8.1093,8.1093,8.1093,8.1093,8.1093,8.1093,8.117,8.1747,8.2093,8.2516,8.4016,8.4863,8.5316,8.5901,8.6094,8.5978,8.5401,8.5247,8.5093,8.4439,8.414,8.3947,8.3947,8.3324,8.2678,8.2678,8.2208,8.1785,8.1785,8.1785,8.1708,8.1477,8.1439,8.1362,8.1131,8.1093,8.1093,8.1093,8.1093,8.1093,8.1093,8.1093,8.1093,8.1093,8.1093,8.1093,8.1093,8.1093,8.1093,8.1093,8.1093,8.1362,8.1939,8.1977,8.2362,8.3216,8.3255,8.367,8.4555,8.4555,8.4978,8.5778,8.6017,8.6094,0.0,0.0,0.0,7.1389,0.0,0.0,0.0,0.0,7.1297,0.0,0.0,0.0,0.0,0.0,0.0,0.0,0.0,0.0,0.0,0.0,0.0,0.0,0.0,0.0,0.0,7.5515,7.6015,7.6015,7.6015,7.6015,7.6015,7.6015,7.6015,7.6053,7.6899,7.7715,7.8523,7.94,8.0285,8.1093,8.1093,8.1093,8.1093,8.1093,8.1093,8.1093,8.1093,8.1093,8.1093,8.1093,8.1093,8.1093,8.1093,8.1093,8.1093,8.1131,8.1631,8.2439,8.3332,8.4709,8.6055,8.6094,8.6094,8.6094,8.6055,8.6055,8.6055,8.6017,8.5478,8.4854,8.4854,8.4209,8.3563,8.3563,8.3524,8.3524,8.3524,8.3524,8.3255,8.2439,8.2247,8.2016,8.1246,8.1093,8.1093,8.1093,8.1093,8.1093,8.1093,8.1093,8.1093,8.1093,8.1093,8.1093,8.1093,8.1093,8.1093,8.1093,8.1093,8.1093,8.1131,8.1131,8.1516,8.2324,8.2324,8.2755,8.364,8.364,8.4093,8.497,8.5747,8.6094,0.0,0.0,7.3151,7.2954,0.0,0.0,0.0,0.0,0.0,0.0,0.0,0.0,0.0,0.0,0.0,0.0,0.0,0.0,0.0,0.0,0.0,0.0,0.0,0.0,0.0,0.0,7.5399,7.5976,7.6015,7.6015,7.6015,7.6015,7.6015,7.6015,7.6861,7.7676,7.8484,7.9361,8.0246,8.1093,8.1093,8.1093,8.1093,8.1093,8.1093,8.1093,8.1093,8.1093,8.1093,8.1093,8.1093,8.1093,8.1093,8.1093,8.1093,8.1093,8.1285,8.1708,8.3101,8.4362,8.5401,8.594,8.6094,8.6094,8.6094,8.6094,8.6094,8.6094,8.5901,8.5709,8.5709,8.5093,8.4478,8.4478,8.4016,8.3601,8.3601,8.3601,8.3524,8.3216,8.3178,8.3062,8.2793,8.2755,8.237,8.1285,8.1093,8.1093,8.1093,8.1093,8.1093,8.1093,8.1093,8.1093,8.1093,8.1093,8.1093,8.1093,8.1093,8.1093,8.1093,8.1093,8.1246,8.1516,8.1516,8.19,8.2747,8.2747,8.317,8.4055,8.4324,8.5055,7.4268,7.4003,0.0,7.3774,7.3266,0.0,7.3014,0.0,0.0,0.0,0.0,0.0,0.0,0.0,0.0,0.0,0.0,0.0,0.0,7.0898,0.0,0.0,0.0,0.0,0.0,7.4361,7.493,7.5515,7.5822,7.6015,7.6015,7.6015,7.6015,7.6015,7.6553,7.7253,7.8061,7.89,7.9785,8.0631,8.0939,8.1093,8.1093,8.1093,8.1093,8.1093,8.1093,8.1093,8.1093,8.1093,8.1093,8.1093,8.1093,8.1093,8.1093,8.1093,8.1285,8.1747,8.3139,8.417,8.5008,8.5863,8.6094,8.6094,8.6094,8.6094,8.5978,8.5363,8.5632,8.5978,8.5363,8.5286,8.5316,8.5316,8.4901,8.4478,8.4478,8.4478,8.4401,8.4132,8.4055,8.3947,8.364,8.3601,8.3216,8.2131,8.1977,8.1977,8.1977,8.1977,8.1977,8.1977,8.1977,8.1977,8.1977,8.1977,8.1977,8.1977,8.1977,8.1977,8.1977,8.1977,8.1977,8.1977,8.1977,8.2247,8.2747,8.2747,8.3062,8.3601,8.3601,8.417]}]]